GFSMA_850_spd_000.txt.gz
Wind_Speed
9 6 7 6 5 6 6 6 7 8 9 9 10 11 9 10 11 8 7 14 9 8 7 6 5 9 8 9 10 8 7 7 9 9 9 10 11 11 11 10 10 10 9
11 7 7 7 7 7 6 5 8 9 10 10 10 10 10 10 10 10 7 8 10 9 9 8 7 7 10 11 9 10 10 9 8 8 11 12 13 12 11 11 11 11 10
13 10 9 8 7 8 9 8 9 10 11 12 11 11 10 10 8 8 6 6 7 9 8 9 8 8 8 10 11 9 9 11 10 12 11 11 12 13 13 12 12 12 11
12 11 11 9 10 10 10 9 9 10 12 11 12 11 10 9 8 6 5 5 6 6 10 9 10 9 9 10 10 12 12 12 12 13 13 14 14 14 14 13 12 12 12
14 12 11 10 11 12 13 8 10 12 10 10 9 10 9 7 6 4 3 3 3 2 5 11 11 10 9 10 11 12 12 13 15 15 15 15 16 17 17 16 15 14 14
12 12 11 11 12 11 8 10 11 10 8 9 8 7 6 3 4 3 3 4 4 4 1 1 5 7 11 12 12 13 13 14 15 14 16 18 18 17 18 18 18 17 16
14 14 10 11 10 8 9 9 10 9 6 7 5 4 3 2 4 3 3 4 4 4 4 3 2 2 6 8 14 14 15 17 16 17 17 17 19 21 21 21 19 19 19
14 11 11 9 11 8 10 7 6 4 5 5 3 4 3 3 2 1 2 5 4 4 4 4 3 3 1 3 9 9 15 17 17 18 20 20 20 21 22 23 24 23 22
11 11 12 9 11 9 7 4 4 5 3 4 2 2 3 1 3 2 0 3 6 5 5 5 3 3 4 3 2 6 10 13 15 18 20 21 23 23 24 24 25 25 26
10 10 9 9 12 6 6 4 4 3 2 3 4 3 2 3 4 2 2 3 4 4 4 4 4 4 4 2 6 8 9 11 14 17 19 20 22 24 25 25 26 27 27
11 11 11 11 11 4 7 5 3 3 3 4 4 3 3 3 3 3 7 5 7 4 4 4 4 4 4 4 4 8 10 11 11 12 15 18 21 23 25 27 28 29 28
12 13 12 12 9 7 6 4 5 4 4 5 4 5 3 3 3 5 8 8 9 8 8 8 7 6 7 6 7 9 10 11 12 13 14 15 17 19 22 26 28 30 32
12 13 14 13 8 7 7 6 6 5 3 3 5 5 6 6 7 7 8 9 11 12 11 9 8 9 8 8 9 12 11 11 11 12 12 14 16 18 20 22 26 30 32
12 11 11 12 10 10 8 8 7 5 6 6 6 6 8 8 10 11 12 13 14 13 12 11 7 11 9 11 12 15 12 17 13 13 15 16 17 18 18 19 23 27 30
11 13 11 12 10 11 10 10 8 9 8 8 9 9 10 10 11 12 13 13 14 17 16 13 15 13 12 14 15 16 15 17 20 20 19 19 19 19 20 21 22 25 29
13 13 12 12 11 10 12 12 11 11 11 9 9 10 11 11 12 12 12 14 14 18 22 17 16 16 16 17 16 19 17 20 21 23 21 21 22 22 23 23 24 26 28
14 14 13 13 13 13 13 15 14 12 12 11 11 12 11 12 11 11 12 13 15 15 20 22 19 18 17 19 19 19 20 20 20 22 27 27 24 26 27 27 26 28 30
16 12 8 16 17 16 15 17 16 13 12 13 12 12 10 10 11 12 13 13 15 15 19 22 23 21 20 19 19 21 22 22 22 23 29 28 27 29 28 28 29 29 29
21 21 31 29 22 23 21 20 18 16 14 13 13 13 13 13 14 13 15 15 16 17 20 21 22 19 22 21 21 24 21 25 22 22 26 27 32 32 31 32 33 39 36
32 36 39 33 33 26 23 22 18 17 16 15 15 15 15 15 15 14 16 16 16 18 21 21 22 22 22 24 24 24 25 25 27 26 28 31 32 31 32 29 37 37 37
48 46 44 39 34 29 27 24 20 19 18 18 16 16 16 16 17 17 18 19 22 21 22 23 25 25 27 24 25 26 27 27 28 27 30 30 32 31 31 33 35 37 42
54 51 49 41 34 29 26 26 24 19 18 17 16 17 18 20 25 23 22 24 25 25 27 25 26 29 28 25 24 25 27 28 32 26 31 34 31 35 35 35 40 47 52
53 49 49 38 30 36 28 25 23 23 19 18 19 20 22 24 24 26 26 24 24 26 27 29 24 23 25 23 25 28 26 28 32 32 33 37 30 37 37 42 47 51 54
50 47 41 36 26 30 31 30 26 25 25 23 23 23 25 23 24 27 24 22 23 24 20 23 22 22 22 26 30 31 30 31 33 29 27 37 33 38 44 46 54 55 49
35 30 30 25 24 27 29 28 28 25 25 29 26 29 36 36 23 26 23 24 22 22 19 22 26 25 26 28 29 28 23 24 27 29 27 32 36 42 48 60 56 47 37
28 27 28 25 24 24 23 24 27 27 30 26 28 30 29 19 22 22 22 22 17 17 16 19 21 19 22 21 23 24 23 24 27 33 30 32 38 42 48 53 49 46 38

GFSMA_850_spd_003.txt.gz
Wind_Speed
8 6 7 5 5 7 5 6 7 8 9 9 9 10 9 9 9 7 6 12 11 7 6 6 5 9 7 9 9 9 7 7 7 7 8 9 8 8 7 8 8 9 8
11 7 7 5 7 10 5 6 8 8 9 10 11 10 11 9 9 7 5 9 10 6 7 7 6 6 11 9 8 10 9 8 7 7 8 8 10 10 9 9 9 10 11
10 12 8 8 9 13 12 9 8 11 10 12 10 10 9 9 7 6 3 4 7 9 5 8 7 6 6 10 10 9 11 10 10 9 9 8 10 11 11 10 10 11 10
12 8 10 7 10 8 9 10 12 8 11 10 9 8 8 8 8 5 3 3 3 4 9 7 6 7 6 8 10 12 10 9 9 11 10 12 11 11 12 13 12 11 10
13 12 10 11 12 10 10 9 8 8 11 8 8 7 5 5 6 4 4 5 3 3 2 7 8 9 7 8 9 9 10 11 11 12 12 13 13 14 15 14 13 13 13
14 12 10 13 11 10 9 7 10 11 8 6 8 6 1 2 2 2 5 5 5 5 3 1 5 6 8 10 10 12 12 12 12 13 13 13 14 15 15 16 17 16 16
12 13 8 12 9 9 6 13 10 8 7 3 6 3 5 3 2 3 4 4 5 3 2 2 2 2 3 6 10 14 13 14 14 14 15 15 15 16 18 18 18 18 18
10 12 7 9 12 6 10 7 6 3 4 4 4 5 4 4 6 5 2 4 5 4 3 4 3 4 1 5 9 9 12 15 16 15 16 17 18 18 18 20 21 22 22
13 13 12 8 6 7 6 6 4 3 2 4 5 2 5 5 1 5 4 1 4 3 3 5 2 3 2 4 4 7 9 11 13 14 17 18 19 20 21 21 22 23 24
8 8 5 6 8 6 9 5 3 4 3 2 2 0 4 3 5 6 5 3 1 3 5 2 4 7 5 2 9 10 8 10 12 14 16 18 19 20 21 22 23 24 25
10 8 7 9 6 6 9 7 4 3 3 3 2 3 2 2 1 1 5 1 6 2 4 5 5 5 8 8 4 14 10 9 10 12 13 15 17 19 21 22 23 25 27
6 10 8 10 7 3 5 3 5 4 5 7 4 5 2 2 1 3 5 6 7 7 5 8 7 7 7 9 10 14 12 11 11 12 12 13 15 16 18 19 21 23 26
9 11 11 12 7 6 7 5 6 6 4 3 4 4 6 6 5 4 7 9 10 9 10 7 8 7 7 9 10 15 16 12 12 13 14 15 15 15 16 17 19 22 24
11 12 12 12 11 10 8 8 7 5 6 5 6 6 6 6 6 6 7 8 11 13 13 10 6 9 9 7 12 16 15 16 18 15 15 16 19 19 20 21 21 22 22
15 15 16 15 13 13 12 10 8 10 10 9 9 10 9 7 7 8 8 10 10 13 13 12 11 10 11 11 11 15 17 16 20 21 20 21 21 22 22 22 23 23 26
21 18 17 15 15 15 16 13 12 10 11 9 9 10 12 9 8 10 10 10 9 12 15 13 13 13 13 14 16 20 17 20 21 21 24 23 22 20 23 25 25 26 27
25 26 21 19 18 16 15 12 11 13 10 9 10 13 13 13 9 9 9 9 10 12 16 18 16 15 16 18 18 18 18 19 22 22 22 27 31 29 28 28 28 29 28
32 28 25 23 21 15 16 11 13 12 13 12 14 14 13 11 14 10 9 12 13 16 16 20 20 17 17 19 19 22 22 20 21 21 26 31 27 27 29 31 31 30 29
36 34 30 30 23 16 18 14 14 14 14 14 13 14 13 14 15 15 15 15 14 15 15 19 18 19 20 21 20 22 24 24 24 26 26 25 26 29 34 36 35 31 29
40 39 37 35 29 20 19 15 14 15 16 15 14 15 15 17 18 18 17 18 19 18 15 19 19 20 20 24 21 23 23 24 25 24 24 28 30 32 32 34 35 32 33
44 43 43 38 32 23 18 16 17 18 17 17 16 15 15 16 18 17 18 21 24 22 22 22 24 23 24 22 23 26 26 25 25 23 27 28 28 31 35 33 34 34 33
46 44 43 40 40 28 23 20 23 19 20 20 18 17 19 22 23 24 25 25 27 27 30 28 26 25 27 26 24 25 22 25 29 22 27 31 28 34 36 35 34 35 37
48 43 51 47 31 25 25 22 24 23 21 19 21 22 19 18 22 23 27 29 27 21 26 26 28 27 25 23 23 26 24 27 29 27 28 35 28 32 33 35 36 38 42
45 47 46 35 23 21 25 24 25 26 26 25 21 19 19 20 22 26 29 30 26 24 25 25 25 25 22 23 26 29 32 31 28 25 23 33 30 34 33 35 39 43 50
34 40 40 33 27 25 25 26 24 30 25 23 21 21 22 24 29 31 30 24 24 24 19 23 25 26 29 27 23 21 19 22 26 25 23 28 30 35 39 42 47 44 48
23 24 22 25 25 23 24 25 26 25 25 23 24 27 25 28 29 26 22 24 21 19 19 20 22 22 24 23 22 22 23 23 25 28 24 28 33 36 41 43 39 52 54

GFSMA_850_spd_006.txt.gz
Wind_Speed
10 7 3 3 3 2 6 8 7 8 10 9 11 8 9 8 10 5 7 11 11 10 3 4 5 5 8 9 9 8 8 9 8 8 8 7 7 7 6 5 5 5 6
9 12 8 6 6 6 8 4 7 5 7 8 8 12 11 6 10 7 5 7 9 9 3 3 5 4 9 7 8 10 9 6 6 7 8 7 8 8 8 7 6 7 7
12 10 7 8 7 11 11 9 9 10 4 8 8 9 6 9 5 10 2 5 7 8 5 5 4 5 5 10 10 7 10 10 8 7 7 8 9 9 9 8 7 7 8
13 12 4 8 13 5 11 9 11 9 8 7 7 5 6 5 7 7 2 4 4 4 6 4 3 3 5 7 9 9 9 8 9 10 9 11 10 10 9 10 10 9 9
12 8 6 11 4 13 12 7 12 4 8 5 4 4 2 3 4 2 2 5 2 4 4 4 5 5 4 5 7 8 9 11 12 11 11 12 12 13 13 11 11 10 10
15 12 7 11 14 15 6 9 5 12 3 6 4 6 5 3 4 0 5 3 9 5 5 2 4 6 3 5 7 9 10 11 11 12 12 13 14 14 15 14 14 14 14
16 12 11 10 10 7 8 4 12 4 2 4 7 6 10 1 6 6 5 4 7 5 4 7 3 2 3 3 5 9 11 12 12 13 14 15 15 15 16 17 17 16 15
10 10 8 5 6 5 5 9 11 2 2 5 6 5 8 7 6 7 3 3 4 3 1 2 3 3 2 3 6 7 8 10 13 14 15 15 17 17 17 17 17 19 19
13 9 10 9 10 8 6 7 5 2 4 2 5 1 2 2 8 7 6 4 5 1 2 5 9 6 1 5 8 5 6 8 10 11 12 13 15 16 17 18 19 19 19
13 18 13 9 10 9 8 8 4 4 4 2 1 4 3 1 2 7 11 3 1 2 9 1 2 8 9 4 9 12 9 9 9 11 13 14 15 16 16 17 18 19 20
8 8 10 10 14 6 9 9 10 8 6 5 4 4 0 1 3 1 11 5 6 3 5 7 7 5 6 11 12 14 12 13 12 11 11 13 15 15 15 16 17 19 20
14 18 16 15 15 7 10 9 6 6 12 10 9 6 5 2 6 1 3 4 4 5 9 8 8 4 7 8 10 14 17 15 13 12 12 12 13 13 14 15 16 17 18
18 15 17 16 15 9 12 9 6 7 6 9 6 8 6 8 7 5 3 8 9 10 7 8 9 9 11 9 9 12 16 16 14 13 14 15 15 15 16 17 17 18 18
18 20 18 18 17 14 13 11 10 11 5 4 9 13 8 5 6 5 7 7 10 10 7 10 11 8 12 11 12 13 15 18 21 21 18 17 19 20 21 21 21 21 21
21 25 26 22 20 19 14 12 11 9 12 11 11 8 7 12 9 9 8 9 11 8 10 10 9 9 6 10 11 17 19 22 25 23 23 20 20 21 23 24 24 24 25
27 25 27 25 22 18 19 17 13 17 12 10 10 9 11 10 10 9 10 8 10 9 10 11 9 8 10 16 18 18 18 24 24 22 24 24 22 24 25 25 27 27 27
31 33 29 26 23 22 22 20 18 13 12 13 10 17 15 14 15 13 9 9 9 10 13 15 17 16 17 20 18 18 19 19 22 23 23 25 27 29 30 26 24 26 27
37 36 34 31 27 26 25 22 19 23 20 15 13 13 14 16 12 11 10 8 12 15 17 20 16 14 17 17 19 17 20 23 21 22 22 26 29 32 27 26 27 29 28
43 40 39 35 31 31 28 24 20 19 19 18 16 14 13 12 16 15 14 14 15 15 16 17 20 21 22 20 22 21 18 24 25 27 26 22 27 28 24 30 33 32 30
43 42 42 39 35 34 31 27 23 20 17 20 21 19 16 17 18 20 19 20 19 20 21 21 22 21 19 21 25 28 22 19 27 25 24 26 28 30 32 30 30 29 30
44 41 41 40 37 34 33 29 25 22 18 20 19 17 18 19 20 21 20 18 20 22 26 26 28 26 25 24 24 28 34 34 33 26 24 25 29 30 32 33 35 37 40
38 39 39 39 38 36 36 26 24 24 21 21 22 19 20 18 22 18 22 20 21 25 26 29 27 27 26 27 29 29 26 26 28 26 26 30 35 38 42 41 33 28 31
41 38 40 41 41 34 26 23 24 25 24 23 23 22 21 21 19 21 23 19 22 28 31 26 24 26 26 28 27 25 26 28 32 35 32 30 26 27 29 32 30 26 28
39 38 34 35 35 37 34 30 27 25 27 24 24 22 20 20 21 24 23 23 28 31 25 23 24 25 24 25 26 27 31 31 28 25 20 29 31 30 29 26 26 32 39
33 29 31 32 29 28 24 23 25 26 28 29 27 24 23 24 25 23 24 27 29 24 21 23 23 24 23 24 25 24 23 23 26 23 21 28 28 28 36 43 42 32 36
24 21 25 27 18 25 25 26 21 21 24 27 24 22 23 23 25 25 25 27 25 20 23 22 23 24 25 27 19 20 24 28 26 26 20 27 33 39 42 36 33 41 39

GFSMA_850_spd_009.txt.gz
Wind_Speed
3 4 1 0 4 3 5 4 2 4 6 4 7 6 11 6 5 7 4 1 3 4 4 6 9 7 8 11 10 9 8 8 9 9 9 7 7 8 6 6 6 5 5
7 4 4 3 3 4 4 7 10 7 3 4 1 7 8 4 11 6 3 1 2 4 2 3 6 6 9 9 10 9 7 7 9 8 9 9 10 9 7 7 6 6 6
8 13 8 4 4 6 4 7 7 6 1 1 4 7 3 9 8 9 10 3 4 1 3 1 3 5 5 10 8 8 9 9 7 7 8 9 9 9 9 9 8 7 7
12 9 7 6 7 10 6 8 9 7 2 2 1 2 6 3 6 5 4 1 2 1 2 1 3 1 2 4 9 10 8 11 11 11 10 10 9 9 9 9 10 9 8
12 10 8 7 3 5 9 9 7 10 8 8 4 4 2 5 5 5 5 5 5 3 2 2 2 0 4 5 6 9 11 12 12 11 11 12 11 12 12 11 11 11 10
14 10 8 9 5 7 10 8 5 11 2 2 3 3 4 4 3 4 5 12 9 6 3 3 1 3 5 5 6 8 9 10 12 12 13 14 13 14 14 14 14 14 13
15 12 12 11 10 6 5 7 7 7 5 3 3 1 7 3 6 7 4 7 4 4 6 3 2 0 2 2 2 5 8 10 12 13 13 13 14 14 14 15 16 15 15
12 7 8 8 9 8 8 9 6 4 4 5 3 3 6 8 8 6 2 6 3 2 2 1 2 3 5 2 2 4 4 7 11 12 12 12 13 14 15 15 15 15 16
15 10 11 10 8 10 11 8 7 7 8 7 3 3 5 4 12 7 6 4 4 6 9 3 2 4 5 3 4 3 5 5 7 9 10 10 12 13 15 16 16 17 17
15 13 15 12 12 14 13 9 7 4 11 7 5 1 3 4 5 9 10 6 2 2 7 7 7 6 5 7 9 10 7 6 6 7 8 9 10 12 12 13 15 16 17
16 13 15 13 15 11 13 11 6 5 15 11 9 9 2 3 5 5 15 12 10 4 4 7 7 6 4 7 11 11 9 9 9 8 7 8 9 9 9 10 11 13 15
20 14 16 15 14 14 13 11 8 10 14 17 13 11 10 5 8 4 8 5 4 8 6 6 11 8 8 8 11 12 12 11 10 11 9 9 10 11 11 11 11 11 12
23 18 17 19 16 15 13 12 10 10 14 13 16 14 16 8 7 6 6 6 7 10 8 6 6 10 9 8 11 12 12 11 14 14 14 13 14 13 14 15 15 16 16
21 20 19 16 15 15 14 12 12 11 12 12 13 16 17 13 11 8 9 8 7 8 8 3 4 11 10 12 10 14 14 15 18 18 19 17 16 16 16 18 20 20 21
20 19 20 18 18 17 17 14 14 13 12 12 11 14 19 14 14 10 9 12 9 8 7 5 5 5 8 9 11 13 14 19 24 23 24 20 16 16 18 18 18 19 20
28 24 24 24 23 21 20 18 17 16 15 13 11 11 16 16 17 11 9 10 9 10 12 8 9 10 9 12 16 20 20 20 22 21 20 20 20 21 22 22 20 21 21
33 32 30 28 27 26 24 21 19 18 19 17 15 14 14 16 19 16 13 10 10 12 14 11 11 14 17 16 17 15 17 20 22 21 20 18 21 24 26 26 26 23 22
38 33 33 32 30 27 26 26 23 22 21 20 19 16 19 18 17 15 18 18 14 11 13 15 17 19 17 16 20 19 18 20 22 23 23 21 24 23 25 26 26 27 28
41 39 37 37 37 34 31 29 26 25 25 22 20 20 17 17 20 18 17 17 17 15 16 19 22 20 24 24 19 21 22 21 25 21 16 23 27 26 27 28 27 25 26
43 43 43 42 40 37 34 32 29 26 26 27 24 23 20 18 17 19 19 17 16 17 20 22 20 24 24 24 25 21 21 22 26 27 31 28 26 26 28 25 23 25 27
46 43 42 43 42 39 35 34 31 29 26 26 25 25 23 21 20 20 20 19 20 19 22 22 25 26 29 29 26 24 25 29 31 28 29 28 26 28 30 31 33 34 37
44 44 42 41 41 38 35 35 32 31 26 23 21 23 24 25 24 21 20 19 20 21 23 22 24 28 26 22 22 23 27 29 29 29 31 34 32 31 26 24 23 23 23
37 38 39 38 35 35 33 32 31 29 25 24 23 24 27 27 24 22 22 21 19 17 19 22 27 24 23 21 23 24 25 25 28 30 29 29 23 23 23 24 23 23 22
38 36 34 34 32 32 30 28 25 25 24 24 24 27 25 25 24 23 20 20 22 23 23 26 21 20 20 22 23 23 26 27 27 23 21 27 25 27 26 26 28 32 36
37 36 32 32 30 30 27 24 26 24 26 27 29 30 28 24 21 20 22 23 24 26 24 20 19 21 22 23 23 23 25 26 26 27 24 26 25 27 34 41 37 22 25
25 27 29 27 25 23 21 19 20 27 28 28 28 31 29 28 24 23 21 21 25 24 20 18 19 22 23 24 22 19 21 26 26 29 24 23 30 32 34 30 29 29 32

GFSMA_850_spd_012.txt.gz
Wind_Speed
4 1 5 2 2 2 4 4 2 5 3 3 4 3 8 4 8 9 3 3 1 3 3 6 8 7 8 11 11 10 9 9 11 11 10 9 8 8 8 6 6 6 6
5 4 3 4 4 1 2 5 5 5 7 2 1 3 4 3 7 5 0 3 2 2 3 5 8 9 7 10 11 10 10 10 10 10 10 10 8 8 9 7 7 7 7
7 6 6 4 3 2 3 5 8 7 6 3 0 3 2 4 4 9 6 2 4 2 2 2 7 7 8 10 10 11 11 9 8 10 10 11 10 11 10 9 9 8 8
9 8 7 8 10 8 9 7 10 7 4 4 0 1 2 0 1 2 1 2 3 3 1 0 2 5 6 9 12 10 11 12 11 10 9 9 10 10 10 11 11 11 9
12 6 10 9 7 6 9 9 7 6 5 6 6 4 3 3 4 1 6 4 3 3 3 3 2 2 5 6 9 12 12 11 11 12 12 12 12 12 11 11 11 12 12
12 14 10 9 8 8 6 7 6 5 5 5 6 6 3 2 4 4 6 9 7 5 3 6 4 5 6 6 6 9 11 11 13 13 13 14 13 14 14 13 13 14 14
15 13 12 12 12 8 4 5 6 6 7 7 7 7 6 3 4 5 6 5 4 4 6 8 7 1 5 5 6 7 9 11 13 13 13 13 14 14 13 14 14 15 15
18 14 10 10 12 12 10 10 8 4 10 7 5 8 12 8 7 7 4 3 3 7 4 1 3 5 6 4 3 4 5 9 12 12 12 12 13 14 14 15 15 14 15
16 14 12 12 12 15 14 12 9 6 12 11 5 7 7 7 13 10 8 4 3 5 8 5 5 2 2 3 4 5 5 5 6 8 10 11 11 12 14 14 15 15 15
20 18 16 15 14 14 14 12 9 8 13 14 10 6 6 8 12 12 13 8 5 2 4 4 6 8 5 6 7 6 5 4 5 6 8 9 10 11 12 13 14 14 15
20 19 17 16 17 15 13 12 9 8 15 13 11 8 5 8 10 13 13 15 10 7 3 3 4 6 6 7 7 8 7 5 6 6 7 8 8 9 10 10 11 12 13
23 21 18 18 17 15 14 10 9 9 12 14 12 12 10 10 9 9 9 14 10 11 5 8 7 8 8 6 7 7 9 7 8 10 8 8 10 10 10 10 10 10 11
26 25 21 17 16 15 14 12 12 12 14 16 15 14 13 12 8 8 9 10 6 6 7 8 5 10 9 10 9 9 9 9 9 12 13 13 12 11 12 13 13 13 13
27 25 24 20 18 17 16 14 13 12 13 16 17 19 17 17 14 11 10 10 8 7 10 6 4 3 7 11 10 11 14 14 13 16 16 16 13 11 11 13 12 12 13
29 28 26 20 19 18 17 15 15 14 13 13 15 16 18 17 16 15 12 10 9 8 7 5 5 6 7 9 11 14 17 18 18 17 17 17 18 14 12 14 15 15 15
28 29 26 21 21 21 20 17 17 16 15 15 14 15 16 20 17 17 14 11 12 11 9 10 8 10 8 10 14 14 16 15 18 19 20 19 18 16 16 16 18 20 20
30 32 29 26 25 25 24 21 20 19 17 16 16 15 15 17 19 21 18 13 14 16 16 15 13 14 16 18 18 16 16 15 15 17 19 22 23 21 20 21 22 21 21
36 35 33 31 29 28 27 24 23 23 21 19 18 17 15 18 20 22 21 19 17 16 15 13 15 18 18 17 20 24 23 20 20 19 19 23 22 21 22 23 25 24 22
44 39 36 36 34 31 30 28 25 25 24 22 21 20 18 19 21 21 20 20 22 20 19 18 19 20 20 20 22 22 24 24 22 24 20 20 21 24 28 27 27 27 27
46 47 44 41 39 35 34 32 30 27 27 25 24 23 21 22 22 19 21 23 21 20 20 19 20 23 23 24 25 28 25 23 24 25 26 27 25 25 25 25 26 27 27
46 46 44 42 40 38 38 37 35 31 28 27 26 26 25 23 23 20 20 22 23 21 22 23 24 24 25 26 28 23 20 22 24 25 24 21 24 24 25 27 28 30 31
43 44 44 43 43 40 40 40 38 36 31 28 28 26 26 23 24 24 20 22 22 21 22 25 24 24 25 28 21 21 21 24 26 26 23 27 23 21 19 16 17 20 22
41 40 42 42 39 40 39 38 37 34 31 27 28 26 25 24 26 26 25 22 22 23 24 24 21 24 28 22 20 21 23 24 26 24 27 26 23 23 21 20 19 23 27
38 34 33 32 32 35 32 28 29 28 24 25 27 26 24 22 25 23 23 23 23 21 22 23 24 26 23 19 21 23 25 26 27 25 24 29 27 29 27 25 27 31 30
36 32 28 28 28 38 35 31 27 24 19 23 24 24 23 24 24 22 21 22 22 25 22 22 25 25 21 20 21 24 25 24 25 24 26 27 26 28 29 34 34 23 23
32 28 26 29 29 24 29 25 17 18 20 22 23 25 25 24 26 21 23 25 26 22 22 22 22 19 21 23 22 23 20 21 24 24 20 24 27 27 30 31 22 27 24

GFSMA_850_spd_015.txt.gz
Wind_Speed
3 0 5 4 5 3 3 1 2 4 4 5 4 3 6 3 9 6 2 4 2 3 4 7 9 7 8 10 11 10 8 9 9 9 8 8 7 6 6 5 5 4 5
5 3 3 4 5 4 2 2 2 5 5 4 1 2 3 5 6 5 0 2 2 3 1 5 8 8 6 10 10 10 10 8 8 9 9 9 8 8 8 7 6 6 6
9 6 5 5 6 5 5 4 4 5 5 4 0 1 1 3 3 8 2 0 3 3 1 2 7 8 8 8 10 10 9 8 9 10 9 10 10 9 8 8 8 7 7
11 8 7 6 7 5 7 5 6 6 4 6 5 3 4 1 1 0 1 1 1 1 2 1 2 6 7 8 11 10 11 11 11 9 9 10 10 10 9 10 10 10 10
12 9 6 7 9 8 6 8 9 6 5 8 6 6 4 2 3 2 3 1 2 1 1 2 1 1 3 5 8 12 12 12 13 13 11 11 10 10 10 10 10 10 11
13 11 10 9 9 9 8 7 7 7 7 4 8 9 5 2 2 1 2 5 4 4 1 4 5 6 6 6 6 8 11 12 12 12 12 12 12 12 13 13 13 13 13
13 12 11 12 13 11 9 8 8 7 5 7 8 9 5 4 4 3 2 1 2 3 4 6 7 6 5 3 6 7 8 10 11 10 11 13 13 14 14 14 15 15 14
17 16 14 14 14 13 12 9 8 9 8 9 9 7 9 8 7 6 2 1 2 7 5 3 2 4 4 4 4 5 6 7 10 10 10 10 12 13 13 14 15 14 14
17 17 16 16 14 13 15 13 12 10 11 11 8 6 5 5 11 11 7 4 2 5 8 10 9 5 3 2 2 4 4 5 6 7 9 10 11 12 13 14 15 14 15
21 21 18 18 16 13 13 15 14 11 11 12 10 8 7 6 10 8 13 10 6 3 2 3 5 8 7 5 5 6 4 3 4 5 6 7 8 10 12 13 14 14 13
22 23 23 22 17 16 14 14 13 11 11 14 14 11 8 9 11 12 13 14 11 8 4 3 2 2 4 5 5 7 8 6 8 8 7 6 6 7 8 9 9 10 11
27 26 23 23 19 18 16 14 11 12 9 15 15 14 11 10 12 13 14 14 14 11 11 8 8 6 4 3 4 5 6 7 8 8 10 10 10 8 7 8 8 9 10
28 27 26 24 20 18 16 14 12 13 12 12 15 13 14 11 10 10 9 10 11 10 12 10 11 9 10 8 5 6 7 8 8 8 11 8 10 9 9 8 9 10 11
29 26 25 24 19 17 16 16 14 14 14 14 17 16 14 14 13 11 9 10 10 8 8 9 7 6 7 6 9 10 11 12 13 12 12 10 10 10 10 9 9 9 10
31 28 25 23 22 20 19 18 16 15 15 14 16 16 17 16 15 15 14 13 12 10 10 6 6 5 5 6 6 10 12 12 14 15 15 14 14 12 12 13 14 14 14
34 31 29 27 25 22 21 20 18 17 17 15 15 16 17 16 16 16 14 14 13 12 12 8 9 9 9 8 11 13 14 14 13 12 14 16 16 17 18 17 16 17 18
35 33 31 29 28 25 24 23 21 19 19 18 17 17 15 15 16 20 18 16 14 15 16 16 16 15 14 13 13 15 15 19 20 18 17 18 19 20 22 22 20 20 21
35 32 30 30 30 28 26 25 23 22 22 21 20 19 19 17 15 17 18 21 18 17 17 18 15 16 17 18 16 18 20 19 23 23 22 22 21 21 20 22 24 26 28
40 39 35 32 33 31 28 27 25 25 24 23 22 21 19 19 16 17 17 21 22 22 21 21 20 19 19 18 18 20 23 27 27 23 21 21 23 26 25 25 25 26 27
43 42 40 37 35 34 31 30 30 29 28 26 25 25 23 21 19 18 17 18 21 23 21 20 23 21 20 20 19 23 28 27 22 17 19 22 24 22 22 23 24 26 27
42 43 43 41 39 37 34 32 32 32 33 31 29 27 26 24 22 21 19 19 17 20 22 22 23 23 25 22 22 24 26 22 22 20 21 20 20 23 22 22 22 20 21
42 42 43 44 43 41 38 34 33 34 37 37 33 28 27 26 25 23 22 21 18 20 21 22 23 23 24 21 22 25 22 21 24 23 21 23 22 23 21 22 22 21 20
44 43 44 42 43 40 36 35 34 27 37 44 34 29 23 27 24 23 23 21 22 20 21 21 22 23 22 21 25 25 22 22 24 24 25 25 24 22 22 24 23 24 24
46 43 42 40 38 37 37 35 33 28 38 36 33 27 25 23 24 23 22 22 21 21 20 21 22 24 25 23 25 23 24 25 25 23 23 27 24 26 23 24 27 28 27
47 45 39 36 34 34 33 31 34 27 25 32 22 21 22 23 21 21 21 20 20 19 18 20 22 22 22 23 22 23 25 26 27 24 22 25 20 25 29 32 28 19 17
48 44 35 34 33 31 28 32 28 26 27 20 20 20 20 21 19 21 20 20 21 19 20 21 22 20 20 19 22 25 23 21 18 16 17 21 24 26 27 28 23 22 21

GFSMA_850_spd_021.txt.gz
Wind_Speed
5 4 5 5 5 4 4 1 3 5 6 6 2 3 7 5 5 4 1 1 1 2 2 3 6 5 7 6 6 5 5 6 6 5 5 4 3 4 3 4 4 3 3
6 5 5 4 5 5 5 4 2 6 7 7 2 4 5 6 6 8 4 3 2 2 4 2 5 7 5 7 7 6 6 5 6 6 6 6 5 5 5 5 5 4 4
7 5 4 4 5 7 7 6 4 5 5 3 1 3 4 6 5 8 7 4 2 4 5 2 3 6 5 6 8 7 7 7 6 5 7 6 6 6 6 6 6 6 5
8 7 5 5 6 6 6 5 4 6 5 2 3 1 2 5 2 3 5 5 4 3 7 6 3 3 4 5 6 8 8 8 7 5 5 6 7 7 8 7 8 8 8
12 10 8 6 6 6 7 7 5 6 4 3 5 4 1 2 4 5 4 4 4 4 3 6 6 6 2 2 3 7 8 8 8 9 8 9 8 8 8 8 8 8 9
13 12 11 9 6 6 5 4 4 4 3 4 3 7 3 2 4 5 5 6 7 3 2 1 3 3 4 2 1 2 3 6 8 9 9 10 11 11 11 11 11 11 11
16 15 14 11 7 6 6 6 5 3 5 1 5 6 3 2 3 5 5 4 6 1 2 4 3 3 1 1 2 1 2 3 5 6 8 8 10 11 11 13 13 13 14
16 15 14 12 9 8 8 8 6 3 4 4 6 5 3 2 3 3 4 4 6 9 6 4 3 2 1 0 2 3 3 2 2 4 6 7 6 7 8 9 10 10 11
17 16 14 13 11 10 9 9 8 7 5 6 7 4 3 4 4 7 5 4 4 5 7 9 8 6 4 3 4 4 3 3 3 2 2 3 4 6 7 8 9 9 10
19 17 15 13 13 11 10 11 9 8 7 5 10 11 9 5 4 3 10 8 5 3 3 3 4 5 6 5 6 7 6 6 6 5 4 3 2 2 4 5 6 6 6
24 21 18 16 15 13 11 11 10 8 8 7 9 10 9 9 9 5 5 7 11 8 5 2 1 1 2 3 3 6 7 7 6 7 7 6 5 5 5 5 5 5 6
27 27 25 21 19 17 14 12 11 9 8 8 10 11 10 6 6 6 6 6 7 9 11 9 7 6 5 5 2 1 1 2 3 4 4 5 4 5 5 5 6 7 7
26 28 25 24 23 18 15 14 13 11 8 8 8 11 12 11 9 5 5 5 5 8 9 9 9 10 10 9 8 6 4 3 5 6 6 7 6 6 6 5 6 6 7
24 25 24 24 23 19 17 16 16 14 11 9 10 10 12 11 10 9 7 6 5 5 7 7 7 9 7 7 9 8 7 7 7 7 7 7 9 10 10 10 10 9 9
25 25 24 24 24 22 20 19 17 16 14 12 12 12 13 14 12 11 11 9 7 6 6 6 3 4 4 3 6 6 6 7 9 10 10 10 10 11 12 14 15 15 15
27 29 27 28 26 24 22 21 20 19 18 16 15 15 14 14 14 14 13 12 13 10 8 6 4 6 7 7 7 6 7 7 8 10 12 14 16 16 15 14 15 16 19
32 30 31 29 31 28 26 25 23 21 21 20 19 18 16 16 16 15 14 14 14 13 10 9 9 9 11 12 13 11 11 13 12 12 14 19 19 18 18 17 17 18 18
35 34 32 34 34 32 30 29 27 26 24 24 22 21 20 21 20 18 16 15 15 15 13 13 10 13 12 12 12 13 14 14 15 17 20 20 15 16 16 17 18 20 21
38 36 35 36 36 36 35 33 31 29 28 27 24 22 22 23 23 22 19 17 15 15 15 16 13 14 15 15 15 15 14 16 19 20 20 17 15 16 18 20 21 21 22
41 39 38 36 38 38 39 37 34 33 32 30 28 28 27 23 23 24 23 20 16 16 16 17 15 14 15 13 15 15 14 16 18 18 18 16 17 17 17 17 20 21 21
43 41 40 39 39 40 41 42 40 38 37 33 31 32 30 25 24 24 25 24 21 18 17 15 14 13 13 13 15 14 18 14 16 19 21 18 14 14 15 18 21 19 19
45 43 44 43 41 44 44 43 42 41 40 36 35 34 32 29 27 26 27 27 25 23 20 17 15 15 16 17 16 17 15 16 18 20 19 13 16 17 17 17 19 19 20
45 46 46 45 45 45 47 45 44 41 41 39 38 36 33 31 29 29 26 27 26 25 23 21 21 20 16 16 17 18 18 19 17 16 22 16 15 18 17 16 19 18 19
47 48 47 48 46 46 48 48 47 44 44 41 40 38 34 32 29 31 29 28 28 26 24 22 22 19 18 18 17 18 19 21 22 21 19 16 15 15 13 14 20 21 21
48 49 49 48 50 49 48 48 46 46 47 46 42 43 36 33 29 29 30 27 27 24 21 20 21 19 18 18 17 18 17 16 14 14 15 12 11 12 15 17 14 16 18
46 50 51 49 50 49 49 48 46 46 48 49 46 43 36 35 26 25 31 29 28 23 22 19 18 16 17 17 18 15 14 12 13 11 10 9 12 14 13 13 11 15 14

GFSMA_850_spd_024.txt.gz
Wind_Speed
3 2 2 2 4 2 1 1 2 3 5 3 3 5 6 4 2 1 2 1 2 3 2 2 5 5 4 5 4 3 4 5 4 3 3 3 2 3 3 3 4 4 4
5 3 1 1 2 2 4 3 2 5 6 5 3 5 6 5 4 5 3 1 3 4 3 2 4 6 5 5 5 4 4 4 4 5 5 5 5 5 4 5 4 5 6
6 6 3 2 3 8 5 3 2 3 4 2 3 3 4 6 4 6 5 3 2 6 5 3 3 5 3 4 5 5 5 5 4 5 6 6 6 7 6 6 6 6 6
9 6 6 3 4 4 2 2 2 3 3 2 1 2 4 5 5 4 4 3 5 2 5 7 4 3 3 3 4 6 6 6 6 6 6 6 7 6 7 8 8 8 8
10 8 7 3 2 4 3 2 1 4 3 2 1 2 4 5 6 5 5 4 3 4 2 4 7 6 3 2 4 5 7 8 8 8 8 8 8 8 7 7 8 8 8
12 10 8 7 3 4 2 1 1 2 2 2 5 7 5 5 7 7 7 6 4 3 2 1 1 1 1 2 3 3 4 7 9 9 8 10 10 10 10 11 11 10 11
13 12 10 8 5 5 1 0 2 2 3 4 6 6 4 4 5 6 5 5 5 3 3 3 2 2 1 1 2 3 4 5 6 8 8 9 9 10 10 11 11 11 12
15 15 12 11 7 7 3 2 3 2 1 4 4 4 6 4 3 4 4 4 6 5 4 4 3 5 4 2 2 2 3 3 4 6 7 8 8 7 7 8 8 8 8
17 15 13 11 11 6 6 2 2 4 1 3 7 2 3 1 5 4 4 3 4 3 3 5 5 3 4 3 3 2 1 1 2 2 4 5 6 7 8 8 7 7 8
18 16 14 12 11 7 9 4 3 5 4 3 5 6 5 3 3 5 5 6 4 3 3 2 1 3 4 2 3 2 3 4 4 3 2 1 2 3 4 5 6 6 6
21 16 16 15 12 10 10 8 5 3 5 5 6 6 6 5 6 3 5 5 7 8 6 5 4 3 2 3 1 2 4 4 4 6 5 4 4 4 4 4 4 5 5
18 22 19 18 14 13 12 9 8 6 6 7 7 9 7 5 4 5 5 4 6 7 8 7 6 5 6 5 4 6 2 1 1 1 2 2 3 4 5 6 6 6 6
19 21 23 23 20 18 15 13 12 10 9 9 9 9 9 8 7 6 5 3 4 6 7 8 8 9 8 8 8 8 6 6 6 6 6 6 7 8 8 8 8 8 8
19 19 21 22 22 21 19 18 14 13 13 12 11 11 10 10 9 8 7 6 5 6 7 6 6 7 9 9 11 12 11 11 9 7 6 6 7 9 11 13 13 12 12
19 20 20 21 22 23 22 20 17 18 18 16 15 14 13 11 11 10 10 8 8 6 7 8 7 8 8 7 9 10 10 11 10 10 10 10 10 12 14 16 16 16 16
29 22 23 22 23 24 25 24 21 22 22 21 19 19 17 15 14 12 11 10 9 9 7 8 8 8 9 8 8 8 7 10 9 10 10 11 13 16 18 19 19 18 18
36 32 30 26 26 26 27 27 26 23 26 25 24 23 22 19 14 13 12 12 11 11 10 8 9 10 12 10 10 10 10 9 10 13 12 13 16 18 16 16 17 18 20
39 37 35 31 31 29 30 31 31 27 30 29 29 27 24 20 21 20 16 15 14 14 11 12 10 11 11 11 12 12 10 11 12 14 17 17 17 16 13 13 15 17 19
40 39 39 38 35 35 34 35 34 34 32 31 30 29 25 24 24 20 19 16 14 14 15 12 11 10 11 11 11 12 13 11 12 15 17 16 16 17 16 16 17 19 20
43 43 42 40 40 37 36 37 38 38 36 34 33 31 27 28 24 23 24 21 18 17 15 14 13 11 12 11 11 12 13 12 12 13 14 15 19 22 19 18 18 19 21
47 45 44 43 41 40 36 41 42 42 42 39 36 35 33 32 27 24 22 21 23 22 17 16 15 14 13 12 13 12 14 13 14 16 12 13 12 14 16 19 20 20 19
49 47 47 47 46 45 42 43 44 46 47 45 41 38 35 34 31 28 27 26 25 24 22 20 18 16 14 13 13 14 13 13 13 12 13 12 14 17 19 17 21 22 25
47 49 49 50 51 50 48 47 47 48 51 50 47 41 34 31 33 31 30 29 28 26 26 21 21 17 16 15 13 13 13 12 12 13 15 16 15 19 19 17 21 24 21
46 48 50 50 52 53 51 50 47 47 48 46 43 39 36 31 34 31 31 32 31 29 28 31 26 21 20 16 17 14 14 14 13 14 13 13 13 15 15 14 19 24 25
43 47 48 50 52 55 53 52 49 48 48 44 38 36 35 36 37 33 31 29 28 30 26 26 28 26 24 20 17 12 11 10 11 10 10 11 10 12 15 15 13 19 20
41 37 41 49 53 55 55 53 52 50 47 48 43 46 47 43 38 36 31 29 28 27 22 22 27 27 26 21 20 18 13 13 12 12 12 11 10 11 13 12 9 15 15

GFSMA_850_spd_027.txt.gz
Wind_Speed
2 2 2 1 3 3 5 2 2 2 4 1 8 5 3 2 3 1 1 4 2 3 3 5 7 7 7 7 6 6 6 6 4 3 3 3 1 1 2 2 3 3 3
4 3 2 1 2 4 6 4 3 3 4 4 4 4 5 5 1 3 2 5 2 2 2 5 7 7 7 7 7 6 6 5 5 5 4 4 3 3 3 3 3 3 4
5 4 4 2 4 4 4 1 4 7 7 3 4 3 2 6 4 4 2 1 2 6 2 4 6 8 6 7 7 7 6 6 5 5 5 6 5 4 4 4 4 5 5
10 3 1 2 1 2 2 2 3 2 3 1 1 2 3 3 3 5 3 3 5 2 3 3 4 6 5 4 6 6 6 5 5 5 4 4 5 5 5 5 5 5 6
8 8 3 5 2 4 1 1 1 5 2 1 2 3 3 4 3 4 4 2 2 0 3 6 4 2 3 4 4 5 6 7 7 7 7 7 7 7 5 5 6 5 6
12 8 7 6 3 3 1 1 4 0 1 4 6 6 4 4 4 5 5 5 3 2 6 3 3 2 3 3 3 3 4 8 9 9 9 9 9 9 9 9 10 9 9
12 11 7 3 3 5 4 3 2 4 2 5 7 6 3 5 4 4 4 4 3 2 3 3 5 3 1 3 2 2 4 4 4 6 8 8 8 8 8 9 10 10 11
13 13 10 7 7 7 6 5 7 6 2 6 5 6 8 6 4 4 3 3 5 4 2 1 2 1 3 4 6 4 3 2 3 4 5 6 6 6 6 7 7 8 9
14 14 11 10 10 9 6 6 5 6 5 6 9 4 4 8 10 5 3 3 4 2 2 4 4 3 4 4 3 3 2 1 2 3 3 4 5 5 5 5 6 7 8
16 15 14 12 13 8 10 5 5 7 5 5 6 6 5 1 2 7 6 5 3 2 3 1 1 2 3 4 3 3 2 2 3 3 3 3 3 4 4 5 5 6 6
17 16 15 15 13 12 12 11 10 9 7 7 7 6 5 4 4 1 8 9 4 5 3 2 2 2 1 2 4 3 3 4 3 4 4 4 5 5 6 6 6 6 7
16 21 18 18 16 13 13 10 11 10 11 9 8 9 7 6 6 5 4 7 6 8 6 6 6 5 5 3 6 6 5 2 2 3 4 5 6 6 6 7 7 7 8
20 21 21 24 19 18 16 14 14 12 10 11 13 9 9 8 6 5 4 2 3 4 4 8 8 7 7 8 9 12 8 6 5 5 5 5 6 6 7 8 9 9 8
20 19 24 21 22 19 19 18 16 13 13 12 13 13 10 8 7 6 4 4 4 6 6 8 5 8 8 8 10 12 10 8 7 8 7 6 7 8 10 12 13 13 13
20 22 22 21 23 24 22 21 18 20 17 16 13 14 15 9 8 8 7 6 6 7 8 9 6 10 7 8 10 10 10 10 10 9 9 8 9 10 13 16 17 17 16
26 21 26 24 23 25 26 25 21 21 21 18 16 17 16 11 12 10 9 8 8 7 8 2 4 7 8 7 11 9 8 13 13 10 9 9 10 12 14 16 17 18 19
33 32 26 28 27 26 27 28 26 22 25 24 21 21 22 17 14 13 11 11 11 9 8 8 7 10 13 13 8 11 11 12 12 15 13 12 14 15 16 15 14 14 15
39 36 34 35 30 28 29 30 30 26 28 27 25 24 24 22 22 20 16 16 13 12 11 12 10 11 14 13 13 14 13 13 14 15 13 18 19 17 16 15 14 14 16
42 42 40 39 38 34 32 33 34 33 32 32 29 27 28 27 26 22 24 17 16 16 14 14 11 11 13 12 14 11 15 15 16 17 19 15 16 19 19 19 17 16 18
44 42 43 42 42 41 39 39 40 39 38 38 38 34 30 30 29 27 25 24 21 17 16 16 13 13 14 14 13 12 17 17 15 13 12 12 21 20 15 16 16 17 14
44 44 45 45 44 44 41 44 42 42 42 42 40 38 31 31 30 27 25 24 22 25 19 17 15 15 14 16 17 15 13 13 13 10 14 16 15 18 18 20 16 13 17
47 46 47 48 49 48 46 43 43 44 44 42 40 36 34 29 32 31 28 26 25 25 23 20 20 18 18 15 14 15 15 14 14 13 12 12 12 15 16 17 14 17 17
48 51 52 51 51 52 51 49 47 46 44 45 41 38 37 32 36 38 34 31 31 30 28 26 26 23 18 16 17 20 15 17 14 11 14 11 12 14 11 17 18 21 25
50 49 51 52 53 55 55 53 52 49 48 43 42 44 43 42 40 39 34 35 36 36 34 32 30 28 30 24 19 18 18 18 17 16 13 13 10 13 11 11 19 22 23
45 48 46 46 52 56 56 54 53 53 53 51 48 46 45 45 46 45 41 37 36 38 36 34 33 32 29 27 23 20 14 12 12 13 14 13 10 10 10 13 16 20 18
43 40 43 47 50 52 53 55 54 55 55 57 54 51 50 49 46 48 44 42 39 38 34 33 32 31 33 31 25 25 17 17 17 15 14 13 12 11 12 14 12 14 16

GFSMA_850_spd_030.txt.gz
Wind_Speed
6 4 4 3 3 4 4 2 2 3 4 12 9 8 2 3 5 3 7 6 1 0 3 6 6 6 5 5 4 5 5 4 3 1 1 1 1 1 1 2 3 3 3
5 7 6 7 1 4 6 3 5 7 5 10 4 4 7 2 0 5 3 9 6 3 2 3 6 6 5 5 5 4 4 4 3 2 1 1 1 2 2 3 3 3 4
2 5 4 2 5 3 4 1 3 7 8 9 8 3 6 5 7 3 2 5 8 8 6 2 4 6 5 5 5 4 4 4 3 3 4 3 3 3 4 4 4 4 4
7 4 6 2 3 6 1 2 4 5 6 6 5 2 6 5 5 5 4 3 4 6 8 6 2 4 4 4 5 5 4 4 4 4 3 3 4 3 4 4 5 5 5
9 8 6 4 2 2 6 2 1 2 5 4 4 7 5 3 4 3 5 2 3 8 9 8 8 4 2 1 3 4 5 6 6 6 6 5 5 5 6 6 6 5 6
10 9 6 5 3 4 3 2 3 1 2 3 13 10 6 5 7 3 6 5 3 3 6 9 6 5 3 2 0 2 3 5 6 6 6 7 7 8 9 9 9 9 8
14 10 7 7 5 3 4 3 7 6 3 7 7 8 4 9 6 5 9 4 3 8 3 7 2 4 5 3 2 2 2 2 2 4 5 6 6 6 7 8 8 8 8
15 12 12 7 5 7 8 3 8 8 3 9 6 7 7 7 4 7 4 3 6 5 4 2 3 3 1 4 5 5 3 3 2 2 3 3 4 4 5 5 5 6 7
15 13 12 10 11 10 6 4 9 9 6 5 5 4 6 4 10 3 7 8 7 5 3 5 3 4 3 3 5 4 3 2 2 2 2 2 2 3 4 4 5 6 6
19 15 14 13 14 9 9 5 7 10 6 5 7 7 3 3 5 6 4 8 3 4 4 2 1 5 7 4 7 7 5 4 4 5 5 4 5 5 5 5 5 5 6
16 19 19 15 13 13 10 8 8 12 10 8 4 5 5 2 2 4 10 10 6 6 5 5 7 3 2 4 4 3 6 4 4 4 4 5 6 6 6 6 6 7 8
19 18 19 18 15 13 14 12 13 11 12 12 10 8 5 6 6 7 9 12 9 11 7 5 9 6 5 7 7 6 6 5 3 3 3 5 5 5 4 5 6 7 8
25 21 19 23 20 16 16 14 12 12 14 15 17 13 11 8 5 5 5 6 7 8 10 8 10 6 6 8 10 9 10 8 4 2 1 2 3 3 4 7 9 9 10
22 24 22 21 19 19 20 17 17 14 14 15 14 16 14 11 9 9 7 4 5 9 11 6 10 9 8 12 12 11 11 10 6 6 5 4 4 5 7 9 11 13 13
23 24 24 24 22 21 22 23 22 19 15 15 14 15 17 15 11 10 10 9 8 6 13 12 11 12 10 11 12 14 15 14 10 9 8 7 7 8 10 12 14 15 14
29 21 27 27 24 22 25 23 25 23 21 22 19 18 18 18 16 14 13 11 11 10 7 5 7 10 12 9 13 12 12 10 10 11 9 9 9 10 12 14 15 15 14
28 28 21 28 27 24 26 29 29 26 27 27 25 22 21 19 19 17 16 16 14 12 12 8 7 10 12 13 13 12 13 13 15 10 11 11 12 14 16 17 16 14 14
38 34 33 29 32 30 27 29 32 32 30 30 30 30 28 25 22 22 20 18 17 16 15 13 12 11 14 13 12 16 18 14 15 17 15 15 14 15 13 16 17 14 14
42 39 39 40 36 34 31 29 31 32 34 33 34 33 31 31 28 25 27 25 22 20 21 22 19 17 18 16 14 12 12 12 8 20 21 18 17 16 17 14 13 9 10
46 45 44 43 43 42 39 36 34 34 34 36 36 35 35 33 31 28 28 31 28 25 22 24 20 21 17 18 19 17 13 12 12 13 17 15 15 14 16 16 15 12 12
48 47 46 46 46 45 44 42 40 39 38 38 38 38 38 38 36 33 31 31 31 31 27 25 24 22 21 21 24 22 19 12 12 12 16 17 15 17 17 17 19 18 16
48 47 49 48 48 49 48 45 43 43 42 41 41 41 41 41 41 38 35 31 31 33 34 33 28 25 21 22 24 22 17 12 14 14 16 17 21 15 16 16 13 12 11
48 49 49 49 50 51 51 49 45 44 44 44 43 43 43 46 46 45 41 36 33 35 34 31 32 30 28 24 24 22 21 22 22 17 15 19 18 18 17 15 17 16 17
51 51 51 51 51 53 52 51 49 47 48 48 47 46 46 46 47 47 45 43 42 41 39 38 35 31 30 28 28 29 29 26 24 21 19 23 17 13 13 18 18 17 16
48 51 51 50 53 55 54 53 51 50 52 54 54 53 51 49 47 48 48 49 47 43 43 42 38 35 34 34 34 31 29 29 26 20 14 15 16 15 19 14 17 17 16
46 44 47 48 48 50 50 50 49 50 55 59 58 59 57 56 51 48 51 51 52 50 42 43 45 43 40 35 30 32 28 25 20 16 13 17 16 19 18 15 17 16 15

GFSMA_850_spd_033.txt.gz
Wind_Speed
9 5 4 2 5 7 3 3 6 7 11 9 12 14 13 11 6 6 13 7 5 4 2 4 6 7 7 7 6 6 5 5 4 3 3 3 3 2 1 2 2 3 3
7 5 5 3 4 4 5 7 8 4 10 8 14 9 8 7 9 9 11 9 7 5 4 4 5 6 6 5 5 5 6 6 5 3 2 2 1 0 1 1 1 2 2
9 8 5 0 3 7 8 6 7 5 8 12 13 8 5 6 8 11 7 9 9 9 5 5 5 5 5 6 6 5 5 4 3 3 2 2 2 2 2 2 2 3 3
9 9 7 3 4 3 5 2 6 7 7 7 7 5 6 6 6 4 5 9 8 9 8 7 4 5 4 5 6 5 5 5 4 4 3 3 3 3 3 3 3 3 4
12 11 7 5 4 4 6 6 3 5 6 8 8 12 9 6 8 5 6 7 6 7 9 8 7 5 3 3 4 4 5 5 5 5 5 5 4 4 4 4 5 5 6
12 14 9 7 3 7 8 5 5 5 6 7 7 12 6 8 9 6 3 6 6 5 10 7 7 4 2 2 2 2 3 4 7 7 7 7 6 6 6 6 6 7 7
10 13 13 8 6 8 4 2 8 9 15 16 10 6 8 8 4 6 11 7 7 6 5 6 6 4 4 3 3 1 1 3 3 3 5 4 5 5 5 4 4 5 5
14 13 13 9 7 7 6 5 10 10 10 13 10 10 12 12 7 11 7 6 5 6 3 4 1 2 2 3 7 3 3 2 2 2 2 2 2 2 3 2 2 3 5
17 13 13 11 11 9 6 5 11 11 9 12 6 7 8 4 11 6 4 8 7 1 2 3 2 1 2 4 8 6 3 2 0 1 1 0 0 0 1 1 1 3 4
18 16 14 12 14 12 10 6 11 11 11 8 9 7 7 6 8 7 7 8 6 6 4 3 2 2 3 3 5 8 6 4 4 4 4 3 4 3 4 4 4 4 3
18 16 15 13 13 14 10 10 10 14 12 10 6 13 8 7 10 7 11 13 10 7 7 4 5 4 3 2 1 4 7 6 4 4 4 3 4 4 4 5 5 5 5
20 16 18 17 13 14 15 13 10 14 14 12 11 9 7 12 10 8 8 13 10 12 10 8 7 6 7 4 3 4 6 8 5 3 4 4 4 4 4 4 5 6 7
25 21 18 20 18 14 16 15 13 14 16 18 15 13 11 9 6 8 4 6 10 11 15 11 11 9 8 7 7 6 7 7 6 2 1 2 2 3 3 5 7 7 7
25 20 21 18 18 17 17 18 17 13 15 20 20 20 18 15 10 9 11 7 8 10 17 10 11 13 11 8 9 9 10 9 9 4 3 3 4 5 6 8 9 11 11
25 21 18 19 18 16 17 20 19 18 18 17 19 21 20 20 18 12 10 13 8 5 15 17 12 13 14 12 11 11 10 10 10 7 6 5 6 7 9 11 13 15 15
29 23 23 22 23 21 19 19 23 22 21 19 18 17 20 19 18 15 13 12 14 13 11 7 17 15 18 16 14 12 13 10 7 8 8 7 8 9 10 13 16 17 16
30 32 26 25 29 26 24 21 24 27 27 24 23 21 19 20 21 19 18 18 16 15 16 13 10 17 18 18 14 14 15 14 12 9 6 10 11 11 12 13 13 15 16
37 32 35 33 24 29 28 25 23 27 29 29 28 27 25 21 23 25 24 24 22 20 18 16 18 17 23 17 14 13 13 15 17 14 14 13 13 13 13 12 12 11 10
42 40 34 34 37 30 30 29 25 26 28 30 31 31 30 28 28 28 30 29 27 23 23 21 21 20 19 19 19 17 16 13 11 12 17 19 19 15 15 12 11 13 14
44 42 42 41 36 38 36 34 32 29 28 29 33 36 35 35 34 31 31 33 32 30 29 28 27 27 27 24 22 22 20 18 13 15 17 17 18 17 17 12 11 12 16
46 46 45 44 45 45 43 43 41 38 35 33 33 36 40 40 40 37 35 34 36 38 36 35 34 32 31 33 30 28 27 23 20 17 17 18 16 17 15 15 14 14 19
42 43 45 46 47 48 48 47 45 44 42 40 39 38 40 42 43 42 40 37 35 38 43 42 40 38 34 30 31 31 30 29 28 22 21 21 20 20 18 19 17 15 16
44 44 45 46 48 48 48 49 47 46 46 45 43 42 42 43 43 44 45 44 40 37 40 42 46 43 38 33 30 33 33 31 32 25 22 19 22 23 21 21 21 20 17
44 44 45 45 46 47 46 46 46 46 49 49 49 47 46 44 44 44 44 46 46 45 43 41 45 45 43 36 32 30 31 30 30 28 25 23 21 23 19 19 20 19 19
42 44 45 46 48 48 47 45 43 45 48 52 52 52 52 51 50 46 45 46 46 49 45 44 43 43 43 41 38 33 36 34 33 34 30 23 25 22 22 21 22 21 18
45 43 44 44 45 46 45 44 42 43 47 49 51 54 56 57 54 52 50 50 52 52 48 46 47 47 46 45 46 44 39 40 41 37 33 26 25 22 23 25 25 22 17

GFSMA_850_spd_036.txt.gz
Wind_Speed
10 11 7 9 7 8 6 2 6 9 12 14 15 15 13 10 10 6 9 6 6 5 5 5 6 6 6 6 7 6 6 5 4 3 3 2 2 1 2 2 2 2 3
8 7 7 7 6 6 7 5 7 11 8 12 14 11 11 8 9 9 12 10 6 3 4 5 6 6 6 6 5 5 5 5 3 2 1 1 1 1 1 2 2 3 4
7 8 5 4 6 9 9 8 7 10 10 13 10 8 9 9 10 10 8 9 9 7 4 4 5 5 5 4 4 4 4 4 4 3 3 3 3 3 3 3 2 3 4
7 6 5 3 5 6 5 5 8 5 9 12 9 10 5 8 7 8 8 9 10 9 7 3 2 4 3 4 4 4 4 4 4 4 3 3 3 4 4 4 4 4 5
8 10 9 5 3 4 4 6 5 5 6 10 9 10 5 5 5 4 6 7 8 8 9 5 4 3 1 2 3 5 5 6 6 6 5 6 5 5 5 5 5 6 7
10 12 10 8 6 6 8 6 4 5 8 11 13 13 7 6 5 5 6 6 8 7 9 7 5 3 1 1 1 3 4 6 7 8 8 8 8 7 7 7 7 7 7
7 14 10 8 7 8 7 7 7 10 8 14 14 11 9 6 8 5 7 6 7 4 4 4 5 3 4 2 2 1 2 3 4 5 6 6 7 6 6 6 6 6 7
12 10 13 9 9 11 8 7 11 15 15 16 10 11 12 5 7 9 9 7 6 3 4 4 3 3 3 5 4 2 3 3 3 3 3 3 3 4 4 4 4 5 5
15 12 13 13 11 10 7 8 12 13 15 13 11 11 8 4 12 9 8 6 5 2 2 5 5 7 3 5 8 7 4 2 1 2 1 0 1 1 0 1 1 1 2
17 14 11 16 15 13 10 7 12 13 15 15 11 9 11 10 12 7 8 7 5 4 3 2 0 5 7 4 5 9 9 6 4 3 3 3 3 3 3 2 2 3 3
19 16 13 17 15 14 11 12 14 17 14 14 14 12 10 8 14 5 9 12 13 9 7 7 3 2 2 3 3 6 8 8 4 2 3 3 4 4 4 4 4 5 5
21 18 15 18 16 14 15 15 14 16 17 15 14 12 14 11 11 9 6 8 12 10 11 9 9 6 5 2 1 1 4 7 5 3 4 5 4 3 3 3 4 5 6
25 23 20 17 19 16 15 16 16 15 19 17 15 13 11 11 11 9 7 7 11 13 12 14 13 11 9 6 4 4 4 4 5 1 1 1 1 1 2 4 6 8 9
25 21 21 19 16 18 17 16 18 18 17 17 18 15 13 13 12 10 11 9 10 12 16 14 14 15 13 11 7 8 7 7 6 4 6 6 5 4 5 6 8 9 11
27 23 23 22 19 16 18 17 18 20 17 17 19 19 18 18 17 14 13 15 15 13 14 15 17 13 13 14 12 11 8 8 9 8 8 9 8 7 7 7 9 12 14
29 27 24 23 19 18 17 18 18 19 20 19 19 20 23 22 22 20 18 15 20 18 17 12 15 20 17 16 16 14 12 12 13 11 11 11 10 10 8 9 11 10 12
31 30 26 22 22 22 21 23 21 19 23 23 22 22 22 23 24 24 22 20 19 20 21 19 18 17 18 19 19 19 15 16 17 16 13 13 13 12 11 11 8 10 9
34 30 30 30 25 25 27 26 26 23 24 26 27 26 25 24 26 27 27 25 24 23 23 22 20 21 22 21 21 21 19 16 15 15 16 17 15 16 17 15 11 11 9
37 36 32 34 36 34 27 28 30 27 24 26 28 31 31 29 30 29 31 31 30 28 27 28 26 23 25 23 25 26 24 22 16 13 16 20 20 19 19 18 14 13 13
39 40 41 39 36 36 36 34 30 29 28 26 27 30 32 33 34 33 32 33 34 33 33 33 32 30 29 27 27 30 29 28 24 20 19 19 20 21 21 22 18 17 16
40 41 42 45 43 42 39 36 35 35 33 31 30 31 32 33 33 33 34 34 34 36 39 38 39 37 36 34 36 34 34 30 28 25 24 24 23 23 21 21 22 20 19
39 39 42 43 45 46 46 45 43 40 39 39 38 37 37 37 37 37 37 36 36 36 39 42 44 45 44 42 39 40 39 37 38 32 32 32 27 25 24 24 23 22 21
36 38 40 41 44 46 46 46 45 45 45 45 44 42 42 42 41 42 41 41 41 40 39 40 44 48 49 48 45 44 44 43 42 38 35 37 32 30 24 25 25 25 25
36 36 38 40 41 42 41 41 42 43 45 46 46 46 45 44 43 42 41 44 44 45 44 43 45 47 50 47 47 45 44 43 41 40 40 43 39 35 25 25 23 27 26
32 33 33 35 38 39 37 36 36 38 42 44 45 46 46 47 46 44 44 45 46 49 47 46 46 46 46 47 48 46 49 46 50 51 45 46 45 39 31 28 25 29 26
35 35 36 36 36 35 34 33 32 33 37 40 41 45 48 50 49 48 47 46 51 56 51 51 51 50 50 51 51 52 51 54 54 48 52 46 48 42 36 33 30 31 29

GFSMA_850_spd_039.txt.gz
Wind_Speed
10 9 8 9 6 7 4 6 7 10 12 10 11 11 12 9 7 6 6 5 5 5 5 5 5 5 5 5 5 5 5 4 3 2 1 1 1 2 3 4 5 5 6
7 6 9 8 7 6 5 6 9 11 11 12 15 10 8 10 9 9 9 8 5 3 4 4 4 4 4 4 4 4 4 3 2 2 2 2 3 3 4 4 4 5 5
5 6 7 6 8 9 9 10 7 9 9 10 10 9 10 10 8 7 8 7 8 5 3 3 3 3 4 3 3 3 3 4 3 3 4 4 4 5 5 5 5 5 6
4 6 6 6 8 7 7 8 9 8 11 6 7 7 10 7 9 7 8 9 9 8 7 4 3 4 4 4 4 3 3 3 4 4 4 5 5 5 5 6 7 7 7
5 6 6 5 7 6 7 8 4 6 9 6 5 5 6 5 7 6 6 7 8 9 8 4 3 2 1 2 3 5 5 5 5 6 6 6 7 6 7 8 8 9 9
4 7 7 5 4 5 5 4 5 6 10 10 10 6 4 6 4 4 3 4 6 6 7 6 4 2 2 3 2 3 4 5 6 8 8 8 8 8 8 9 9 9 10
5 7 9 7 5 5 7 4 6 7 8 11 11 8 6 8 4 3 3 2 3 4 4 3 3 3 3 4 4 3 3 3 4 6 6 6 7 7 8 7 7 7 7
10 6 7 9 7 7 6 6 8 9 9 11 14 10 5 3 8 5 6 6 4 2 4 5 4 3 4 4 4 2 3 4 4 4 4 4 5 5 5 4 5 5 6
14 10 9 10 10 9 8 6 9 12 14 13 9 9 6 2 7 6 7 7 8 3 2 3 6 6 4 6 9 7 5 2 2 2 3 3 3 3 2 2 2 3 4
15 14 12 11 12 10 9 6 12 12 15 13 12 9 10 5 7 5 8 8 7 4 3 2 1 2 5 4 6 8 8 5 2 1 1 1 2 1 1 1 2 3 4
18 16 15 11 14 14 11 9 10 15 14 16 11 8 12 8 11 5 5 8 9 9 6 4 3 3 1 2 3 4 6 5 3 1 1 2 3 3 3 2 3 3 5
24 20 16 14 14 15 14 12 11 15 13 15 14 13 12 10 10 13 8 6 7 7 7 9 8 6 5 2 2 1 2 4 3 1 1 2 3 2 1 2 3 5 6
24 22 18 17 15 16 13 13 14 13 16 16 14 15 16 15 14 12 10 8 9 11 12 10 10 10 9 7 5 5 4 4 4 3 4 4 4 3 2 2 4 5 7
25 20 18 17 16 16 16 14 15 15 14 19 18 16 14 15 14 14 11 12 11 11 13 14 10 9 9 10 9 9 8 7 7 8 8 8 8 8 7 6 6 7 8
24 22 19 18 18 17 16 17 16 17 17 18 19 19 17 16 16 16 14 14 14 16 17 13 14 10 9 10 10 12 10 9 9 9 11 11 12 12 11 10 9 11 11
28 24 22 21 20 20 19 18 19 17 19 19 20 21 22 20 20 20 18 17 17 18 21 18 13 12 13 15 13 15 15 13 13 14 13 14 15 14 13 12 11 12 13
30 28 27 24 23 21 19 21 20 19 20 21 21 23 23 22 25 25 25 24 22 22 23 20 20 19 18 17 17 18 17 19 18 17 18 17 18 19 16 13 12 13 13
31 31 28 27 24 22 21 22 22 22 22 21 23 25 26 24 25 26 27 28 27 25 26 27 23 22 23 22 22 22 21 22 21 19 19 20 21 20 20 19 18 17 16
34 33 33 31 30 28 25 25 26 26 26 26 24 25 27 28 28 28 28 30 31 31 31 33 31 28 27 27 28 28 28 28 28 24 21 21 23 24 26 23 21 20 19
35 37 35 36 33 30 32 31 28 25 27 29 29 27 26 28 30 32 33 33 32 33 35 38 38 37 34 32 34 34 34 33 33 30 28 27 25 25 28 27 26 25 23
35 37 38 38 39 38 34 32 33 33 34 31 30 30 29 28 28 29 31 33 35 37 38 39 42 43 43 41 42 40 39 38 37 35 34 33 33 31 30 30 28 26 26
34 35 39 40 42 42 43 41 38 36 35 34 35 35 34 34 34 33 33 34 35 37 39 41 43 46 46 46 45 46 46 44 46 42 41 42 38 39 35 33 31 27 25
33 35 36 38 41 43 43 42 42 43 43 43 42 42 41 40 39 39 38 39 41 43 43 43 46 47 48 46 46 47 48 50 53 49 46 49 45 44 41 36 33 30 29
36 35 34 35 37 39 38 38 40 42 43 44 45 44 44 43 42 40 39 40 41 43 43 43 47 51 50 48 49 48 48 49 51 52 50 56 50 48 40 40 37 34 32
33 33 33 32 34 34 33 32 32 35 38 40 40 41 42 42 40 39 39 40 41 43 39 39 40 42 44 48 47 51 54 52 57 57 53 54 48 48 46 46 42 40 36
27 28 28 28 26 27 26 23 25 28 33 35 36 37 39 39 38 36 36 37 41 40 38 40 39 38 35 37 40 46 55 52 54 48 52 51 53 50 53 56 47 43 39

GFSMA_850_spd_042.txt.gz
Wind_Speed
9 8 7 6 8 7 3 5 8 8 8 5 9 10 8 8 8 6 5 6 5 4 4 4 4 3 3 3 3 4 4 2 1 2 2 2 3 3 5 6 6 7 7
7 5 7 5 4 5 3 5 11 11 9 13 10 8 8 8 7 8 9 7 5 4 3 3 3 3 2 2 3 2 2 1 1 1 3 4 4 4 5 6 7 7 8
6 6 7 5 5 6 7 7 8 9 9 10 9 9 9 8 6 7 8 8 6 3 2 3 2 2 2 2 0 0 2 3 3 4 4 4 5 5 6 6 6 7 8
7 7 6 7 7 8 9 6 6 7 7 5 7 10 9 8 7 8 8 8 9 7 5 2 2 2 2 2 2 2 3 3 3 4 4 5 5 5 5 6 6 7 8
6 6 5 5 7 6 8 7 5 6 7 3 5 6 6 7 8 7 7 7 8 8 6 3 2 1 0 2 3 4 4 5 5 5 5 6 6 8 7 7 8 9 9
4 5 5 4 4 6 8 5 4 5 7 5 5 4 6 6 6 4 4 5 5 6 5 5 4 2 1 1 1 3 4 5 6 7 7 8 7 7 7 8 8 8 8
5 3 4 4 3 5 6 5 3 4 7 8 5 4 4 6 3 3 2 1 2 5 3 4 3 2 2 2 3 3 3 4 5 6 5 5 5 6 6 6 7 7 7
6 3 3 4 3 2 4 3 5 7 7 9 9 6 4 4 6 4 4 4 2 2 3 5 4 3 2 3 3 3 3 4 5 5 5 5 4 5 5 4 5 5 6
9 7 5 5 6 4 6 3 5 6 7 11 11 6 4 2 2 5 5 4 4 2 1 2 5 3 3 4 5 5 4 3 3 3 3 4 4 3 3 3 3 5 6
11 10 8 6 6 6 6 4 7 8 8 10 8 6 7 2 4 3 7 5 5 2 2 1 0 2 2 2 3 6 7 5 4 3 2 2 2 2 2 3 4 5 6
15 11 10 10 6 8 7 7 5 11 12 13 11 10 10 10 8 5 4 3 3 4 4 2 3 3 1 2 2 3 5 6 5 3 3 2 2 2 2 3 4 4 5
22 17 13 12 10 10 10 9 8 9 14 14 15 13 10 9 8 10 7 7 5 5 5 6 6 5 5 3 3 3 3 4 5 3 2 2 1 1 2 3 4 5 6
29 25 20 16 13 10 10 10 11 11 14 14 14 14 14 13 12 9 10 9 8 8 8 7 6 6 6 6 5 4 4 5 5 5 5 4 4 5 6 6 6 7 7
26 20 19 17 14 12 11 11 12 13 14 16 17 16 13 12 13 13 12 11 12 13 12 11 8 7 6 6 6 7 6 6 7 8 9 9 10 9 9 9 8 9 10
25 23 18 16 16 14 13 13 14 15 16 15 15 17 16 14 13 12 12 12 13 15 18 12 11 9 9 10 8 10 10 9 10 11 11 12 14 14 14 13 12 12 12
24 23 21 19 18 17 16 16 16 16 17 17 16 17 18 17 16 15 15 15 16 17 21 17 15 15 14 13 13 15 15 14 15 15 16 16 17 17 17 17 16 15 13
24 25 24 21 20 19 18 19 20 18 19 18 19 19 19 18 19 20 20 21 22 22 25 24 21 18 18 17 18 18 18 19 20 20 20 20 21 21 21 21 19 17 16
26 26 26 25 25 22 21 20 20 19 19 19 18 20 21 20 21 21 22 24 25 26 28 30 27 25 24 23 23 23 22 23 25 24 24 24 24 24 24 24 23 21 21
28 28 28 29 27 26 24 22 22 22 21 22 21 21 20 21 24 25 25 26 26 27 29 33 35 33 33 30 30 32 30 30 30 29 29 29 29 28 27 28 28 26 25
29 30 31 30 30 28 28 26 25 24 24 25 25 25 24 24 24 24 27 29 30 31 32 34 37 39 39 37 37 39 40 38 38 35 35 35 33 33 32 30 30 31 30
32 31 32 34 32 32 33 30 30 29 28 28 27 26 26 25 24 24 25 26 28 30 32 36 40 43 43 43 42 42 45 43 45 43 42 42 39 39 38 36 34 30 32
33 33 34 34 36 36 34 34 33 32 32 32 33 32 31 30 30 29 30 31 32 34 34 36 41 43 44 44 43 43 44 44 50 41 39 45 41 45 45 40 38 36 30
33 34 34 34 36 37 37 36 36 38 39 38 38 37 36 35 34 34 35 36 37 38 39 40 44 47 47 46 45 47 46 47 49 47 44 48 44 46 45 44 40 42 38
35 35 34 34 35 37 36 37 38 39 41 42 42 42 42 42 41 40 39 40 40 39 38 37 41 45 44 42 41 42 42 44 48 46 47 52 50 53 49 48 45 43 44
35 35 33 32 33 33 32 31 32 36 40 41 41 41 41 41 39 37 38 38 38 39 37 34 34 33 32 32 30 35 44 46 52 50 49 52 54 55 55 56 51 47 44
32 32 33 31 30 28 26 24 26 29 34 35 35 36 36 35 33 31 32 32 34 30 27 28 28 28 27 27 26 29 33 40 46 51 47 44 50 49 46 55 54 53 47

GFSMA_850_spd_045.txt.gz
Wind_Speed
8 7 6 5 5 5 3 2 5 5 5 6 7 8 8 9 9 6 4 4 4 4 3 3 3 2 3 3 3 2 2 2 3 4 4 4 5 6 7 7 7 8 9
7 5 5 5 3 3 3 3 7 8 11 11 6 8 8 9 9 9 5 4 3 3 3 2 2 2 2 2 1 1 1 1 2 3 4 5 5 4 6 7 7 7 8
5 4 3 2 3 4 5 9 9 7 10 8 8 9 8 7 7 7 7 7 4 2 2 2 1 1 1 1 1 1 1 2 3 4 4 3 4 5 6 7 7 8 8
7 5 4 4 5 7 7 7 6 7 7 6 10 9 7 6 6 7 7 7 7 4 2 1 2 1 1 2 2 2 3 3 4 4 5 5 5 6 6 6 7 8 8
7 6 5 5 5 6 5 6 5 6 5 7 8 6 5 6 6 7 6 6 6 6 5 3 2 1 2 1 2 3 5 5 6 6 6 7 6 6 7 8 9 8 8
6 6 5 5 5 5 9 5 4 7 6 4 5 6 5 5 3 4 5 4 5 6 6 5 4 2 1 1 2 3 4 6 6 7 7 6 6 6 7 8 7 7 7
5 7 7 5 5 5 8 5 4 5 7 6 5 4 6 4 2 1 0 1 3 5 5 4 2 1 2 3 4 4 4 6 6 6 6 6 5 5 6 6 6 6 7
6 5 6 5 4 4 7 6 5 5 6 7 6 5 4 4 6 4 2 2 1 2 3 5 4 3 3 4 4 4 3 5 6 6 5 4 4 4 4 4 4 5 6
9 6 4 5 5 4 5 3 4 6 6 10 8 4 2 1 1 2 3 3 3 3 2 2 5 2 2 3 5 6 5 4 4 4 3 3 2 2 3 3 3 4 5
10 8 7 6 5 5 5 3 5 6 6 9 7 7 6 1 1 1 3 4 3 2 3 2 2 2 1 1 2 4 6 5 4 3 3 2 3 3 3 3 3 4 5
12 9 9 8 6 4 5 5 4 8 8 9 7 6 5 7 7 3 2 3 2 2 4 4 4 3 2 2 2 2 3 4 3 2 1 2 2 2 2 2 2 3 4
18 16 12 10 8 6 8 8 7 6 10 11 11 10 7 3 4 5 4 6 4 4 4 5 5 6 6 4 3 4 4 3 2 2 1 1 1 1 1 2 3 3 4
24 22 18 14 11 9 8 10 9 8 8 11 10 11 11 10 10 9 8 6 6 8 6 6 6 6 7 7 7 6 6 7 7 6 5 6 6 6 6 6 6 6 6
25 25 22 20 17 13 11 11 10 10 10 9 12 11 11 11 10 9 10 8 7 8 10 7 6 6 7 7 8 9 10 9 10 10 10 10 10 11 12 11 11 10 10
20 20 21 18 18 16 14 12 13 11 11 12 12 12 13 12 11 11 10 10 8 8 10 6 4 5 7 8 10 12 13 12 14 14 14 14 14 14 16 16 16 15 14
19 19 21 21 19 18 16 15 15 13 14 13 13 13 13 13 13 14 13 13 13 13 12 11 13 14 12 12 12 14 15 17 18 19 19 19 18 19 19 19 19 19 17
22 21 22 24 22 21 20 19 18 17 16 15 15 15 15 14 15 15 16 17 18 19 22 19 21 20 19 17 18 19 19 20 21 21 23 24 24 24 23 23 23 23 22
26 24 23 26 24 24 23 22 20 19 19 18 16 17 16 16 16 17 18 19 20 22 24 29 27 28 28 25 25 27 27 27 28 27 24 26 29 29 29 28 27 27 26
29 26 26 27 28 27 25 24 23 22 21 19 18 19 17 17 18 18 20 22 23 24 26 30 32 31 34 34 34 34 34 34 35 34 34 32 32 32 34 34 33 31 30
31 29 28 28 29 29 28 27 26 25 24 23 22 22 22 22 22 21 22 23 24 27 28 32 35 33 33 34 37 36 36 35 36 35 37 37 36 36 36 37 39 38 36
32 31 29 30 30 29 30 29 29 28 27 27 26 25 24 24 23 23 24 25 25 27 27 26 27 27 28 25 30 31 32 36 39 37 40 37 35 35 36 35 40 42 43
33 33 34 32 32 33 32 31 30 30 30 31 30 28 27 27 27 27 28 27 28 31 33 34 32 32 40 37 32 32 33 34 37 25 32 35 34 41 41 41 42 39 41
34 36 35 34 36 35 34 33 32 33 35 35 34 33 32 32 31 31 31 32 33 33 36 38 43 44 46 41 41 42 36 35 39 30 34 50 38 46 47 44 45 44 42
36 36 36 36 36 37 36 34 34 36 38 39 38 38 38 38 38 38 37 38 40 41 41 41 42 43 42 37 31 32 36 38 43 42 35 43 37 38 39 40 45 44 44
36 36 35 36 36 36 35 33 33 35 39 41 41 41 41 41 40 39 38 40 40 40 38 37 35 32 29 26 26 30 31 34 42 46 30 32 41 40 41 41 40 46 44
33 34 35 35 35 34 33 30 30 33 37 38 38 39 39 38 35 33 33 33 36 35 29 26 29 30 26 25 23 25 29 35 38 43 33 34 42 45 47 42 39 37 43

GFSMA_850_spd_048.txt.gz
Wind_Speed
7 7 6 6 5 3 3 4 4 5 5 7 7 6 5 7 7 6 1 4 5 5 4 5 4 3 3 4 3 3 3 3 4 4 5 5 5 6 7 8 7 8 8
8 5 5 7 6 3 3 6 6 7 7 5 7 6 6 7 7 7 4 3 4 3 3 4 3 2 3 2 1 1 1 2 3 4 4 5 6 6 6 6 6 7 8
5 6 4 3 6 5 5 8 7 8 6 5 6 7 5 6 6 7 7 4 6 5 2 2 2 2 2 2 1 1 2 2 2 4 4 3 4 5 6 7 7 8 8
5 4 3 4 6 7 7 7 7 5 7 7 9 8 5 4 6 6 5 5 4 3 7 2 0 0 0 1 2 1 2 3 4 4 5 5 5 6 6 7 8 8 8
6 6 4 5 8 8 7 6 7 6 7 7 7 5 4 5 6 4 4 5 3 3 1 4 2 1 0 1 2 3 4 4 5 6 6 7 7 6 6 7 7 7 7
7 5 3 5 6 5 9 6 7 7 6 6 5 5 6 4 3 3 3 4 3 4 2 1 3 4 3 2 3 4 4 5 4 5 5 5 5 5 5 5 5 6 6
6 6 4 4 5 5 6 6 6 7 7 7 5 5 4 2 1 1 2 2 2 3 2 2 2 2 7 4 4 4 5 5 5 5 5 5 4 3 3 4 4 5 5
5 5 8 5 6 6 7 7 8 7 7 7 3 4 6 3 1 1 1 1 1 0 1 2 0 1 2 0 3 3 3 4 4 4 3 3 3 2 2 2 3 4 4
8 6 5 6 5 5 6 6 6 9 6 7 7 2 1 1 3 1 2 1 3 2 2 2 1 2 2 1 3 4 5 4 3 2 1 0 0 1 2 2 3 3 4
10 8 7 5 4 7 7 5 5 7 8 6 4 3 2 2 3 5 2 2 3 3 4 2 3 3 3 1 5 2 4 4 3 2 1 1 2 2 2 1 1 2 3
10 9 7 6 5 4 5 7 6 7 7 7 5 4 2 1 2 3 4 3 2 3 3 4 4 4 5 4 5 6 4 4 4 2 1 1 1 2 3 2 2 2 2
13 13 10 7 6 5 6 5 6 8 8 8 7 6 3 1 1 1 1 1 2 2 2 4 5 6 6 6 6 7 6 5 5 4 4 4 4 5 6 6 5 6 6
14 14 15 12 9 7 7 8 6 8 8 8 9 7 7 5 5 4 3 3 2 3 3 5 6 7 6 8 8 11 8 8 8 8 8 8 9 10 11 10 10 10 10
16 15 15 15 14 12 10 9 8 7 8 7 9 9 7 7 7 5 5 4 4 3 4 4 5 6 8 9 10 12 13 11 12 12 12 12 13 13 14 15 15 15 15
16 16 17 17 16 16 15 12 10 9 10 8 9 9 9 8 8 6 6 6 5 5 4 5 3 6 6 8 10 12 15 16 15 17 18 18 17 17 17 17 18 19 19
21 18 16 17 17 17 17 16 12 12 11 10 9 11 10 9 10 8 8 8 8 9 10 7 8 10 12 11 13 16 17 18 20 19 21 23 23 23 23 22 22 22 22
25 21 20 18 19 18 18 20 18 14 13 12 13 13 13 13 11 10 10 11 12 12 14 14 13 14 22 19 19 21 23 24 23 25 22 23 25 27 28 28 28 27 26
28 26 24 22 21 20 19 20 20 16 17 16 15 15 15 13 15 15 14 15 15 16 16 21 18 19 20 22 27 26 26 23 23 25 31 29 28 29 31 31 33 34 33
29 28 28 26 24 23 21 22 23 20 19 18 17 18 17 16 17 15 15 15 15 16 16 18 21 19 20 21 24 25 26 27 26 24 25 27 27 28 30 33 36 37 38
30 30 31 28 27 26 24 23 23 24 22 20 20 19 19 19 19 18 17 18 17 18 19 22 22 22 21 21 21 23 22 21 24 23 25 27 31 33 32 31 35 38 40
32 32 32 31 29 27 25 27 25 24 24 24 22 22 23 23 24 23 19 18 18 19 20 21 23 22 22 22 22 25 28 28 28 27 29 28 29 28 29 35 36 33 33
35 34 34 33 32 28 27 30 28 24 25 24 25 25 25 27 26 26 26 25 26 28 29 27 26 27 29 28 26 30 32 33 38 24 25 30 30 33 33 30 31 36 40
37 37 36 35 35 33 31 31 30 30 25 26 27 26 25 23 25 28 29 30 31 31 32 34 38 37 37 34 32 33 33 34 32 29 32 36 28 32 28 28 31 34 40
41 40 38 37 36 36 34 33 32 32 34 34 33 31 33 33 31 28 25 26 28 29 31 34 39 39 35 29 27 28 31 35 34 33 29 36 28 34 31 34 35 36 39
40 40 39 39 39 38 37 34 34 35 37 38 38 39 39 39 38 37 37 39 39 37 30 32 35 33 30 27 24 27 29 32 39 31 24 31 33 34 36 37 34 32 34
41 38 38 39 40 39 38 37 35 35 34 34 37 39 41 42 41 40 38 37 38 34 26 25 26 26 24 24 21 25 27 29 32 39 25 33 38 37 40 39 31 33 34

GFSMA_850_spd_051.txt.gz
Wind_Speed
7 7 4 4 5 5 3 3 5 6 5 5 9 9 7 8 3 4 5 5 5 5 6 5 4 5 5 5 4 3 3 3 4 4 5 6 6 6 7 8 8 9 9
6 3 3 2 5 5 7 4 5 5 5 4 5 9 9 7 9 6 5 7 6 4 3 3 3 4 3 2 1 1 1 2 2 3 4 5 6 6 7 7 7 8 8
9 7 4 3 2 1 8 6 8 5 6 6 8 5 7 8 7 7 5 5 8 9 7 2 1 2 2 1 1 0 1 2 3 3 3 4 5 6 7 7 7 8 9
5 8 4 4 5 6 6 3 8 6 3 8 9 8 7 6 4 6 4 6 6 5 8 6 2 1 1 2 2 2 2 3 4 4 5 5 5 6 7 7 7 8 8
3 5 10 7 5 5 11 8 4 9 6 5 7 9 5 4 4 5 5 3 4 4 1 5 4 3 3 2 3 4 4 5 5 6 6 6 6 6 6 6 6 7 6
5 4 3 3 9 5 4 11 5 7 9 3 7 7 6 5 3 3 4 4 4 3 1 5 4 6 8 7 5 5 5 5 5 5 5 5 4 4 5 5 5 5 5
6 6 5 5 4 4 4 5 5 6 4 4 8 5 3 3 3 2 2 3 3 3 1 2 2 5 6 9 6 7 6 5 5 5 5 4 3 3 3 3 3 4 4
6 5 5 3 6 6 7 6 7 7 5 5 5 5 4 2 4 2 1 2 3 1 0 2 1 5 1 5 9 6 6 5 4 4 3 3 2 2 2 1 2 2 3
7 6 7 5 6 9 4 6 7 5 4 4 2 4 2 4 4 1 1 2 1 1 1 2 2 3 2 3 6 8 7 6 4 3 2 2 1 1 0 1 1 2 3
9 7 6 6 7 5 5 6 6 6 4 5 3 2 4 3 2 1 2 2 2 1 3 2 3 3 4 1 7 7 6 5 4 2 2 2 2 1 2 1 1 2 3
12 10 9 7 5 6 7 8 5 10 6 6 7 5 3 2 0 3 5 4 3 2 2 1 3 3 5 5 5 8 7 6 4 4 3 3 3 4 4 4 5 4 5
12 13 10 9 8 7 7 7 7 9 10 8 5 6 6 5 5 2 1 3 3 0 1 3 4 4 5 6 6 8 9 7 6 6 6 7 7 8 8 9 9 9 9
15 16 15 13 8 8 8 8 8 8 11 9 11 7 5 4 1 3 1 3 1 1 2 4 5 5 4 6 7 13 12 9 9 9 9 10 11 12 13 13 14 14 15
15 16 16 14 12 11 9 9 7 8 8 8 9 11 6 6 5 5 5 3 4 5 4 2 4 5 6 7 9 14 16 14 12 13 13 14 14 15 16 16 17 18 19
16 17 14 14 15 14 12 12 11 9 9 10 9 11 10 6 7 6 6 6 6 5 3 3 2 7 7 6 9 16 15 17 17 17 18 20 20 21 22 22 22 22 22
22 13 18 18 17 17 16 17 12 13 13 11 9 12 10 9 9 9 8 8 8 8 9 6 6 8 11 12 13 19 20 20 23 23 22 23 24 25 27 28 29 29 28
22 23 18 17 18 18 18 20 18 14 15 14 15 12 14 14 10 9 9 10 10 10 12 12 11 12 15 22 25 23 21 21 21 24 26 28 29 29 30 32 34 35 35
27 23 21 21 19 20 19 20 19 17 17 14 15 15 15 13 15 15 15 14 13 13 14 19 18 19 18 18 23 27 29 20 19 20 24 25 25 25 26 30 35 38 39
33 26 25 24 22 23 23 22 21 20 19 18 18 19 18 18 19 15 16 15 14 15 15 16 19 18 20 19 20 22 23 22 23 21 25 26 29 33 32 29 29 29 32
36 33 29 27 25 23 23 23 22 22 21 20 20 20 20 21 21 19 18 19 18 18 18 19 20 21 21 20 20 22 20 19 24 23 24 28 31 31 31 32 30 32 32
38 35 32 31 29 25 23 26 26 24 23 22 22 22 22 23 22 23 19 18 18 19 18 19 21 21 22 21 19 23 29 27 27 30 32 28 25 27 32 31 37 33 32
40 37 36 34 33 28 26 27 26 26 25 24 24 24 24 24 25 26 27 26 25 26 27 24 24 26 29 28 25 26 31 36 36 21 26 30 27 30 28 27 28 31 33
42 41 39 37 37 36 29 29 30 30 26 26 26 26 23 20 22 23 23 24 26 28 31 32 35 36 37 35 36 35 27 28 29 29 30 29 23 25 25 24 29 31 31
44 43 42 40 39 38 34 32 31 31 31 31 29 27 27 27 26 22 21 22 25 27 28 27 31 35 35 30 28 29 32 32 32 25 25 31 27 28 26 27 30 30 29
45 45 44 42 42 41 36 33 32 32 33 35 34 34 34 35 34 32 32 34 35 37 32 32 32 31 28 26 26 27 31 28 30 31 28 27 23 30 33 25 25 24 32
48 46 46 45 44 42 39 37 35 34 31 31 33 35 37 37 37 36 37 37 39 37 30 26 25 24 26 26 23 23 25 28 27 34 20 26 24 25 30 30 28 27 30

GFSMA_850_spd_054.txt.gz
Wind_Speed
6 5 1 7 3 6 7 11 6 6 9 13 8 14 10 9 8 9 9 8 6 5 4 5 5 5 5 5 4 3 3 3 4 4 5 6 6 6 7 7 8 9 10
6 4 2 1 2 10 9 10 9 3 8 7 6 9 11 4 7 9 11 13 11 7 4 3 3 3 3 3 2 1 2 2 3 4 5 5 6 7 7 7 8 9 9
8 6 6 1 4 8 6 6 6 9 9 4 5 12 9 9 8 5 7 8 9 9 8 5 3 1 2 1 0 1 2 2 3 4 5 6 7 7 8 8 9 9 9
9 5 4 3 10 9 9 10 11 8 3 5 10 9 11 6 8 4 5 6 7 9 6 10 5 4 4 3 3 3 3 4 4 5 6 6 7 7 7 8 8 8 8
4 8 7 7 7 4 6 7 8 10 6 6 14 13 5 5 9 5 3 3 4 3 7 9 7 7 8 6 6 5 5 5 5 6 5 6 6 6 6 7 7 7 7
3 2 7 6 8 9 11 5 7 3 7 5 9 9 7 6 5 3 4 7 7 5 6 9 3 6 9 9 8 7 6 5 5 5 5 5 5 5 5 5 5 5 6
6 1 5 8 11 5 6 6 4 6 7 7 9 7 2 4 6 2 2 5 6 3 3 6 6 4 5 9 11 10 7 5 5 5 5 4 3 3 4 3 3 3 3
7 3 7 4 5 7 9 9 9 7 5 5 1 3 4 2 7 5 3 1 2 2 3 1 8 4 3 8 9 9 8 7 6 5 4 3 3 3 2 2 2 2 2
5 6 5 4 10 7 5 9 11 3 7 3 1 5 4 3 4 1 4 5 3 4 4 7 2 8 2 5 7 7 10 8 7 5 4 3 3 2 2 2 2 3 3
8 6 7 6 8 5 7 10 8 5 9 5 2 1 0 2 2 4 3 5 3 4 2 4 6 9 10 1 6 11 8 9 7 6 4 3 3 3 4 5 5 5 5
12 11 7 6 8 6 5 9 7 11 8 5 5 3 3 1 0 1 4 5 5 1 5 3 2 7 10 10 6 9 9 8 7 6 6 6 6 6 7 8 9 9 9
12 14 12 8 7 10 9 10 10 14 11 7 10 5 5 4 2 6 3 4 4 2 2 3 5 3 7 10 9 7 11 10 8 8 8 8 9 10 11 12 12 13 13
13 15 15 11 9 10 8 9 9 13 15 12 9 8 2 2 6 4 3 5 2 1 3 2 6 7 6 9 11 13 15 14 13 12 12 12 13 14 15 15 16 16 17
20 16 15 11 11 10 9 8 8 10 9 15 15 12 8 4 1 3 4 7 4 6 8 3 4 7 8 8 9 14 16 17 16 16 17 19 20 21 21 22 22 22 21
15 17 17 13 13 13 9 10 7 7 11 9 8 10 13 10 6 6 6 6 8 12 7 2 2 6 8 10 11 13 18 24 25 25 24 24 24 25 26 27 28 28 28
19 14 18 18 15 16 15 14 10 10 14 9 10 9 7 11 5 8 10 8 8 9 12 7 7 9 11 11 16 23 23 22 25 24 22 21 23 26 27 27 28 30 31
23 27 16 17 17 17 20 19 17 15 15 12 14 10 14 12 15 11 10 8 9 11 14 14 12 15 16 19 24 23 22 23 23 23 21 21 18 23 22 22 24 25 26
31 28 27 20 20 21 20 21 19 23 15 19 14 20 15 15 13 16 16 15 11 12 15 20 21 21 16 17 21 22 21 23 23 21 21 24 26 30 28 28 26 25 25
35 34 31 29 29 24 22 21 20 19 21 19 16 15 18 19 18 17 14 15 16 13 16 18 20 18 20 18 20 21 24 26 22 23 27 28 30 32 26 29 30 29 28
39 38 35 32 29 26 23 24 24 22 20 25 23 22 22 21 20 20 19 20 21 20 21 22 23 19 19 19 19 16 16 20 28 21 24 31 27 28 28 29 30 28 29
43 40 37 34 32 29 27 27 27 26 24 23 23 24 24 24 24 23 22 20 17 17 19 20 22 20 20 22 24 27 30 27 33 38 27 22 24 30 25 26 22 24 27
44 43 40 37 35 33 30 25 25 26 27 27 24 25 26 24 23 22 23 25 24 24 25 26 29 31 31 32 32 34 34 33 35 26 22 31 26 26 22 18 18 23 25
43 44 42 39 38 37 33 27 27 28 27 28 28 26 25 24 23 23 21 20 20 21 25 27 31 31 30 27 30 30 27 27 30 32 30 30 28 30 21 20 22 28 22
45 44 43 41 40 39 36 32 30 30 31 30 29 27 27 25 23 23 21 22 23 23 22 23 25 28 30 32 26 27 27 31 33 30 26 31 29 22 22 27 21 18 20
46 45 43 43 43 41 39 35 33 34 34 34 32 33 32 28 28 25 28 30 30 31 30 32 34 33 30 28 28 28 30 31 31 30 24 25 29 29 30 22 10 15 27
47 45 44 44 44 42 40 38 35 34 38 37 35 35 33 34 33 33 34 34 35 34 33 32 31 29 26 24 25 23 23 24 26 29 23 28 25 20 29 18 22 26 25

GFSMA_850_spd_057.txt.gz
Wind_Speed
11 5 5 6 8 11 10 6 11 15 13 14 9 18 10 9 11 13 10 10 8 7 5 5 5 5 5 5 4 3 4 4 5 6 6 6 6 7 8 8 9 9 9
9 6 7 4 8 10 9 7 7 9 17 13 15 11 4 9 9 11 13 12 11 8 6 4 3 3 3 2 2 2 3 3 4 5 5 5 5 6 7 7 8 8 8
10 8 7 6 11 13 14 14 7 5 12 13 13 11 7 7 8 10 7 8 9 10 9 5 4 3 3 3 3 3 3 3 3 4 4 5 6 7 7 7 7 7 7
11 10 11 12 12 12 12 11 11 8 9 10 11 10 7 5 5 6 7 7 6 8 9 10 6 6 5 4 4 4 3 4 4 4 4 5 6 6 6 6 6 6 6
8 10 12 13 11 12 11 15 12 7 8 9 10 10 7 4 5 5 4 4 10 9 11 9 8 9 9 6 6 5 4 4 4 4 4 5 5 4 4 5 5 5 5
9 10 13 12 9 10 11 13 12 6 9 10 11 7 4 4 1 2 3 2 8 6 7 10 4 4 6 9 9 7 5 4 4 4 5 5 4 4 4 4 4 4 4
5 4 10 14 12 13 10 11 11 8 9 12 11 10 5 3 1 2 5 1 3 4 6 6 6 3 3 6 10 10 8 6 4 4 4 4 3 3 3 3 3 3 4
6 9 12 11 7 10 13 12 10 8 12 8 11 4 4 3 6 4 2 4 2 2 5 10 11 10 4 5 7 9 10 8 7 6 5 4 4 3 3 3 3 3 4
4 9 9 8 13 7 12 13 14 7 9 6 3 6 4 5 5 5 4 6 3 2 3 7 8 11 14 4 7 10 11 10 9 7 6 5 5 4 5 5 5 6 6
7 7 5 9 12 9 8 12 14 7 9 7 6 5 3 6 5 6 7 4 5 5 3 5 7 7 11 13 8 8 9 11 9 8 7 7 7 7 7 7 8 9 9
13 7 5 7 11 9 10 14 12 10 11 8 8 4 7 2 0 2 6 6 7 4 2 3 3 5 7 9 8 8 9 10 10 9 8 8 8 9 9 10 11 11 12
10 10 10 5 10 11 12 13 13 12 11 8 8 8 4 1 3 5 6 10 4 2 3 2 4 6 6 5 8 8 10 12 13 13 13 12 12 13 13 13 14 14 14
13 12 14 9 10 12 9 12 12 17 15 11 9 7 8 3 2 4 4 8 2 6 2 4 3 5 8 9 9 11 12 14 17 18 18 18 18 18 18 18 19 19 19
12 13 9 9 9 9 9 9 11 16 18 15 13 11 8 6 3 2 2 3 1 4 2 3 3 5 7 10 13 13 14 18 25 24 25 23 22 22 21 21 22 23 24
14 18 17 13 11 8 10 10 9 13 14 16 17 15 14 10 6 4 4 5 5 7 6 1 3 6 9 12 12 13 16 24 21 18 21 19 17 18 21 21 23 24 25
24 17 20 21 15 10 13 11 10 11 12 11 10 13 16 15 12 7 5 7 7 7 7 6 3 8 5 11 12 17 24 18 18 19 18 17 20 23 23 21 19 20 20
28 22 16 20 17 12 13 16 13 13 10 9 11 10 11 10 17 13 12 9 9 9 12 10 10 12 15 18 20 19 16 19 20 20 18 21 23 25 27 30 28 25 22
29 23 22 22 21 17 15 18 17 17 17 16 15 13 16 12 13 17 16 14 14 13 14 17 17 17 14 13 10 14 19 21 19 17 21 20 20 24 28 25 24 23 25
34 31 24 25 24 22 19 17 19 19 23 20 17 18 18 20 17 15 20 20 19 18 19 21 21 18 19 11 15 19 14 13 20 27 22 22 28 34 22 26 28 25 18
38 39 35 33 32 32 27 23 21 19 20 27 22 20 19 19 20 19 18 18 18 20 20 22 24 22 16 14 14 17 24 26 28 29 28 24 17 20 24 21 18 15 19
43 40 40 41 37 33 29 26 24 23 21 22 25 27 23 22 21 20 20 19 19 19 18 19 21 20 20 20 24 28 30 29 29 22 20 20 24 19 17 17 12 17 23
47 43 42 42 40 37 33 29 27 26 26 24 23 22 25 24 22 20 20 20 21 22 23 24 25 27 29 29 26 23 28 26 29 22 27 23 19 20 15 12 13 18 19
44 48 45 42 42 40 36 31 28 28 27 27 27 24 23 23 24 24 24 24 22 21 21 22 25 25 24 21 24 28 24 24 25 25 28 26 22 21 18 18 17 8 15
42 43 46 45 43 41 37 34 30 28 27 26 26 25 25 23 22 21 21 22 24 23 23 23 24 24 24 26 29 25 25 26 26 24 23 28 22 22 18 15 5 11 17
43 41 41 42 43 41 38 35 32 31 33 32 30 29 28 27 25 22 22 27 29 29 27 27 28 31 33 31 28 25 22 25 26 25 21 24 22 21 15 13 11 14 22
41 42 42 41 41 41 39 37 34 34 35 37 35 34 33 32 30 30 31 30 31 30 28 29 29 28 24 23 21 21 23 24 22 25 24 22 20 16 13 6 19 20 18

GFSMA_850_spd_060.txt.gz
Wind_Speed
9 8 6 6 9 12 14 16 17 14 15 11 14 12 11 12 14 11 9 8 6 6 6 4 3 3 3 3 3 2 3 3 3 4 4 4 5 6 7 7 7 8 8
10 8 10 7 11 9 12 12 12 13 13 13 11 10 10 11 11 11 10 11 9 7 6 5 4 3 3 3 3 3 3 4 4 4 4 4 5 5 6 7 8 8 7
12 10 8 9 10 10 12 10 13 15 12 12 9 8 7 6 6 6 8 8 10 11 8 5 5 4 3 3 3 3 4 4 5 6 6 7 7 7 7 7 8 8 8
10 10 9 13 12 12 10 9 11 10 13 15 10 6 6 6 5 7 6 7 7 10 7 7 5 4 4 2 2 3 4 5 6 6 7 7 7 7 7 7 7 7 6
8 12 12 13 14 15 13 9 8 5 10 11 10 7 5 6 6 6 6 10 9 8 11 6 6 6 5 4 4 4 4 4 5 6 6 7 7 7 6 6 6 6 6
12 12 16 16 13 10 11 13 11 6 10 10 9 8 5 3 2 2 4 4 5 5 9 8 4 3 5 7 8 7 6 5 5 5 5 5 5 5 6 5 5 5 5
9 14 14 13 10 14 14 16 10 8 11 12 8 7 8 7 6 5 4 1 1 2 6 8 8 2 3 5 7 9 9 8 7 6 5 5 5 6 6 6 6 6 6
8 11 12 14 13 15 13 13 13 8 12 13 12 6 4 5 9 10 9 6 1 3 5 7 9 11 5 6 7 8 10 10 9 8 7 6 5 5 6 6 7 7 7
11 11 14 14 14 13 13 14 11 9 12 10 9 4 5 3 5 5 4 5 4 4 5 5 7 7 10 5 6 8 9 10 10 10 9 9 8 8 7 8 9 9 9
10 12 12 10 13 12 15 15 12 11 12 10 7 7 3 3 1 3 3 6 6 4 4 5 5 6 7 8 9 9 11 11 12 12 12 12 11 11 11 11 11 12 12
11 10 11 12 15 13 15 17 15 12 12 9 9 6 4 4 2 1 3 5 8 5 2 4 6 7 6 6 6 7 9 11 12 13 13 14 14 14 14 14 14 15 15
17 12 11 10 16 13 14 18 17 13 13 10 9 6 2 2 3 5 5 4 6 4 3 2 4 6 7 8 7 8 10 12 16 18 17 18 18 18 18 18 18 18 18
18 16 15 12 12 15 16 18 17 16 15 12 8 6 6 4 2 4 5 6 2 7 4 4 3 3 4 8 11 11 14 16 21 22 21 21 20 18 17 17 19 20 20
17 13 14 14 11 12 12 15 17 19 18 15 12 10 9 6 3 0 3 3 1 3 3 5 3 6 7 8 10 13 17 21 24 21 21 20 20 20 17 16 17 17 17
14 17 14 14 13 11 10 11 14 16 20 18 16 14 12 9 8 5 3 4 5 4 4 2 2 5 7 10 12 14 19 23 20 17 17 18 20 24 26 27 25 22 21
21 17 18 19 17 15 11 11 13 15 18 19 19 18 17 14 13 8 7 5 6 6 7 5 6 9 8 9 13 18 22 19 20 22 21 18 21 22 22 23 23 25 22
25 24 21 17 23 19 14 14 14 16 16 16 15 14 17 18 18 14 11 10 9 11 13 12 13 12 13 16 15 14 15 19 22 20 17 19 19 18 20 24 18 20 20
30 29 27 22 24 23 18 15 17 17 17 16 14 14 14 16 18 20 18 15 14 14 16 18 15 14 17 14 13 12 14 15 16 22 25 24 21 28 23 17 22 22 14
34 33 33 29 24 24 21 16 16 18 19 19 17 17 15 15 17 16 19 20 19 17 19 21 22 22 22 18 13 14 14 17 27 28 25 19 16 16 18 20 15 14 13
40 37 33 32 29 27 26 21 17 16 19 21 22 20 18 18 18 20 19 18 19 21 22 23 25 25 22 17 17 18 24 28 25 22 17 14 17 15 12 14 13 10 15
47 44 40 37 32 31 30 28 24 22 20 21 23 25 23 21 21 19 20 20 19 20 20 21 23 22 21 21 21 26 28 25 24 21 17 17 16 14 14 13 11 13 18
52 49 48 44 41 38 34 31 28 25 23 23 23 24 23 25 25 23 23 22 20 20 21 22 23 24 24 23 21 21 24 28 29 21 23 21 20 17 16 12 12 17 16
48 53 52 48 46 44 43 39 34 31 28 26 25 25 24 24 23 23 24 23 23 22 22 21 23 23 24 21 22 25 26 28 27 21 21 22 18 18 16 11 14 11 14
46 49 51 52 50 48 45 42 38 35 32 30 28 26 24 23 23 23 22 23 24 23 22 22 25 26 26 25 26 28 31 28 22 19 19 22 19 15 10 11 10 12 17
43 45 47 46 51 50 46 43 40 39 36 34 30 28 26 24 21 20 22 24 23 23 22 23 25 26 27 29 30 29 25 22 24 20 18 19 19 14 11 8 7 16 19
41 42 43 46 46 46 46 42 40 40 39 37 34 32 30 28 25 23 25 26 28 26 25 25 26 27 27 27 22 21 23 24 21 22 19 23 18 12 7 4 13 19 14

GFSMA_850_spd_063.txt.gz
Wind_Speed
10 11 7 9 13 13 13 13 10 10 9 13 12 12 13 14 12 10 7 7 6 6 5 4 4 4 4 4 4 4 5 6 6 6 7 7 8 8 9 10 10 10 10
5 5 6 9 12 14 14 14 13 10 8 11 11 11 10 11 11 10 10 9 8 6 5 5 4 4 4 4 5 5 5 5 6 6 7 7 8 9 9 9 10 10 10
6 6 9 9 9 13 12 12 11 11 11 10 10 9 6 8 7 8 8 10 9 7 5 4 4 4 4 4 5 5 5 6 7 8 8 8 8 9 9 9 10 10 9
8 9 9 11 10 12 9 11 11 9 8 8 7 8 7 6 6 6 7 7 8 9 6 5 5 5 4 4 4 5 5 6 7 8 8 9 8 8 8 9 9 9 8
10 8 8 12 11 10 7 9 10 9 10 6 2 4 4 4 5 5 7 6 6 9 7 5 4 4 5 5 5 5 4 5 5 6 7 8 8 8 9 9 9 8 8
9 10 8 12 11 10 8 6 7 8 8 7 5 3 2 1 1 1 1 2 3 5 8 5 4 3 5 7 7 7 8 7 6 7 7 8 8 8 8 8 8 8 8
8 10 12 13 12 10 11 9 5 5 8 7 5 3 5 8 6 5 4 3 2 3 7 9 8 3 4 5 7 9 10 10 10 10 10 9 9 9 9 9 8 9 9
6 11 13 13 13 12 12 14 8 7 8 9 7 5 2 7 9 8 8 7 4 5 3 6 8 9 5 6 8 9 11 11 12 12 12 12 12 12 12 12 11 11 11
7 8 12 13 11 14 12 13 10 7 9 11 10 5 3 3 3 3 4 3 3 3 3 3 6 7 8 7 8 10 11 12 12 13 13 13 13 13 13 14 14 13 13
10 9 12 13 12 13 13 12 12 10 12 10 11 7 4 2 3 3 3 2 3 0 2 4 5 6 6 7 8 9 11 12 14 15 16 16 16 16 15 16 16 16 16
11 12 10 10 12 13 13 15 14 10 12 11 9 4 2 1 3 3 4 4 4 0 1 5 6 7 6 6 7 9 10 13 16 18 18 17 17 17 17 17 17 18 18
13 13 11 11 14 13 12 15 15 12 11 11 9 5 3 1 2 7 6 2 4 4 1 4 7 8 7 8 9 10 11 13 16 19 19 19 18 17 15 16 17 17 17
15 14 12 12 12 15 12 16 17 16 14 11 8 6 5 3 1 4 6 6 5 4 5 5 4 3 4 6 8 11 13 16 20 20 19 20 22 22 19 18 17 17 17
17 11 13 14 10 12 14 14 17 17 15 13 10 8 7 5 3 2 2 4 4 5 8 4 6 6 8 8 9 13 17 19 22 17 18 19 24 26 26 25 23 24 24
19 17 15 13 14 12 15 15 16 17 18 17 14 13 10 8 6 5 4 4 5 6 6 4 3 7 9 9 11 15 19 21 18 21 22 21 16 19 20 19 20 21 20
22 22 18 15 14 15 14 15 13 15 18 21 19 16 15 13 12 10 7 6 6 7 7 6 8 12 12 13 16 16 16 17 18 19 19 20 23 23 21 19 23 17 19
22 21 18 17 18 17 16 15 15 15 16 18 21 21 19 18 17 15 13 11 10 10 13 14 14 14 14 15 15 16 15 16 16 18 25 29 26 23 22 16 17 19 19
26 25 23 22 20 19 21 20 17 17 17 18 17 18 16 16 17 18 18 16 14 14 15 17 16 15 16 17 19 18 15 17 18 27 27 21 16 17 20 18 20 18 16
33 29 28 27 25 23 22 24 21 18 19 18 18 18 18 15 17 17 18 20 20 19 19 20 22 22 23 21 19 15 17 19 22 22 20 14 17 17 16 18 17 18 13
40 37 33 29 28 27 25 23 22 19 18 20 20 21 20 19 19 18 19 17 17 18 19 22 24 24 23 20 19 20 23 21 21 23 17 16 17 16 16 16 15 14 14
42 43 40 36 32 29 28 29 26 24 22 19 19 21 23 23 21 20 19 19 19 19 20 21 23 23 23 21 20 20 22 23 25 25 17 18 16 16 16 17 17 14 18
41 44 45 44 41 38 34 32 31 29 27 26 24 23 23 23 25 25 23 22 21 21 23 22 23 22 22 20 18 20 24 28 31 23 22 16 18 17 17 18 16 17 13
37 40 45 48 47 45 42 38 37 34 32 30 27 26 25 25 25 25 24 25 25 24 23 23 24 23 22 19 21 23 25 28 29 21 22 18 17 14 15 19 15 14 14
38 40 41 44 48 50 47 45 42 40 41 38 35 32 30 28 26 25 25 25 24 24 24 24 25 23 22 21 22 23 27 30 26 14 18 19 13 13 16 16 15 11 18
35 38 40 42 43 46 48 47 45 43 43 42 40 37 35 32 27 24 24 25 24 25 22 22 23 23 24 24 25 26 26 25 24 19 17 17 15 15 16 15 14 12 19
34 34 36 37 41 42 44 44 44 46 46 46 44 42 38 35 30 26 26 26 27 26 22 22 22 23 24 24 23 24 21 22 24 25 14 16 17 17 11 13 11 15 17

GFSMA_850_spd_069.txt.gz
Wind_Speed
11 9 9 8 7 7 7 7 10 9 7 9 10 11 11 12 11 8 7 8 7 7 7 6 6 6 6 7 7 7 8 8 8 9 10 10 10 9 10 10 11 10 10
7 7 6 7 5 6 6 7 8 10 9 8 9 10 11 11 11 10 10 9 7 7 6 6 6 6 6 7 7 7 7 7 8 8 9 8 9 9 9 10 10 10 10
4 4 5 7 6 5 5 4 5 7 7 7 6 7 8 9 9 9 10 10 8 7 5 5 6 7 7 6 6 7 7 7 8 8 8 9 10 9 9 9 10 10 10
5 6 6 7 6 6 5 2 3 5 6 6 7 7 9 10 10 10 10 11 11 8 7 7 8 8 7 7 7 8 8 8 9 9 9 9 9 9 9 9 9 9 9
4 5 5 8 8 6 5 4 4 5 5 5 6 6 7 7 7 8 8 9 9 9 7 6 6 7 7 8 9 9 10 10 11 10 10 11 11 10 10 10 9 9 9
4 5 6 8 10 8 6 6 5 6 6 6 6 5 5 5 5 6 6 7 7 8 8 7 6 5 6 8 8 9 11 11 12 12 12 12 12 11 11 10 9 9 9
5 6 6 10 10 9 7 6 6 5 5 4 3 4 3 3 4 6 6 7 7 7 6 6 6 6 6 8 9 10 11 12 12 13 14 14 13 13 12 11 10 9 9
5 8 7 9 9 8 8 7 4 5 4 4 3 7 5 4 8 5 5 4 3 3 4 3 4 5 6 7 8 10 11 12 13 14 14 15 15 15 14 13 12 11 10
4 8 10 10 7 6 7 6 3 3 4 5 0 4 5 5 7 7 6 3 2 3 2 3 4 5 6 7 8 9 11 12 14 14 15 15 15 15 14 14 13 12 11
5 6 9 9 5 10 8 7 6 3 3 4 1 5 5 5 5 4 7 5 2 1 2 3 3 4 6 7 8 9 11 13 14 15 14 13 14 15 15 14 14 14 13
7 6 7 10 9 8 9 8 8 4 6 3 2 4 6 5 8 6 6 6 7 6 5 3 4 5 6 7 7 8 10 12 14 14 13 15 17 18 18 17 15 14 15
8 8 8 9 9 9 10 9 10 9 6 5 5 3 2 3 5 7 6 7 8 7 7 5 5 5 5 6 7 10 11 13 14 13 15 18 19 19 19 19 18 17 15
9 10 10 9 8 8 8 7 11 11 8 6 4 3 2 2 3 7 8 7 6 8 6 8 7 6 6 7 9 12 14 14 14 14 17 20 23 24 25 23 20 16 15
11 9 8 8 6 8 9 8 9 12 12 8 6 4 3 2 1 3 7 7 5 5 6 2 3 6 7 10 13 16 16 18 16 16 20 24 28 26 22 19 17 17 17
15 13 11 7 9 8 6 10 9 10 11 10 9 8 6 5 4 4 5 6 6 4 4 3 3 8 11 14 15 17 19 20 17 19 23 26 26 23 23 20 16 14 13
18 16 14 12 10 9 10 7 9 9 11 11 11 12 10 9 8 8 7 7 7 6 5 9 9 12 12 13 16 18 20 20 18 21 24 25 22 21 22 19 17 15 13
20 18 16 14 13 12 11 10 8 9 10 11 13 15 14 13 12 12 12 11 11 11 9 10 14 14 14 15 16 18 19 19 20 21 21 24 17 21 21 21 18 16 13
25 20 18 16 15 16 15 13 11 10 8 9 10 12 13 15 15 14 14 14 14 14 14 15 15 15 17 17 18 18 18 18 20 18 21 19 17 20 21 20 18 16 14
29 26 23 21 19 18 16 14 13 14 12 11 11 12 12 14 14 13 12 13 12 14 16 18 17 17 19 18 19 19 19 18 17 18 21 17 18 19 20 19 16 16 13
32 32 30 26 24 23 22 19 17 15 14 15 13 14 15 15 15 14 14 14 15 16 16 19 16 15 16 18 19 18 17 16 19 18 18 18 17 18 18 18 15 18 15
30 32 34 33 30 28 27 25 21 19 17 16 16 14 13 15 15 17 18 18 17 17 15 15 16 16 16 14 15 16 18 17 19 19 20 10 12 17 19 18 16 15 16
35 33 35 37 37 36 33 30 26 25 23 22 21 19 18 17 16 15 16 18 19 21 22 19 18 19 20 18 15 16 18 15 14 14 23 14 12 12 18 18 16 16 17
38 38 38 36 38 40 40 37 33 30 28 25 24 23 23 22 20 18 17 17 18 20 22 23 26 26 24 22 21 22 18 17 18 18 18 16 12 12 18 17 16 18 18
34 35 38 39 39 38 40 41 39 38 37 34 32 29 28 26 25 22 21 21 22 22 23 24 27 26 24 22 21 20 22 24 25 20 14 15 13 14 19 17 18 16 16
32 33 35 37 39 40 38 37 39 41 42 42 40 38 36 34 31 28 27 28 28 28 25 25 26 26 24 22 20 22 21 18 21 17 14 18 13 14 17 19 19 13 17
30 30 32 34 35 36 37 37 37 38 42 45 46 45 42 40 36 33 32 31 33 31 28 26 25 25 24 24 22 24 25 22 22 20 15 16 14 16 11 16 13 19 16

GFSMA_850_spd_072.txt.gz
Wind_Speed
11 10 10 8 8 8 8 10 8 9 10 10 10 10 9 9 9 8 4 7 7 6 6 6 6 7 7 7 7 7 7 9 9 9 9 8 8 8 9 9 10 9 9
9 7 8 7 7 8 8 9 10 9 9 8 10 9 9 8 9 9 6 6 7 6 6 6 6 6 5 6 7 7 7 8 8 8 8 7 8 8 8 8 8 8 8
6 6 6 7 6 7 7 7 8 9 7 7 8 7 7 8 6 7 7 5 6 8 7 7 7 6 6 6 6 6 7 6 7 8 8 9 9 8 9 8 8 8 7
5 7 7 8 5 7 6 6 7 7 7 6 6 7 8 8 7 7 6 6 5 3 7 7 7 8 8 8 8 9 9 9 9 10 10 10 9 9 8 8 8 8 7
5 8 8 7 8 6 6 6 7 7 7 7 7 6 6 5 6 4 4 5 4 4 3 5 6 7 7 8 9 10 10 10 11 11 11 11 11 10 9 9 8 7 7
5 6 9 9 8 6 7 7 8 7 6 6 5 4 4 3 3 2 2 3 3 4 4 3 4 4 7 8 9 9 11 12 12 12 12 12 12 11 11 10 9 8 7
5 7 7 9 9 7 7 6 7 7 4 4 3 2 2 2 1 1 1 1 0 2 1 2 4 2 4 8 8 10 11 12 12 13 13 13 13 13 12 11 10 9 8
7 7 9 9 10 7 7 8 6 6 4 4 4 3 3 4 4 2 1 1 1 2 2 2 1 2 3 3 6 10 11 12 12 13 13 14 14 14 14 13 12 10 10
6 9 10 9 11 10 7 7 5 6 4 2 4 4 1 6 3 4 4 3 3 3 3 3 2 2 6 3 6 7 10 11 12 13 13 13 14 15 15 14 12 12 11
5 9 12 11 9 8 9 7 5 4 6 5 2 3 4 3 3 8 5 3 4 4 2 3 2 2 4 4 5 7 10 11 12 13 13 16 18 19 18 17 15 14 14
7 7 11 12 8 8 9 9 8 5 6 5 2 2 3 4 7 1 8 6 6 5 4 4 3 3 3 4 4 8 11 12 13 12 14 16 19 21 22 20 17 15 14
8 9 9 12 11 10 10 9 8 6 6 6 3 1 1 2 6 5 6 5 6 4 4 3 3 2 3 4 6 10 13 13 14 13 15 19 23 26 24 19 16 15 13
7 9 9 10 8 8 10 11 10 9 7 4 5 3 2 3 5 5 4 4 4 4 4 4 3 3 3 5 8 13 14 16 16 15 18 21 25 25 22 19 16 14 13
8 9 10 9 9 10 10 10 7 10 10 6 6 7 4 3 1 3 4 2 3 3 2 3 0 2 5 7 11 14 12 18 17 17 20 22 24 22 21 19 16 14 13
11 11 10 10 10 9 10 10 9 12 11 10 7 7 6 6 3 1 1 2 0 1 1 1 1 5 6 7 13 15 13 18 16 18 20 21 22 20 20 18 16 14 12
14 14 14 13 11 11 10 9 10 10 12 11 10 11 10 8 7 5 4 4 3 3 5 3 5 7 9 8 12 16 16 18 19 22 20 22 21 20 19 18 16 14 12
16 17 17 15 14 13 12 12 11 11 10 11 12 12 12 13 9 9 8 7 7 7 8 8 8 9 13 11 13 16 14 14 13 20 21 22 19 18 17 17 16 14 12
18 18 17 18 17 15 15 14 13 11 11 11 11 12 13 12 16 14 11 11 10 10 10 12 12 11 12 13 14 16 14 12 15 15 21 24 19 17 17 16 15 15 14
22 19 18 18 17 17 17 17 15 14 13 12 11 12 12 13 15 13 13 12 10 10 11 12 13 12 12 13 13 13 15 14 13 18 17 21 20 18 15 15 14 15 16
24 25 23 20 20 18 18 18 17 16 15 15 15 14 14 14 14 13 13 13 12 13 13 14 14 13 13 12 13 13 15 14 15 15 13 14 20 22 17 15 15 15 16
28 26 27 26 24 20 20 21 20 19 18 17 16 17 15 16 17 16 14 14 14 14 13 15 15 14 14 13 13 15 16 16 16 14 13 12 16 21 21 17 15 16 17
33 32 29 28 28 27 26 27 25 20 20 19 18 19 18 18 16 16 17 18 20 19 18 18 17 18 19 17 15 15 16 17 18 13 15 17 13 14 13 11 16 16 17
33 35 36 33 33 32 32 33 33 28 23 22 22 22 21 21 22 21 20 20 20 20 22 22 23 22 22 19 18 17 17 18 17 17 19 18 14 15 17 20 16 16 17
27 31 34 37 38 37 34 33 36 37 35 31 27 25 25 26 25 24 22 21 22 21 23 24 27 26 25 23 21 18 19 20 18 16 15 18 14 15 14 18 17 15 14
26 27 29 32 36 38 37 36 35 36 38 42 40 38 34 31 31 31 28 25 24 24 22 26 26 27 27 24 24 22 21 19 21 17 15 18 17 14 18 16 22 12 14
29 26 26 29 31 36 37 37 37 37 33 34 39 42 45 44 40 38 37 35 35 32 26 24 25 29 29 28 26 26 26 23 22 21 16 16 14 15 18 15 13 25 19

GFSMA_850_spd_075.txt.gz
Wind_Speed
11 10 8 9 8 9 8 8 7 12 10 11 9 9 8 9 8 6 7 7 7 7 7 7 6 6 6 7 7 7 7 8 8 8 8 7 8 8 8 8 8 8 7
8 8 8 9 9 7 9 8 13 9 10 8 9 8 8 7 7 7 4 9 9 8 7 7 6 6 6 6 6 6 7 7 7 8 8 8 8 8 8 8 8 8 7
8 9 7 7 6 8 9 8 10 8 7 8 7 6 7 8 6 7 4 5 8 10 9 7 6 7 6 7 7 7 7 8 8 9 9 10 10 9 9 8 8 7 7
6 7 7 7 6 5 6 4 8 6 8 6 8 8 7 6 6 7 4 4 3 4 9 9 9 8 8 8 8 9 9 10 11 11 11 11 10 10 9 9 8 8 7
6 8 7 4 7 7 5 5 7 8 7 8 8 7 6 4 3 5 3 3 5 4 1 5 11 11 9 9 10 11 11 12 13 13 12 12 12 12 11 10 10 9 8
5 9 6 9 10 6 7 7 7 5 5 5 4 5 4 3 3 2 2 4 2 3 2 3 6 9 9 10 10 11 11 12 12 13 13 13 13 13 12 12 11 10 10
3 13 7 12 7 7 8 7 7 5 4 1 0 3 2 3 2 3 3 4 3 3 2 1 6 1 5 10 9 10 12 12 13 13 13 13 13 13 13 13 12 11 10
5 6 9 8 8 5 5 5 7 5 5 1 4 3 8 7 6 5 3 4 4 3 2 3 1 2 5 3 6 12 12 12 13 13 13 14 15 16 15 13 12 11 10
6 6 10 7 11 10 6 6 5 2 4 1 4 7 6 2 7 4 5 4 5 4 3 3 4 1 2 2 9 10 11 13 13 14 14 16 17 18 18 16 15 13 12
6 8 9 7 13 6 13 8 5 3 5 5 3 4 6 5 6 9 5 3 5 5 5 4 1 1 1 5 8 9 13 14 14 14 14 17 20 22 22 19 16 14 14
7 8 10 9 10 8 7 8 5 6 4 4 2 4 4 2 2 6 11 6 6 4 3 4 3 2 2 2 5 10 12 14 15 13 15 19 22 23 22 19 14 10 10
6 8 9 12 10 5 7 8 7 7 2 5 2 3 1 2 4 1 5 5 7 4 3 3 3 2 1 3 5 12 11 17 17 14 17 20 22 22 21 18 15 13 11
8 10 11 11 11 12 9 9 10 7 7 4 9 4 3 2 3 2 4 4 7 4 4 3 2 1 1 3 9 14 15 18 20 17 18 20 22 20 20 19 16 14 11
7 13 9 10 9 7 7 10 9 11 9 7 7 7 7 6 4 2 2 1 3 4 3 3 3 1 4 6 11 13 13 16 18 19 22 21 22 20 19 18 16 14 13
17 7 8 9 8 8 8 10 9 10 8 11 8 10 9 7 7 3 2 5 6 4 8 3 2 5 4 5 14 15 11 14 16 20 25 23 21 19 17 18 16 14 13
11 14 11 9 10 10 10 11 9 9 13 9 10 12 13 6 8 6 6 5 7 6 5 0 4 8 12 12 10 19 13 16 17 18 23 25 22 19 17 17 16 15 13
11 12 7 11 10 10 11 11 13 9 11 14 15 10 12 15 8 9 9 9 8 8 10 10 7 8 11 16 13 15 13 13 15 18 19 25 23 23 17 16 15 14 13
16 15 16 14 14 13 13 13 13 11 11 12 13 14 14 13 16 15 9 11 10 11 10 14 13 14 13 15 17 19 13 11 12 14 20 22 21 22 22 18 14 13 14
17 16 16 16 16 16 15 17 16 14 13 13 13 14 14 15 17 14 14 14 13 11 11 11 13 13 13 14 14 14 14 13 13 13 19 18 18 22 18 22 16 13 13
18 18 19 19 17 16 16 16 17 17 15 15 15 15 15 15 17 17 19 17 17 17 13 15 15 14 13 13 14 13 13 12 14 14 11 15 19 21 18 18 21 15 14
21 20 19 21 21 19 18 19 19 18 17 17 17 18 17 18 19 19 16 16 15 15 14 14 15 14 14 13 12 12 16 15 16 13 13 13 19 21 18 21 19 18 16
24 24 23 23 24 23 23 23 23 22 22 21 21 19 20 21 23 22 22 21 19 19 22 18 16 16 19 18 16 15 16 16 20 13 14 16 15 14 22 20 21 24 17
24 26 27 26 27 29 26 29 30 28 25 24 24 25 22 20 24 23 21 21 21 24 26 25 25 24 23 22 23 24 18 19 20 19 19 19 14 13 13 20 19 23 20
23 26 29 30 31 31 32 30 33 36 34 33 29 25 27 28 26 24 26 23 25 26 27 27 28 27 26 25 23 22 22 23 20 19 16 18 15 15 15 22 23 23 18
26 28 27 29 32 34 34 34 34 35 35 38 39 38 36 32 32 30 28 28 28 28 24 27 27 27 26 25 24 24 23 22 24 21 17 19 19 19 18 22 22 20 20
22 23 24 28 31 34 35 36 38 37 34 38 37 40 41 43 43 41 38 36 39 38 30 28 28 28 29 30 29 27 29 27 24 24 19 19 18 18 20 17 24 27 20

GFSMA_850_spd_078.txt.gz
Wind_Speed
9 11 12 13 8 5 11 9 12 11 14 10 9 7 10 10 5 10 14 11 8 7 7 7 7 6 6 6 7 7 7 8 8 8 8 8 10 9 8 8 8 8 8
8 8 7 9 8 10 10 9 13 12 10 7 6 10 7 7 8 3 10 12 13 12 9 8 7 6 6 6 7 8 8 8 9 9 9 10 10 9 9 9 8 8 7
8 9 8 6 9 5 8 3 9 9 14 10 7 10 7 8 5 4 6 8 10 12 13 10 8 8 8 9 9 10 10 10 10 11 12 11 11 11 10 10 9 8 8
8 17 5 10 8 7 9 12 8 14 5 12 10 7 3 5 10 7 2 6 7 9 10 11 11 10 10 10 11 12 12 12 13 13 13 12 12 12 11 11 10 9 9
15 9 4 10 10 5 7 8 10 8 6 5 6 6 5 1 5 4 5 2 4 4 9 9 13 14 11 12 12 12 12 13 13 13 13 13 13 13 12 12 11 10 9
11 10 13 11 15 5 2 6 4 5 3 5 7 1 4 3 1 2 3 6 7 4 2 2 9 11 13 12 13 13 14 13 13 13 13 13 13 13 13 12 11 10 9
8 11 6 14 7 10 6 10 7 6 4 0 4 6 3 6 7 4 2 9 7 7 5 8 6 5 6 11 14 13 13 14 14 13 14 15 16 16 15 14 12 10 10
9 11 13 10 2 10 8 10 6 3 4 2 5 5 6 6 5 6 4 4 2 0 2 3 3 3 4 5 11 13 15 14 14 14 15 16 17 18 18 16 14 13 12
12 9 12 10 8 7 5 8 9 5 5 1 7 7 4 3 6 5 9 5 9 6 3 2 2 8 7 2 9 14 16 15 15 14 14 18 20 20 18 17 13 11 11
9 8 13 10 12 11 12 10 5 8 6 1 3 6 5 5 5 9 7 2 8 4 3 1 7 7 11 9 4 14 14 16 18 15 16 18 20 19 20 18 14 11 9
8 11 9 10 12 7 13 11 7 7 6 1 5 2 3 1 2 2 10 4 5 3 7 5 1 5 9 5 5 14 12 17 20 16 18 19 20 19 20 18 15 12 9
9 9 10 10 10 13 8 14 10 11 8 2 4 5 2 3 4 13 9 8 9 5 3 1 5 1 3 6 7 15 15 17 20 18 21 21 20 19 19 18 15 12 10
6 7 9 11 12 9 8 12 12 11 11 6 5 3 2 3 6 4 8 8 10 5 6 2 2 2 0 5 10 15 16 16 17 19 23 24 23 20 19 18 15 14 11
14 9 9 6 10 11 12 14 10 13 9 10 12 7 5 6 2 3 9 8 4 7 8 8 5 2 1 4 12 14 19 16 16 18 21 25 25 22 19 18 16 14 12
14 14 11 9 10 8 6 9 13 11 13 11 8 14 7 3 4 3 4 5 7 10 10 10 4 8 5 6 13 15 17 14 13 17 20 22 24 25 19 18 16 16 12
10 12 12 8 8 8 9 10 10 9 12 9 12 15 13 10 2 4 5 4 7 8 9 4 5 6 10 15 16 16 18 9 15 15 19 20 21 23 23 19 17 15 14
17 4 13 10 11 11 9 12 15 14 13 13 14 10 14 14 11 6 12 10 10 9 12 13 12 6 12 16 17 18 17 11 13 15 15 19 20 21 20 20 19 16 14
21 13 11 9 12 10 12 11 10 9 9 7 17 18 12 13 18 15 12 10 9 13 13 18 18 19 18 11 17 19 15 11 10 14 14 20 20 21 21 18 18 18 15
14 17 20 19 18 18 16 15 14 14 13 11 11 12 13 16 17 19 18 15 13 12 17 15 16 12 16 15 14 14 18 12 13 14 17 19 19 20 21 20 18 17 16
18 16 16 18 15 17 17 18 16 16 16 14 14 13 14 14 15 16 17 20 19 21 18 15 18 19 13 12 15 18 15 12 12 13 14 20 16 21 22 21 16 15 20
19 20 18 21 21 18 16 15 15 14 15 18 18 17 16 18 19 18 19 17 16 18 17 16 17 18 19 17 12 14 16 17 16 17 15 15 18 21 22 21 18 14 20
23 22 22 21 23 25 19 20 18 18 18 18 18 19 18 21 20 21 22 21 23 21 22 23 23 22 20 18 17 17 19 21 28 20 17 22 22 19 21 20 19 16 18
23 24 24 25 25 25 24 23 24 24 25 24 24 24 22 19 19 24 22 19 19 23 28 27 29 28 26 23 24 25 25 25 25 24 19 16 15 12 11 19 19 21 18
22 26 26 26 28 29 28 27 27 30 31 32 31 26 24 25 23 25 20 26 26 25 25 26 29 27 23 21 20 21 22 23 24 24 16 26 23 21 18 19 22 24 21
22 24 25 28 32 31 31 31 29 31 35 37 37 35 35 35 34 30 28 32 28 30 30 28 22 25 25 23 22 23 25 26 31 31 25 22 22 21 20 19 22 18 17
19 21 25 27 31 33 34 34 34 35 35 38 39 40 39 38 37 40 35 38 39 39 37 34 30 30 29 28 27 26 27 29 29 32 23 21 20 22 24 23 23 24 27

GFSMA_850_spd_081.txt.gz
Wind_Speed
9 11 11 6 8 12 15 18 11 11 12 10 11 17 9 9 9 14 18 16 13 11 9 8 8 7 7 6 7 8 8 8 8 8 8 8 9 8 8 8 7 7 7
7 12 11 10 6 11 14 15 15 10 8 7 9 11 8 5 8 9 11 14 15 13 10 10 9 8 7 8 9 9 10 10 9 10 10 10 10 10 9 9 8 8 7
9 11 11 10 10 10 14 13 12 12 9 12 11 8 8 4 0 7 9 9 11 14 13 13 12 10 11 11 11 11 12 11 11 11 11 11 11 11 10 10 9 8 8
13 11 8 9 9 9 7 10 15 13 9 10 9 7 8 10 5 4 7 8 8 12 14 17 14 13 12 13 13 12 12 13 12 12 12 12 12 12 12 11 10 8 8
16 11 13 10 8 9 12 9 11 8 7 9 7 5 3 3 5 4 4 6 8 9 12 13 15 14 14 14 14 13 14 13 12 12 12 12 13 12 12 11 10 9 8
13 12 9 12 10 11 11 9 8 7 6 6 5 5 6 4 4 2 2 6 7 10 12 7 10 12 14 15 14 14 14 13 13 13 13 14 14 14 14 12 10 9 8
15 11 13 11 10 9 7 10 10 4 2 5 3 4 5 4 2 3 7 5 4 7 9 6 5 7 9 9 13 14 15 15 14 13 13 14 15 15 14 13 11 10 9
15 12 10 9 2 14 13 12 10 7 7 5 4 2 2 5 6 2 5 4 3 2 5 7 9 8 12 10 12 17 17 16 14 12 13 16 17 15 15 13 11 8 8
15 12 12 9 10 12 12 11 8 5 9 6 6 4 4 5 8 6 6 5 7 3 1 5 11 11 11 8 9 15 15 17 16 14 16 18 18 17 16 15 12 9 7
12 11 14 9 10 8 9 11 7 6 7 3 2 6 6 7 5 7 8 6 8 6 4 3 3 7 9 9 10 16 13 17 17 17 17 19 19 18 18 15 13 11 8
8 5 13 8 10 10 10 11 7 10 6 2 4 1 3 6 5 2 8 9 8 5 3 1 1 3 7 6 10 14 16 15 16 19 20 23 20 19 18 17 14 10 8
9 9 10 11 12 11 16 12 8 10 7 3 3 5 3 6 6 11 8 10 8 8 5 3 0 2 5 7 9 14 16 14 13 16 20 25 23 20 19 17 14 12 10
10 11 12 14 10 14 13 15 13 14 12 7 5 5 3 7 4 10 13 11 9 8 8 4 3 2 3 7 8 14 16 16 12 14 18 23 24 23 20 18 16 14 11
12 12 11 10 10 13 15 15 12 15 14 11 8 7 4 3 1 5 8 10 5 9 10 7 3 3 5 7 13 17 18 16 11 12 14 19 21 23 23 20 18 17 13
19 17 11 11 11 12 9 12 13 15 13 14 14 12 9 6 3 1 4 4 6 5 5 8 6 9 10 13 13 19 17 16 10 11 12 15 18 20 21 22 18 18 16
10 17 14 12 14 10 7 8 10 11 16 13 14 13 14 11 5 4 3 2 2 4 6 5 6 6 9 9 15 17 17 14 10 10 12 14 16 18 20 20 21 17 17
12 8 16 12 14 15 14 10 11 13 13 17 9 12 14 15 11 9 8 8 6 6 11 11 10 10 12 15 18 17 17 12 10 12 13 15 16 16 19 19 20 18 16
14 12 8 15 11 14 12 12 10 15 11 14 13 16 15 14 17 14 12 12 11 7 10 14 17 18 19 19 16 15 14 12 12 12 13 14 18 16 18 17 18 16 18
20 19 17 12 13 15 14 13 15 13 14 13 9 15 20 19 18 18 20 18 18 16 15 15 19 19 17 14 15 14 16 18 13 14 11 16 16 14 17 16 20 16 16
19 17 16 18 18 15 16 20 17 15 18 17 14 12 13 15 13 11 15 22 23 23 23 21 20 20 19 17 20 13 9 10 15 15 19 21 20 16 15 17 19 17 15
19 19 18 19 19 20 19 21 19 16 15 18 19 18 18 16 15 14 14 13 15 18 21 22 21 17 17 15 15 14 16 19 21 24 23 23 22 22 24 21 14 16 15
22 20 20 19 22 22 20 19 15 14 13 14 17 18 19 18 17 17 19 21 19 19 20 20 21 22 22 22 23 25 25 25 28 25 25 21 9 10 12 9 14 14 14
23 24 23 23 23 23 24 20 19 23 23 22 20 18 19 19 21 21 20 19 21 20 19 20 24 25 25 23 23 22 21 21 24 23 22 24 16 13 12 17 17 17 17
24 23 23 25 26 25 25 26 26 28 27 27 27 27 26 25 22 20 21 23 23 23 24 24 24 24 22 18 16 18 21 24 25 25 24 31 25 22 15 17 15 11 12
21 22 23 25 28 28 27 28 28 29 32 34 33 33 33 33 33 30 27 28 29 30 30 30 30 29 27 24 21 23 25 27 31 33 29 26 19 20 19 20 16 17 17
18 21 23 26 26 28 28 28 28 31 33 32 34 37 38 39 36 36 36 38 39 37 36 36 36 36 35 32 28 28 28 31 32 35 22 21 18 20 20 22 22 16 17

GFSMA_850_spd_084.txt.gz
Wind_Speed
10 9 12 11 15 14 16 14 14 10 10 8 13 11 9 11 12 14 16 15 11 8 7 7 8 7 8 8 7 8 8 8 8 8 7 7 7 7 7 6 6 5 4
9 11 12 10 13 12 11 11 11 11 10 6 8 10 7 8 9 10 11 13 14 10 8 9 10 9 9 9 9 9 10 10 9 10 10 9 9 9 8 8 7 5 4
12 7 11 11 11 12 10 10 9 10 11 8 6 6 5 2 4 7 9 11 13 13 12 12 12 12 11 11 11 11 11 11 11 11 11 11 10 10 10 9 8 7 5
11 10 8 9 9 10 9 7 9 9 9 12 9 7 3 3 3 7 9 10 13 14 15 13 14 13 13 12 13 12 12 12 11 11 11 11 11 11 10 10 9 8 7
9 9 9 8 6 7 9 10 10 7 9 7 4 2 5 4 1 6 7 11 10 10 12 13 13 14 14 13 13 12 12 11 11 11 12 13 13 13 12 11 9 9 8
15 8 12 11 7 8 9 8 6 5 4 4 2 3 4 5 5 1 6 9 9 10 8 9 12 12 12 12 12 13 13 12 12 11 12 13 14 14 13 12 10 9 8
13 8 10 12 10 11 8 7 6 5 5 2 1 1 3 5 8 9 3 4 6 7 8 5 5 8 10 11 11 13 14 13 12 12 13 15 15 14 14 13 11 8 8
16 13 10 9 7 8 9 9 6 3 6 3 2 1 2 3 2 1 5 3 5 3 7 9 10 9 9 11 12 12 14 15 13 13 15 16 15 15 15 14 12 9 6
15 13 14 11 10 12 11 10 7 5 6 3 2 2 0 2 5 5 2 5 3 2 3 6 9 9 10 10 15 14 15 15 16 16 18 18 16 16 16 14 13 10 8
15 12 14 14 11 13 12 9 7 7 6 2 1 2 4 5 1 4 5 4 7 5 1 2 1 4 8 9 11 15 16 14 16 18 21 21 18 17 17 15 12 11 10
14 10 14 11 12 9 10 12 9 6 5 2 1 0 4 7 3 3 6 8 8 8 3 1 3 0 4 8 8 12 16 16 14 16 19 21 22 19 18 17 14 12 10
11 10 10 12 10 13 12 12 11 9 5 4 2 5 5 6 7 6 6 8 6 7 4 1 1 2 3 7 7 12 18 17 13 13 16 19 21 22 20 18 17 14 11
13 13 13 13 9 14 13 16 15 11 8 6 5 2 3 4 4 9 6 10 9 8 7 5 3 4 3 6 8 14 21 16 13 11 13 15 17 20 23 21 19 17 14
12 15 16 11 11 12 16 16 18 15 13 11 9 5 4 2 1 4 7 5 8 9 9 8 7 6 5 6 10 15 17 17 10 10 11 13 14 17 21 22 22 18 17
13 13 14 11 10 13 13 15 16 18 17 16 14 10 9 6 1 1 3 4 4 4 3 2 5 7 7 5 9 14 15 15 11 10 11 12 13 14 18 20 22 19 18
10 12 17 15 14 13 12 11 13 15 16 18 18 16 14 12 8 4 2 1 0 0 1 3 4 1 5 7 13 17 19 11 12 12 12 12 14 13 16 17 18 19 19
14 12 15 12 14 16 15 12 10 13 17 19 16 17 16 15 13 10 8 6 6 7 6 5 7 8 12 15 17 17 15 8 9 13 11 9 12 13 14 16 16 16 18
15 13 10 15 14 17 16 15 12 13 13 11 16 17 16 13 13 13 13 13 11 9 12 15 15 15 16 17 16 16 11 12 15 13 15 14 16 15 12 14 14 16 15
20 19 17 14 15 16 17 15 12 11 16 16 15 16 17 17 17 16 16 18 16 16 15 17 18 18 20 17 16 17 15 15 13 14 15 18 21 20 17 12 15 17 15
20 20 20 19 18 16 18 17 16 14 15 18 17 15 15 19 20 19 18 17 21 22 23 23 24 25 25 23 22 17 15 14 15 16 21 24 24 20 18 18 18 14 16
24 24 22 18 18 19 18 19 20 19 18 18 18 18 17 15 16 16 14 11 11 14 18 21 23 24 24 23 20 20 23 26 25 26 27 22 21 18 9 8 9 12 14
23 21 23 22 21 21 20 20 20 21 19 16 16 19 19 20 20 18 17 17 17 18 16 16 17 19 20 20 20 23 25 26 27 23 23 23 18 15 12 11 12 14 15
19 20 24 23 23 24 22 22 21 21 21 20 20 19 18 19 20 20 22 22 22 21 21 21 22 21 21 19 19 21 19 19 23 23 22 27 23 22 17 16 13 11 13
19 22 25 27 26 25 24 24 23 24 26 27 25 25 27 25 23 22 21 23 25 25 23 23 24 25 24 21 20 19 20 24 27 26 24 31 27 17 14 15 15 11 10
26 22 25 26 29 28 26 24 27 29 28 30 31 32 31 31 30 28 29 31 31 31 29 29 30 30 29 29 28 28 27 28 31 33 32 30 20 17 15 12 10 15 16
18 21 24 26 27 29 26 27 28 28 30 31 30 31 32 35 38 36 36 36 38 38 35 34 35 36 35 34 32 32 30 33 34 39 36 26 27 24 28 23 17 17 16

GFSMA_850_spd_087.txt.gz
Wind_Speed
12 12 12 14 14 12 10 10 10 9 8 10 10 10 12 12 12 13 14 11 8 7 7 7 7 7 8 9 9 9 10 10 10 11 10 11 10 10 9 8 6 6 5
7 8 9 9 13 13 9 8 8 7 7 7 8 6 10 10 9 11 13 12 10 9 9 9 9 9 10 11 10 11 12 12 12 12 13 12 12 12 11 10 8 6 5
8 6 8 8 10 8 7 5 5 4 5 7 7 6 4 6 7 9 9 11 13 13 12 11 11 12 12 12 12 12 12 12 12 13 13 13 13 12 11 11 10 8 6
7 8 8 9 8 6 6 4 4 5 5 5 6 5 5 4 5 6 8 10 11 13 13 12 12 12 13 13 12 12 12 12 12 13 14 14 14 14 13 12 10 9 7
5 7 6 6 7 5 4 4 4 4 6 4 1 2 3 4 5 6 6 7 8 9 11 11 12 12 12 12 11 12 13 12 13 13 14 15 15 14 13 12 12 10 8
9 7 7 8 7 5 4 6 4 3 2 1 3 4 4 5 5 4 5 6 8 7 8 9 9 10 10 10 11 13 14 14 13 13 14 15 15 14 14 13 11 10 10
9 6 8 6 3 6 6 4 4 4 1 1 4 3 4 4 5 5 2 3 6 7 5 4 6 9 10 11 11 13 14 14 13 14 16 17 15 15 14 14 12 10 8
12 7 6 10 8 7 6 5 4 0 1 2 4 3 2 2 1 1 1 3 4 5 6 7 7 8 9 13 13 13 14 16 16 18 20 18 16 16 16 14 12 11 9
12 8 7 8 7 10 9 8 3 1 2 2 5 4 3 2 2 2 2 0 3 3 6 6 7 7 9 10 14 15 14 15 17 19 22 22 19 18 17 15 14 12 11
11 11 11 9 7 6 9 9 3 4 4 5 3 2 2 0 2 1 2 2 3 1 2 3 3 5 8 9 10 14 17 16 16 17 20 22 22 20 19 17 15 13 11
11 13 11 13 10 9 10 9 8 5 2 3 2 1 1 3 1 3 4 3 2 2 2 2 2 3 6 7 8 12 17 16 16 15 17 19 21 22 22 19 18 15 12
12 9 9 14 11 11 8 10 8 6 4 2 3 3 3 3 5 2 5 5 4 4 2 0 0 2 4 6 7 13 19 16 15 13 15 17 17 20 21 22 19 18 15
14 12 11 11 11 11 12 12 12 9 7 5 2 1 1 3 6 7 2 6 6 5 6 3 4 3 4 7 9 14 17 19 14 12 14 16 16 16 19 22 20 19 18
12 14 14 13 10 11 15 12 14 15 12 10 7 5 3 2 4 6 6 2 8 7 8 9 7 8 7 6 9 12 15 15 14 11 12 14 15 15 16 17 19 19 18
12 15 14 12 10 11 15 18 15 17 18 16 13 10 8 6 4 3 3 3 2 6 4 4 4 7 6 5 9 14 16 14 10 11 12 13 13 14 14 16 16 16 18
15 13 15 13 13 11 14 15 17 15 18 18 18 16 13 12 9 7 5 4 4 4 2 2 3 2 3 8 13 17 18 15 9 12 13 13 15 17 15 14 15 15 15
14 12 11 15 15 15 14 15 12 13 17 16 18 18 19 17 16 12 9 9 8 9 9 9 9 10 10 12 14 18 20 17 11 13 14 15 15 20 19 15 14 15 15
16 14 13 11 13 11 15 17 14 11 12 14 16 19 18 17 18 17 14 13 13 13 14 15 15 16 17 17 19 18 17 13 14 13 12 13 18 23 24 20 13 15 16
17 15 13 12 11 13 14 16 15 13 13 14 14 15 18 19 20 17 15 15 17 18 19 20 20 21 23 23 23 24 20 14 10 12 16 19 22 24 22 20 16 16 14
21 19 18 17 16 15 16 17 18 15 15 15 16 17 16 17 17 17 18 18 18 18 19 21 24 26 29 28 27 24 22 17 18 18 22 23 22 20 18 15 11 9 9
23 24 20 18 17 16 18 19 19 18 17 18 17 17 19 18 16 16 18 18 17 16 14 16 19 21 22 21 19 19 21 22 22 23 24 20 20 18 16 13 12 12 13
19 23 21 22 19 19 17 17 18 20 19 19 19 18 16 17 18 18 18 18 19 20 21 21 20 21 21 20 18 19 22 24 27 22 24 24 20 21 22 20 21 18 15
17 16 18 20 22 21 19 21 20 21 21 21 20 19 17 17 17 17 18 20 22 24 23 25 25 24 25 22 22 23 22 23 24 23 25 30 24 24 19 16 18 19 16
21 23 21 17 22 21 22 22 23 24 24 24 24 24 24 22 22 22 22 23 23 23 23 25 28 27 27 26 26 26 27 30 31 31 28 34 31 29 18 14 13 13 15
18 19 24 25 21 21 24 25 24 25 27 28 26 27 29 29 28 26 27 28 30 31 28 28 30 31 32 32 31 33 33 33 37 38 34 34 35 30 27 19 14 12 8
18 17 22 23 24 22 20 24 25 26 29 28 27 27 27 28 29 30 31 32 35 36 35 35 36 37 36 36 34 34 34 36 37 39 35 29 33 31 33 27 20 16 16

GFSMA_850_spd_093.txt.gz
Wind_Speed
14 14 13 11 9 9 10 10 10 9 8 11 11 10 12 13 13 13 11 9 9 9 10 11 11 12 13 14 14 14 13 13 13 12 12 11 10 9 9 9 8 6 5
9 9 8 9 8 8 8 7 8 9 9 7 7 8 11 12 13 13 13 13 12 13 13 13 14 14 14 14 14 14 14 14 14 13 13 13 12 11 9 7 7 7 6
9 9 7 8 8 7 6 6 8 7 8 10 10 10 10 11 12 13 13 13 14 14 14 14 14 14 14 14 14 14 15 15 15 15 15 14 14 12 10 9 8 7 6
8 8 8 9 6 6 5 6 7 8 9 10 10 10 9 10 10 10 11 12 13 13 13 14 13 13 13 14 14 15 16 16 16 16 15 15 13 13 13 11 9 8 7
8 8 8 8 6 5 4 6 6 7 7 7 8 8 8 8 8 9 10 10 11 11 12 11 10 11 12 13 15 16 16 16 18 18 18 16 14 13 12 11 10 9 7
6 4 5 7 6 5 7 6 5 4 4 6 6 7 7 6 5 5 7 9 9 9 9 8 9 10 11 13 14 15 16 17 18 21 22 19 17 15 13 12 11 10 8
6 5 5 7 4 5 7 4 4 3 4 7 6 5 7 7 6 6 6 7 7 7 7 9 10 11 12 13 14 14 14 15 17 19 21 22 21 19 17 14 11 10 9
6 6 8 6 5 8 5 4 4 3 5 8 8 6 5 5 5 5 4 5 5 6 8 8 8 9 10 12 13 14 14 14 14 17 19 21 22 22 19 18 14 11 9
8 5 6 7 6 5 4 3 3 3 5 8 8 6 3 4 5 4 2 3 6 7 8 6 6 6 7 9 11 14 14 14 13 15 17 18 20 22 22 20 18 14 11
7 9 6 8 5 6 5 5 2 2 4 7 5 7 7 8 4 3 4 2 6 5 4 2 3 5 7 9 11 12 15 15 13 13 15 16 18 20 21 21 20 17 14
5 10 10 9 6 5 6 7 4 1 3 5 7 6 7 8 10 5 2 3 4 3 2 0 2 3 6 9 11 14 17 17 15 14 14 15 16 17 19 19 20 19 17
7 10 11 11 9 6 6 6 6 4 2 2 5 7 6 7 9 7 3 3 2 1 1 2 2 3 5 6 9 12 16 18 18 16 14 16 16 16 16 17 18 19 20
5 9 11 11 11 7 6 5 8 6 3 2 1 3 4 5 7 9 9 4 2 2 3 4 4 5 5 7 8 11 14 18 19 17 16 16 14 15 16 16 16 16 16
5 7 10 9 12 10 7 9 9 9 7 5 4 3 2 2 4 6 7 8 3 2 4 5 6 6 7 6 9 13 15 18 20 18 16 16 15 14 15 16 15 15 15
7 6 9 8 10 11 10 9 11 11 11 11 9 8 7 5 3 4 5 6 6 4 3 3 3 6 6 8 11 14 18 19 20 19 15 16 17 16 17 19 17 15 14
11 9 9 10 9 9 10 10 10 13 12 12 13 13 12 11 9 6 6 7 6 6 4 5 5 8 10 12 14 17 19 22 22 19 17 17 16 18 20 21 19 16 14
9 11 12 11 13 12 12 12 10 12 14 14 14 14 14 14 13 13 12 11 12 10 8 9 13 14 15 17 19 20 21 21 17 19 18 17 17 19 22 22 20 18 15
9 7 8 11 11 12 13 13 12 11 12 11 11 13 14 14 15 15 14 15 14 16 14 16 15 17 20 20 22 22 23 19 18 20 20 21 21 21 20 19 18 16 14
14 12 10 10 10 8 10 11 9 11 12 12 13 12 12 13 13 15 15 16 16 18 18 16 15 20 22 21 23 22 20 18 16 18 19 19 18 17 16 16 17 19 17
15 13 14 13 10 10 9 9 10 11 13 12 12 12 11 11 12 12 13 15 16 18 17 17 14 15 17 19 20 17 16 15 17 18 17 17 14 15 16 16 17 22 19
13 12 12 14 14 12 13 13 12 12 13 13 14 14 14 14 12 14 16 16 16 15 14 15 16 17 16 15 15 16 17 17 18 21 20 18 17 20 19 19 19 22 19
13 11 9 11 14 16 16 15 14 14 15 16 15 15 16 16 17 16 16 16 16 17 17 16 17 18 20 18 16 16 17 18 21 17 27 26 20 23 21 19 22 20 18
6 7 8 7 8 13 16 16 16 16 16 15 16 16 16 15 16 17 16 14 17 17 18 18 21 21 21 21 21 21 19 21 23 24 26 28 24 23 21 20 21 19 17
10 8 7 9 9 10 10 11 15 16 17 18 18 17 18 18 18 19 20 21 21 20 21 22 24 25 25 25 26 24 27 30 31 24 22 26 21 25 23 22 20 17 15
9 9 13 13 13 14 12 13 10 11 14 17 19 18 19 20 23 23 24 25 24 25 23 25 27 29 29 29 29 30 29 23 27 25 20 24 24 21 23 24 18 17 17
6 7 6 9 12 14 17 19 17 15 12 13 16 18 23 24 25 24 24 25 25 22 24 25 27 29 29 30 29 30 30 26 27 28 21 19 21 22 23 18 17 22 23

GFSMA_850_spd_096.txt.gz
Wind_Speed
12 10 10 8 7 7 8 8 8 8 9 8 8 9 9 9 10 8 6 10 11 12 12 13 14 14 14 14 13 13 12 12 12 12 11 10 9 8 8 7 6 5 5
9 7 7 7 6 6 6 7 7 8 8 6 7 7 9 9 9 10 8 11 13 14 14 15 15 14 14 14 14 13 14 14 13 13 13 12 11 9 8 8 8 7 6
8 7 5 6 6 6 7 7 8 9 8 7 7 7 7 7 6 7 8 7 10 14 14 14 14 14 14 15 14 14 15 15 14 14 14 13 12 10 10 9 8 8 8
8 7 6 6 4 5 6 6 7 8 8 7 6 6 5 6 6 6 6 7 7 6 12 12 12 13 14 14 15 15 16 16 17 16 15 14 14 14 11 10 10 8 8
8 7 6 5 4 4 5 6 6 6 6 5 4 4 4 5 5 4 5 6 5 6 6 9 11 13 13 13 14 14 15 16 17 19 19 17 16 16 15 12 11 10 8
8 6 4 6 6 4 5 5 6 4 4 3 4 4 4 3 4 4 4 5 4 5 5 8 7 7 12 13 13 14 14 15 16 18 19 21 20 18 17 14 11 10 9
6 7 5 5 4 5 6 4 4 4 4 3 3 4 4 5 5 4 4 4 3 4 5 6 8 7 6 13 14 14 14 14 14 16 18 20 22 21 19 16 12 11 9
7 5 9 5 6 5 4 4 5 4 4 5 3 3 5 6 4 3 3 4 4 5 4 5 5 7 7 8 10 13 14 12 13 15 16 18 20 22 21 20 16 12 11
8 8 10 8 7 8 3 4 3 4 3 4 6 3 3 4 3 2 3 3 5 5 4 3 3 4 7 7 10 11 16 14 13 14 15 16 18 20 20 21 20 16 14
9 9 8 10 9 7 6 4 2 4 5 3 3 5 7 5 1 6 3 2 4 3 2 2 2 4 6 6 8 15 17 18 15 13 14 16 16 16 18 18 19 19 16
8 9 10 10 8 6 8 6 4 4 2 4 3 3 4 4 5 1 4 4 3 2 1 1 0 2 4 5 7 10 15 18 17 16 15 16 15 16 15 16 17 17 17
6 9 10 11 9 8 6 5 6 4 4 3 3 4 3 3 4 3 1 2 2 2 1 0 1 2 3 5 6 10 12 15 18 17 15 15 13 13 15 15 16 16 15
8 9 12 11 10 10 7 7 8 6 5 3 4 1 2 2 3 4 3 1 2 1 1 1 2 3 3 5 7 11 12 16 17 17 14 13 14 14 13 16 17 16 15
6 9 11 10 12 11 8 8 6 7 7 3 4 4 1 1 2 3 3 2 3 3 3 2 3 3 4 4 8 11 11 16 18 17 15 13 14 14 15 17 18 18 16
7 7 10 9 11 14 11 9 8 10 10 8 7 7 5 5 3 2 3 3 2 5 3 1 4 5 5 7 11 13 14 19 20 19 16 15 15 15 17 18 18 17 16
9 9 9 9 9 10 12 11 9 11 11 8 9 11 11 8 8 6 5 5 4 5 9 4 7 8 8 9 12 18 16 19 22 21 23 17 16 16 18 20 18 16 16
10 11 10 11 11 11 10 11 11 10 11 11 11 11 11 13 11 11 10 9 9 9 11 13 10 12 14 12 16 19 17 17 17 22 25 19 17 17 18 18 16 14 15
10 8 10 11 11 10 11 13 11 10 9 11 10 10 12 11 13 14 13 13 13 12 14 16 16 16 15 16 16 18 17 16 16 15 22 19 16 15 14 15 15 15 17
12 10 10 8 8 10 9 11 10 10 10 10 9 11 10 11 12 12 14 14 15 15 16 17 19 17 17 18 17 17 17 15 14 16 18 18 19 14 14 15 15 16 19
15 12 11 12 11 9 9 9 10 10 10 10 11 10 10 11 12 12 11 13 13 15 16 18 18 18 18 17 17 16 17 15 16 17 16 15 19 19 20 18 15 16 18
10 11 12 11 12 12 11 13 13 12 13 13 11 11 11 13 15 13 12 13 15 15 15 15 17 16 16 15 14 17 17 17 19 17 18 16 17 17 17 18 17 19 25
11 10 9 11 11 12 17 14 14 13 11 13 13 13 13 16 16 16 17 18 19 19 17 16 16 17 19 17 15 17 17 18 20 16 19 22 20 21 19 17 20 24 20
9 11 9 6 15 18 16 17 17 15 13 13 12 12 11 11 14 14 14 17 19 18 18 20 22 20 21 20 20 20 20 21 22 24 25 24 20 18 18 19 23 23 17
10 9 9 11 11 11 9 9 12 13 12 12 12 13 13 14 20 19 16 15 16 18 19 20 21 23 22 22 21 22 26 27 25 23 21 26 23 24 21 19 23 24 14
17 14 11 15 13 14 12 9 9 6 7 8 15 17 17 19 21 20 20 20 17 18 18 20 20 24 26 27 27 28 25 24 28 26 22 25 25 26 23 22 21 21 23
12 9 12 12 11 14 14 15 14 12 13 5 8 12 14 15 17 19 20 21 23 21 24 25 26 29 27 25 23 21 21 22 24 27 22 23 25 23 26 22 17 18 22

GFSMA_850_spd_102.txt.gz
Wind_Speed
9 6 4 8 16 14 11 8 6 7 13 11 11 9 11 11 3 12 11 12 13 13 14 14 14 14 15 15 15 14 13 13 12 11 10 9 9 8 8 8 7 7 7
9 7 8 3 10 8 8 8 17 13 13 11 8 11 7 8 8 6 16 14 14 13 13 14 14 15 16 17 17 17 17 17 16 15 13 12 10 9 9 9 8 8 8
8 14 9 12 8 9 11 14 11 11 10 7 13 10 8 8 12 1 7 9 15 14 13 14 15 16 16 16 16 17 18 18 19 19 18 16 14 13 11 9 9 9 7
6 6 4 8 3 2 4 7 3 8 6 8 9 8 5 5 12 11 4 3 4 11 13 15 16 16 15 15 15 15 17 18 18 19 20 20 19 17 14 12 10 10 9
13 11 5 8 8 4 10 6 6 7 4 8 7 8 6 3 7 3 10 5 4 2 7 12 16 18 19 16 15 15 15 16 17 18 19 20 21 21 19 17 14 12 11
5 7 4 9 12 6 6 9 6 5 7 4 4 6 5 4 7 1 8 6 9 8 3 6 4 9 13 17 17 14 13 14 16 16 17 18 19 20 21 19 17 16 14
9 9 6 6 9 10 7 12 8 8 5 1 3 6 4 6 8 2 4 7 3 8 2 9 6 5 6 13 15 14 13 12 13 15 16 17 17 18 19 19 19 18 17
6 8 4 5 4 6 6 10 6 7 2 2 6 7 7 9 6 7 5 7 5 3 3 4 4 5 1 5 11 14 14 14 13 13 14 15 15 16 17 17 18 18 18
8 8 8 9 3 5 3 4 3 7 5 2 4 4 2 3 10 6 8 7 8 7 5 2 5 9 7 3 5 11 11 14 13 13 13 14 14 15 16 16 16 16 16
7 6 8 9 3 8 8 4 3 5 3 2 0 5 5 1 3 7 4 6 6 7 6 8 9 2 6 9 4 8 8 11 14 14 14 14 15 14 15 15 16 15 14
9 9 8 9 10 8 8 11 7 5 2 0 4 2 5 6 5 2 11 8 6 9 3 4 6 5 3 4 5 6 8 10 13 17 16 16 16 15 14 14 16 16 15
7 8 9 7 5 6 6 4 6 8 5 2 2 5 8 5 8 4 3 3 7 9 7 5 4 3 4 11 5 11 10 11 15 21 17 15 20 18 15 15 16 17 15
14 13 13 11 7 6 6 9 7 9 7 6 3 3 5 3 14 10 12 8 17 6 3 9 9 6 4 10 6 11 12 14 17 20 18 18 21 22 17 15 16 17 15
9 6 10 11 11 8 9 5 3 2 5 7 9 9 2 2 7 8 12 9 13 17 25 14 13 19 24 19 12 8 15 16 19 17 20 20 22 23 18 15 15 16 14
9 5 5 9 9 4 6 6 2 5 10 11 5 9 11 7 9 7 6 10 12 8 12 11 16 15 19 15 11 10 19 25 21 14 19 17 21 22 18 14 14 13 13
8 15 10 10 10 10 12 13 10 6 12 11 5 13 10 13 14 4 9 11 12 14 13 10 9 9 5 9 14 19 23 25 13 18 19 15 19 20 21 17 15 14 13
0 8 9 9 9 10 15 15 13 14 10 11 15 14 11 9 15 17 13 10 10 13 13 9 14 16 20 18 17 22 22 19 17 14 16 16 19 18 19 18 18 18 17
8 6 9 13 15 15 12 15 12 10 10 12 12 10 11 16 12 11 11 13 14 13 14 14 12 12 15 18 19 18 21 19 18 17 20 20 18 18 18 20 19 18 17
13 10 10 10 13 16 16 15 13 12 16 10 9 9 10 9 11 11 13 16 17 13 13 14 17 15 17 22 19 17 11 13 13 16 18 20 22 17 22 19 22 21 17
15 11 12 11 10 8 9 11 11 9 10 9 11 10 11 12 14 13 11 10 8 13 10 11 13 16 16 5 8 13 15 13 13 16 14 16 18 21 23 21 22 21 17
16 16 13 13 14 15 14 11 11 9 9 10 11 11 11 14 12 13 13 13 14 16 15 15 18 17 17 21 21 19 19 20 21 22 17 18 20 15 12 15 14 17 21
18 18 15 17 19 19 14 13 12 14 12 11 12 11 10 12 13 12 10 11 13 15 17 17 16 17 17 18 21 21 21 23 25 24 27 19 16 21 22 22 21 22 22
13 14 14 15 14 14 12 13 13 15 15 15 13 13 13 14 14 13 16 13 13 13 13 15 17 18 21 19 20 22 22 23 28 28 20 26 27 27 25 15 15 20 23
11 11 14 16 12 12 12 12 11 10 11 12 15 14 15 16 16 16 16 17 17 17 17 17 19 21 21 23 24 25 26 28 29 23 22 25 21 21 24 26 23 20 21
8 8 9 12 9 7 7 8 7 4 4 9 8 9 14 15 15 15 16 17 18 17 15 17 18 20 21 24 22 21 20 18 23 24 21 19 25 27 28 26 21 18 19
6 8 13 15 17 14 11 10 11 11 11 10 12 8 9 10 11 10 10 12 14 16 16 16 18 19 13 12 14 18 22 24 23 24 20 19 28 32 37 32 27 25 21

GFSMA_850_spd_105.txt.gz
Wind_Speed
9 12 15 13 10 12 12 12 13 15 12 12 10 13 8 4 11 11 13 14 13 13 13 14 14 15 15 15 15 14 13 12 11 10 9 8 7 6 6 6 5 5 6
9 8 6 11 9 9 13 10 14 14 12 11 9 11 11 3 6 15 16 14 13 13 14 15 16 16 16 16 16 15 16 16 15 14 13 12 10 9 7 6 5 5 5
11 12 11 6 5 3 1 2 8 11 12 14 11 6 9 7 7 5 8 11 15 14 15 15 15 15 15 15 15 15 16 16 16 17 17 16 15 12 10 9 8 7 6
12 8 11 7 0 7 3 5 4 6 5 8 12 7 8 9 7 5 4 4 8 14 17 18 18 16 14 13 13 13 14 14 15 16 17 18 19 18 16 13 10 9 8
8 9 8 2 5 1 4 4 6 6 7 5 7 5 3 4 7 4 2 3 6 7 7 8 12 15 17 14 11 11 12 13 13 13 14 16 17 18 19 17 15 13 11
6 9 4 7 6 12 6 6 6 7 7 7 6 8 3 4 2 7 6 7 8 8 7 6 5 7 12 14 13 11 10 11 12 13 14 14 15 16 17 17 17 16 15
12 4 3 8 9 8 6 3 7 4 7 3 8 9 6 4 3 1 3 7 2 3 5 7 4 4 5 10 14 14 13 12 12 13 13 13 14 14 14 15 16 15 15
5 5 3 3 4 5 5 7 5 7 4 5 5 7 3 6 9 4 4 4 2 2 3 4 4 5 6 5 8 12 14 15 14 14 14 14 14 14 14 14 15 14 14
4 7 4 4 7 5 4 6 5 6 2 4 4 5 1 3 8 8 5 7 7 8 5 7 3 2 6 5 5 10 12 15 16 18 18 16 15 14 14 14 15 15 14
5 4 2 6 4 5 8 6 4 3 5 5 2 1 4 4 0 4 7 6 6 4 9 10 11 9 7 5 1 8 13 16 17 22 20 18 18 17 15 13 15 15 14
8 5 4 5 6 6 9 6 1 2 3 7 6 3 2 1 11 4 2 8 4 6 6 7 10 14 4 11 4 6 5 13 19 22 20 19 21 21 15 14 14 15 14
13 10 8 10 10 9 4 8 6 3 5 4 7 6 5 6 5 13 7 9 5 5 2 9 8 3 6 4 22 11 6 9 15 24 21 21 23 23 18 13 13 15 14
10 11 13 13 7 7 8 7 5 8 7 4 6 4 6 12 7 3 6 10 12 6 13 10 15 14 18 16 17 19 10 12 17 25 22 22 21 21 18 13 12 13 12
6 12 13 11 9 6 5 2 9 6 8 9 4 1 2 6 10 10 10 8 9 10 13 14 19 14 19 15 9 8 15 18 23 23 17 18 17 18 19 15 13 12 10
6 10 10 11 15 10 7 7 5 6 9 8 9 8 3 5 5 7 7 9 9 5 9 9 6 12 8 6 10 10 14 18 21 16 16 17 15 16 18 17 14 13 12
2 6 8 5 11 9 8 10 11 9 8 7 7 12 9 9 13 9 8 8 10 9 9 8 7 12 13 10 9 12 14 17 19 16 16 17 15 14 16 16 16 17 15
1 4 11 11 11 8 12 15 15 15 12 11 10 13 15 14 10 10 12 13 11 8 8 7 7 10 14 14 16 18 18 18 20 18 21 16 14 13 14 17 17 18 17
7 6 8 10 10 11 13 13 12 11 12 12 10 9 12 12 11 11 12 10 9 9 9 9 10 12 15 20 19 17 17 14 14 10 11 14 13 9 16 12 18 21 21
5 6 7 5 8 13 15 14 15 13 13 14 9 9 8 7 9 12 11 11 14 15 14 11 10 10 13 4 7 8 5 10 15 15 15 18 18 16 15 20 16 14 16
12 10 9 9 7 10 11 14 13 10 10 11 10 10 10 10 11 10 9 7 9 10 9 10 10 10 15 13 19 19 18 18 18 18 19 17 17 17 12 12 14 15 17
14 14 11 12 14 10 10 13 9 8 8 11 11 11 11 12 10 10 10 10 12 15 13 12 14 16 16 16 18 19 19 19 17 17 19 14 8 14 14 18 16 16 13
19 17 15 14 14 13 11 10 8 11 11 9 9 8 12 15 12 10 9 7 9 9 8 10 9 9 11 12 14 16 18 21 25 19 23 13 14 14 17 17 22 18 10
8 14 14 13 12 11 12 10 9 10 12 13 15 14 13 14 14 12 10 8 9 10 11 12 13 13 15 14 17 20 21 22 24 21 19 21 19 19 19 19 19 18 15
7 9 12 15 14 14 12 11 10 11 12 15 14 14 13 12 13 13 13 11 11 12 14 15 16 15 15 16 18 18 17 18 17 18 19 21 17 21 23 20 19 17 15
8 8 11 11 8 7 7 7 8 7 9 10 9 11 10 10 10 10 10 10 10 9 10 11 12 13 12 8 11 13 14 18 21 19 14 19 23 27 26 21 16 17 17
11 10 10 7 7 8 8 9 9 11 10 11 10 10 9 9 9 7 8 9 10 9 9 8 6 4 5 4 7 5 6 10 13 18 18 22 22 25 31 20 24 20 21

GFSMA_850_spd_108.txt.gz
Wind_Speed
7 11 14 12 9 9 11 9 11 12 11 8 6 6 4 7 11 11 10 10 9 10 11 12 13 13 13 13 13 13 12 11 10 9 9 9 7 7 7 7 7 7 7
6 8 11 11 10 8 6 6 10 10 8 5 4 2 5 5 12 15 13 10 11 12 13 14 14 13 13 13 13 12 13 13 13 12 12 12 11 10 8 7 7 7 7
6 9 8 6 3 5 8 3 3 5 9 8 8 4 1 5 4 6 9 13 13 15 14 13 12 12 12 12 12 12 13 13 14 14 14 14 14 13 11 10 8 7 6
9 3 4 7 15 11 5 1 1 6 9 9 6 5 3 4 5 6 5 7 11 15 15 16 16 13 12 11 11 12 13 13 13 13 14 14 14 15 14 14 12 10 8
7 6 6 5 5 3 5 3 8 1 5 6 4 4 5 3 5 3 6 6 6 4 7 9 10 13 15 13 12 12 12 13 13 13 14 14 14 14 14 14 14 14 12
8 8 6 6 3 9 6 7 5 4 1 4 4 6 4 2 1 3 9 9 8 9 7 8 8 8 12 14 14 15 15 14 15 15 16 15 15 14 13 13 14 14 14
5 3 6 9 7 8 6 6 4 8 7 4 1 6 8 7 8 3 2 3 4 6 6 9 7 5 8 11 14 15 15 16 17 20 19 18 17 16 14 13 13 13 12
8 4 7 9 8 7 4 3 5 7 6 4 2 5 3 6 7 11 5 6 2 4 5 5 5 5 3 4 6 7 10 12 14 19 20 20 19 18 16 14 13 13 12
5 5 4 3 6 5 2 4 6 7 4 3 4 3 2 3 6 9 8 13 12 11 9 7 7 8 6 6 6 9 8 11 14 16 18 19 21 21 17 14 14 14 13
7 6 5 6 5 6 7 5 3 7 6 3 3 4 4 1 3 5 6 3 3 6 8 11 13 12 9 8 14 13 14 11 12 17 18 18 22 22 19 14 14 14 14
10 9 3 6 6 6 8 6 5 3 4 4 7 1 2 2 3 2 5 4 3 6 6 7 10 10 12 12 16 15 13 14 17 19 20 19 22 23 22 14 13 14 14
15 11 10 7 4 9 7 8 9 5 2 2 5 6 6 2 3 3 4 6 7 5 5 8 13 8 7 13 11 12 17 14 19 22 21 18 20 19 19 15 11 13 13
18 16 14 11 6 9 11 7 7 8 5 4 0 1 6 9 4 2 5 6 10 8 7 14 12 11 16 14 19 16 15 11 18 18 15 17 16 15 16 14 12 12 11
12 18 18 17 11 9 10 9 7 5 8 6 7 3 1 2 4 7 4 6 9 8 7 10 9 6 9 8 10 11 10 12 14 15 17 15 17 16 13 15 14 14 12
10 12 15 15 12 11 11 9 6 8 8 8 6 8 7 5 4 5 5 5 6 7 7 7 4 6 9 14 8 10 11 12 14 18 20 19 16 13 10 11 13 15 16
7 10 12 9 9 13 11 10 9 8 11 8 8 10 9 9 8 9 8 6 4 4 5 7 6 7 8 11 12 13 13 14 13 16 16 13 13 11 8 11 13 14 15
8 11 13 12 9 13 11 11 13 15 14 12 10 10 13 11 10 11 9 6 2 2 3 7 8 7 10 12 13 13 13 9 12 9 8 11 13 11 6 8 11 16 16
10 7 6 10 12 14 13 12 13 15 15 15 12 10 11 12 12 12 10 12 12 11 10 11 11 12 13 12 8 6 7 6 5 15 15 17 17 16 15 13 16 14 13
10 10 9 8 10 15 15 14 13 11 12 11 12 10 9 9 9 10 11 11 11 11 12 12 12 10 8 9 12 13 14 13 14 15 14 15 15 14 12 12 13 11 14
11 10 11 11 10 10 13 14 13 11 12 12 12 12 11 10 12 12 11 7 8 8 8 11 11 13 14 14 15 18 19 14 13 11 12 13 9 8 9 9 8 8 13
18 18 16 15 13 11 9 10 8 7 9 10 9 10 13 10 11 10 13 12 13 13 12 11 11 11 11 12 13 13 15 15 15 16 14 13 8 10 7 9 9 15 11
17 18 19 17 13 12 10 8 8 7 9 9 11 12 13 12 11 11 11 12 11 12 11 11 11 12 13 13 14 14 16 18 19 14 15 11 11 10 11 13 14 12 11
14 17 20 19 16 14 11 7 5 9 11 14 12 13 12 12 13 12 11 11 11 13 14 15 15 15 16 13 14 15 14 13 12 12 18 14 12 13 14 15 14 12 11
9 9 11 12 12 12 10 15 14 11 12 13 13 12 12 13 12 11 10 11 12 14 14 14 14 13 13 14 15 15 13 14 14 11 9 15 16 17 17 15 10 14 12
8 8 9 11 11 9 8 8 8 8 9 8 9 10 10 9 8 7 6 6 8 9 10 9 9 11 10 11 12 11 10 12 10 6 6 15 18 23 23 18 7 19 14
8 8 8 8 8 7 6 7 8 10 10 8 9 8 8 8 8 8 8 8 8 8 8 6 7 7 7 7 7 8 8 11 12 7 15 17 18 23 25 9 23 22 21

GFSMA_850_spd_111.txt.gz
Wind_Speed
10 9 10 8 9 11 10 9 8 8 6 5 9 10 7 12 12 11 11 9 10 10 10 11 12 12 11 11 11 12 12 13 13 13 13 12 12 11 11 10 10 11 11
7 8 6 6 8 8 5 6 9 7 6 5 3 6 10 12 14 15 10 11 12 11 10 11 11 11 11 11 11 11 12 13 14 15 15 16 15 14 13 12 11 10 9
9 8 7 8 8 6 7 6 5 5 5 4 5 6 5 8 8 9 12 11 13 13 11 10 10 9 9 9 10 11 11 12 13 15 16 16 16 16 16 15 13 12 10
9 7 8 10 11 7 5 6 5 5 5 4 2 4 4 5 5 6 7 11 12 11 13 13 14 13 10 9 10 11 11 13 14 14 15 15 16 16 16 15 14 14 13
7 5 7 14 7 8 7 9 9 4 2 2 2 3 3 3 2 2 6 8 5 5 7 8 9 10 11 11 11 10 11 11 12 13 15 16 17 16 15 15 14 14 15
4 5 3 7 7 7 7 5 6 3 1 3 2 4 3 1 2 4 8 6 5 6 6 5 5 4 5 7 8 10 11 13 15 16 16 16 17 18 17 15 14 14 13
5 6 4 5 7 4 5 6 3 6 4 1 2 3 4 7 7 3 3 2 1 3 4 4 3 3 5 5 7 9 10 12 15 19 19 17 18 18 19 16 14 14 13
6 4 5 8 7 5 4 5 3 5 2 2 2 2 2 4 6 10 4 6 6 7 8 6 6 5 6 9 9 10 10 11 15 18 19 18 18 19 20 18 15 14 13
7 5 6 6 8 6 6 4 4 5 3 2 4 3 2 2 0 4 7 10 11 11 12 9 8 8 8 11 12 11 11 12 14 18 21 21 20 19 19 20 15 14 14
9 8 4 6 7 7 8 7 3 4 5 1 0 2 2 2 1 3 4 6 7 9 10 8 10 14 12 10 12 16 11 13 15 19 22 20 20 20 17 19 16 14 15
10 11 8 7 7 7 10 8 5 4 3 2 3 1 2 2 2 1 5 8 8 7 6 8 8 9 8 8 10 10 13 13 13 19 18 16 18 18 16 16 15 14 14
14 11 11 9 8 8 10 10 9 5 3 0 3 2 3 3 4 1 0 4 9 9 7 7 11 10 10 12 13 15 14 9 12 14 16 16 18 17 16 14 13 13 12
19 16 14 12 10 9 11 11 11 10 7 5 2 2 2 4 5 4 4 5 7 7 7 8 9 8 11 11 10 14 13 4 10 13 15 17 17 16 13 13 14 13 13
18 19 18 16 13 10 12 14 11 9 8 8 8 5 3 1 0 4 4 6 7 5 5 6 6 7 9 10 9 10 11 10 10 13 16 12 14 13 10 10 12 13 14
14 14 19 18 16 13 13 13 11 9 8 9 9 8 6 5 5 5 6 8 8 8 9 9 8 8 6 9 11 11 13 13 12 13 14 13 12 11 6 9 10 12 14
12 15 15 17 17 15 14 14 12 9 7 8 8 9 9 8 5 6 8 8 9 10 8 9 9 8 7 11 14 16 13 11 11 15 8 10 14 14 10 9 9 12 15
9 10 12 15 13 13 16 15 12 10 10 10 10 10 10 10 10 8 9 11 9 9 10 10 11 11 11 14 15 15 14 14 11 9 10 16 18 18 13 13 13 16 16
11 8 13 16 13 12 16 15 15 14 14 14 12 11 10 10 11 10 9 9 10 12 15 16 15 14 15 16 14 11 9 11 15 18 19 20 19 18 13 10 10 11 11
12 11 10 10 12 14 17 18 16 13 12 11 11 12 10 10 9 9 9 10 12 11 11 12 12 12 13 13 13 13 14 17 17 15 13 13 10 6 4 4 6 9 10
12 11 10 10 12 12 15 18 16 15 14 15 14 14 14 11 9 9 11 11 11 12 11 12 15 14 14 14 15 16 17 16 12 11 12 10 6 4 3 5 8 9 9
18 15 14 16 16 15 13 11 11 12 12 13 14 14 11 10 9 9 10 11 12 14 15 14 12 12 12 12 13 14 15 16 15 12 10 9 7 6 7 9 10 10 11
13 13 17 17 16 14 12 13 12 13 12 11 10 12 13 12 9 12 12 14 14 14 13 13 12 13 13 14 15 14 15 17 17 11 14 11 8 9 11 13 11 10 10
19 18 19 18 18 16 15 12 10 10 12 12 12 11 12 11 12 13 14 15 14 13 12 14 15 15 15 14 16 15 14 13 12 13 13 10 12 12 15 15 8 11 12
15 13 12 12 14 14 16 17 19 17 9 14 15 15 16 13 13 12 12 13 13 12 13 14 14 13 14 13 14 14 12 10 7 10 13 14 17 17 17 14 9 10 15
11 10 10 10 9 9 10 11 12 10 11 12 14 15 14 11 10 10 9 10 11 10 9 10 11 11 11 12 12 10 8 9 7 10 11 15 19 20 20 13 9 15 16
7 9 9 8 8 8 8 7 8 10 9 9 9 8 8 8 9 10 10 10 10 10 8 9 9 10 11 11 12 13 12 12 11 11 13 15 15 21 19 10 13 22 18

GFSMA_850_spd_114.txt.gz
Wind_Speed
6 8 8 10 12 10 9 7 5 4 4 8 13 12 14 14 11 11 11 12 12 11 11 11 11 11 12 12 12 12 13 13 13 14 15 15 15 14 12 11 10 10 12
7 8 7 8 8 8 5 8 8 6 5 6 9 13 15 15 15 12 12 13 12 12 10 10 10 11 11 11 10 10 10 12 12 12 11 12 13 14 14 15 14 12 10
8 7 7 8 7 5 5 5 4 5 6 8 9 6 10 11 11 12 11 13 13 12 12 10 9 9 8 8 8 9 10 11 12 12 12 12 13 13 13 14 14 14 14
8 6 6 8 6 6 4 4 5 6 7 9 8 6 7 8 8 9 10 11 11 10 9 9 10 10 9 8 8 9 11 12 13 12 12 13 13 12 12 12 13 14 14
7 7 7 11 8 8 9 8 6 7 6 6 6 6 6 6 4 5 7 6 2 1 3 4 5 6 7 7 8 9 10 11 15 15 15 14 15 16 13 11 11 13 13
5 7 8 8 8 8 8 7 6 5 4 3 1 2 1 3 4 4 4 3 2 0 2 2 3 4 4 6 7 8 9 10 13 16 16 16 17 17 17 12 10 11 12
3 4 7 4 7 6 6 4 4 6 4 3 3 1 1 1 1 6 5 3 3 3 3 3 3 3 4 6 7 9 9 10 13 15 17 17 16 17 17 14 10 10 12
5 5 5 6 5 3 3 3 3 3 1 3 2 2 1 2 4 5 5 5 5 5 5 6 5 6 7 9 9 8 11 10 12 15 17 17 16 17 16 15 11 9 12
7 4 4 7 6 4 5 3 3 2 2 4 3 0 1 1 2 5 5 6 7 8 8 8 8 9 11 12 9 8 10 9 12 15 17 15 17 18 16 15 11 9 11
9 7 6 6 5 8 7 7 4 3 1 2 1 1 2 1 2 3 5 5 5 6 7 7 9 9 11 8 9 11 12 11 11 13 13 13 16 19 17 14 12 10 10
10 9 8 5 7 6 8 8 6 3 2 1 3 4 3 3 3 4 6 7 9 11 9 8 8 11 10 9 9 13 13 8 6 8 12 11 15 18 17 14 12 11 9
12 10 10 7 8 7 8 9 7 5 5 2 1 1 2 4 5 4 3 5 6 10 12 10 10 10 9 11 10 9 12 9 8 10 11 13 13 13 14 14 14 13 11
15 13 11 11 8 8 9 10 10 10 10 7 4 2 1 3 3 4 4 5 7 8 8 5 8 6 4 8 8 10 10 4 9 10 12 11 13 13 11 10 12 13 13
16 17 15 13 12 12 10 13 11 11 14 12 10 8 4 3 2 2 3 5 7 5 6 7 6 7 7 7 11 13 14 13 12 11 11 12 14 11 8 10 10 12 13
13 16 18 18 16 14 12 13 14 12 11 10 11 10 10 9 8 7 6 6 7 7 11 10 9 10 10 10 12 17 18 14 11 10 14 8 12 14 16 10 11 10 13
14 15 16 17 18 16 15 14 14 12 10 9 9 11 11 10 9 8 7 6 8 9 10 11 11 10 10 12 14 18 17 14 9 11 13 14 17 20 19 17 16 15 14
9 12 14 14 17 17 17 18 16 14 13 11 10 10 11 12 12 12 11 10 9 10 13 14 15 14 14 13 13 14 13 12 12 13 16 19 19 18 16 14 14 14 14
12 12 12 14 16 15 15 17 17 15 16 16 15 15 13 11 11 12 13 11 10 12 13 14 14 14 15 14 13 13 13 14 17 18 19 16 15 11 9 6 8 9 9
14 15 13 12 16 18 16 14 16 15 16 17 16 15 15 15 13 12 11 10 10 11 11 11 12 13 14 13 13 12 13 14 15 15 13 13 11 9 7 8 9 10 9
16 17 16 14 14 15 15 17 17 16 16 17 17 17 16 16 13 12 11 11 11 10 10 11 13 15 12 11 11 12 12 12 11 11 9 9 5 6 9 10 11 12 13
17 19 18 16 14 14 13 13 12 13 14 16 17 17 15 14 11 11 11 11 11 10 12 14 13 12 11 13 13 14 15 13 12 8 5 7 5 7 8 8 9 11 13
19 20 22 16 15 15 14 13 13 13 12 13 13 14 16 15 13 12 11 12 12 12 12 13 11 12 13 15 15 15 15 14 10 11 9 5 6 9 10 9 9 11 12
21 18 14 15 17 16 15 15 13 12 10 11 12 11 12 13 14 14 14 15 13 12 13 12 13 14 14 15 15 12 12 12 10 9 7 6 6 9 9 7 8 8 11
16 15 17 15 15 15 14 13 13 13 12 6 9 13 12 14 14 15 15 14 12 11 12 13 13 14 14 12 10 9 7 6 8 8 9 7 10 8 7 7 10 10 13
16 14 11 11 10 9 9 9 9 9 13 17 15 14 15 14 12 14 12 10 9 9 11 12 12 12 10 11 11 10 7 7 7 10 12 13 15 13 8 9 10 13 18
10 11 10 10 9 9 8 7 6 8 8 8 9 9 10 9 9 9 9 9 10 11 11 12 11 11 12 12 12 12 11 9 10 12 12 13 13 14 7 7 12 18 14

GFSMA_850_spd_117.txt.gz
Wind_Speed
5 6 6 7 8 6 4 3 3 5 8 12 12 15 14 13 13 12 13 14 14 14 13 12 11 10 10 10 10 10 10 11 11 11 12 12 11 11 11 10 10 10 10
9 8 7 7 5 6 3 4 4 5 6 8 13 14 15 16 14 13 14 14 13 12 10 9 8 8 9 9 9 10 10 10 10 11 11 11 11 11 10 10 10 10 11
7 8 9 8 6 4 3 3 2 4 8 9 8 10 11 13 13 13 13 13 11 10 9 8 7 7 7 7 8 8 8 10 11 11 10 11 11 11 11 10 10 10 11
7 7 8 8 5 4 3 2 3 6 8 8 7 8 8 10 11 13 12 10 8 7 7 7 7 7 7 7 8 9 9 11 11 11 10 11 12 13 12 10 9 9 10
7 6 9 6 6 5 7 5 6 8 8 9 9 7 6 6 8 9 7 4 2 2 3 4 4 5 5 7 8 8 8 10 12 13 12 12 13 14 14 11 9 9 9
7 6 10 5 7 6 6 6 7 4 6 5 3 2 3 4 6 6 4 1 1 1 2 3 4 5 6 6 7 7 7 9 10 12 13 14 13 14 14 12 8 8 9
7 7 9 6 6 6 4 5 4 5 3 3 4 3 2 3 3 6 5 3 2 2 3 5 6 7 7 7 7 7 7 7 9 12 15 15 14 16 15 13 8 8 9
5 7 7 7 6 4 1 2 2 0 1 2 3 3 1 2 3 5 5 5 5 5 5 6 9 8 8 9 9 8 8 10 10 14 14 13 14 17 16 13 8 7 9
6 5 6 7 6 5 4 2 2 1 1 1 3 2 1 1 2 5 6 7 7 7 7 7 8 10 11 11 8 9 10 12 15 14 9 10 12 16 17 13 9 8 8
8 8 6 6 7 6 5 6 4 4 3 3 1 0 1 0 1 2 5 4 4 4 5 6 9 9 10 9 9 10 12 12 12 11 12 11 12 14 16 13 10 8 8
9 8 7 7 7 7 8 8 8 5 4 4 5 4 4 3 3 4 6 6 8 8 8 8 7 11 11 10 11 10 12 16 11 13 13 12 12 10 12 13 14 10 9
12 11 11 9 9 9 9 10 10 7 5 4 3 3 3 5 6 5 5 6 5 6 7 6 6 9 6 7 7 10 13 11 6 11 12 13 12 11 10 9 11 11 11
12 13 12 13 10 9 9 10 12 11 9 7 6 5 4 4 4 4 4 5 5 6 4 5 3 5 5 7 8 10 12 13 12 9 9 10 12 10 10 9 10 9 10
15 13 15 12 12 11 11 11 12 12 12 12 11 9 7 6 5 4 4 4 6 5 6 5 5 6 8 9 7 10 14 16 11 6 7 8 10 11 14 14 12 12 11
14 14 16 16 14 13 13 12 12 15 12 11 11 11 11 11 11 10 9 10 8 9 9 6 6 8 8 8 9 12 14 14 9 8 9 10 14 15 16 15 14 14 13
11 13 13 15 16 17 16 15 13 14 14 12 12 11 11 12 13 13 12 12 11 10 11 10 9 12 12 10 11 12 14 11 9 10 12 15 17 17 15 14 13 13 12
10 10 12 13 15 17 18 17 16 15 16 15 14 12 12 12 14 15 15 15 14 13 12 12 14 14 14 13 12 13 14 13 11 13 14 14 15 14 13 11 11 12 12
11 10 10 11 13 15 17 17 17 17 17 17 16 17 16 16 15 14 14 16 15 14 13 13 11 9 9 10 10 11 11 8 11 12 12 13 13 12 11 9 9 10 11
14 13 11 12 12 14 15 16 14 15 17 18 18 18 17 17 17 15 15 14 12 13 14 12 9 11 13 10 8 8 9 10 7 7 8 7 8 10 11 12 12 12 13
17 16 13 12 13 14 14 16 16 16 17 18 18 18 16 16 16 14 13 12 13 14 13 12 12 11 12 10 10 9 9 8 7 4 6 5 3 5 8 9 11 12 14
18 16 14 13 14 13 13 14 15 15 16 18 19 19 19 18 16 15 12 11 13 13 13 13 13 11 11 9 12 11 11 9 8 3 2 4 4 3 4 6 8 10 12
22 17 14 16 15 17 17 17 17 15 15 15 15 14 15 13 13 13 13 12 11 13 13 12 11 10 11 11 11 11 10 7 4 5 3 5 5 3 5 6 7 8 9
18 18 17 18 21 19 14 13 14 15 15 14 15 14 11 9 9 10 11 11 12 14 12 11 10 10 11 12 11 8 8 6 3 3 1 2 3 2 6 7 8 9 10
15 15 14 14 13 14 17 15 16 15 14 11 9 11 11 12 15 13 14 15 14 12 10 10 10 10 8 7 7 6 5 7 6 6 4 1 3 0 7 10 12 13 14
16 14 14 16 15 15 14 12 13 15 17 19 19 16 17 15 14 12 13 13 12 10 9 9 9 9 9 8 7 7 5 5 6 9 10 8 7 5 4 11 13 12 17
18 19 18 12 11 10 9 10 10 10 10 10 10 14 15 13 12 14 12 11 10 11 13 13 12 11 10 11 10 10 9 6 6 7 10 10 9 6 2 10 13 17 14

GFSMA_850_spd_123.txt.gz
Wind_Speed
6 6 7 4 6 6 6 6 5 5 7 7 7 7 7 9 9 6 8 10 11 10 10 9 9 8 8 7 8 9 9 9 10 11 13 14 14 14 13 12 10 9 10
7 4 6 6 6 5 5 4 2 3 6 6 7 7 7 8 9 8 5 8 9 8 7 7 7 7 6 6 6 6 8 10 11 12 13 15 16 16 15 13 11 10 10
6 8 6 7 6 3 6 4 4 5 6 5 6 7 7 7 6 8 6 1 7 6 6 6 6 6 6 5 5 7 8 10 10 12 15 16 16 16 15 14 10 10 10
8 10 7 6 4 6 5 4 4 4 5 4 5 5 5 4 5 6 5 4 2 2 7 5 5 6 6 6 7 7 8 9 10 12 15 18 16 16 15 13 12 10 10
8 8 7 5 7 6 6 6 6 6 5 5 5 5 4 4 4 4 4 3 3 3 2 7 5 5 7 8 8 9 10 10 12 13 16 20 17 17 16 13 12 10 10
6 10 6 6 8 6 7 6 7 5 5 5 4 6 4 5 6 6 5 3 4 3 2 5 8 11 11 11 11 12 12 12 13 14 17 18 16 18 18 14 12 10 10
6 13 6 7 8 1 12 7 6 6 4 4 2 4 6 9 10 9 6 5 6 3 4 6 8 7 12 14 15 14 15 14 15 15 16 14 14 16 18 14 11 10 11
6 6 7 6 8 3 3 4 5 4 2 4 9 7 12 11 15 11 8 7 6 5 5 6 6 10 9 7 15 17 12 14 16 15 13 13 12 14 15 13 10 10 11
6 6 7 6 10 4 6 2 4 3 8 4 6 10 9 8 12 9 10 7 6 6 6 6 9 7 8 7 10 13 13 13 15 11 10 13 13 13 10 11 11 9 10
8 6 7 6 7 5 6 2 3 5 7 5 3 8 9 6 13 3 6 18 4 6 5 5 6 4 6 7 10 9 10 13 13 10 11 13 13 9 7 8 10 10 10
8 8 8 6 6 7 7 11 7 6 1 7 7 9 8 11 14 14 14 5 10 4 1 3 6 7 6 8 4 9 10 13 13 12 11 11 12 8 8 8 9 11 11
7 10 9 9 8 7 8 6 6 6 8 6 6 6 9 12 13 16 14 13 9 10 6 4 5 5 3 4 7 10 8 12 14 11 9 9 9 11 10 10 10 11 12
13 15 12 11 9 9 8 7 9 9 7 7 6 8 7 9 9 10 11 13 13 12 11 6 10 8 4 6 9 13 12 12 13 10 8 10 13 14 16 16 14 12 12
10 8 8 10 11 11 9 9 9 7 8 9 9 10 10 10 9 10 11 13 14 15 15 6 9 5 7 6 12 8 14 11 13 10 9 10 12 14 14 13 12 11 11
11 15 11 12 13 12 13 13 11 10 11 8 8 10 9 10 11 11 10 10 11 14 15 9 7 7 8 6 14 9 11 12 16 10 10 11 12 11 11 11 8 11 11
13 13 11 13 14 15 13 14 12 12 13 12 11 11 12 10 11 10 11 11 12 13 16 13 13 9 9 15 11 9 10 14 13 9 12 12 10 9 9 9 9 9 10
16 14 13 14 13 16 18 18 16 16 12 12 11 14 10 12 11 11 13 10 12 13 15 16 12 13 16 8 9 9 7 13 12 6 15 13 10 9 8 8 8 7 7
13 13 13 12 12 13 13 15 15 14 15 14 10 13 13 12 12 11 12 14 12 14 11 17 15 14 15 8 7 8 5 8 2 10 13 11 9 8 7 7 7 7 7
13 11 12 11 11 11 11 12 15 14 14 14 13 14 14 15 15 15 17 12 11 12 15 13 17 17 17 13 6 6 4 5 10 12 10 8 10 9 7 6 6 7 8
14 11 13 13 12 11 11 12 13 12 14 13 13 19 16 18 19 17 14 15 16 15 14 14 16 16 14 19 9 7 9 3 7 4 4 6 10 10 6 4 6 7 9
15 15 15 15 13 11 12 15 17 12 11 11 12 14 13 14 18 16 17 17 18 17 12 12 14 11 15 16 14 10 6 6 8 3 10 8 4 6 3 3 6 8 10
18 16 16 16 15 14 19 20 20 14 12 12 12 11 13 13 15 15 15 13 13 12 13 15 14 13 13 12 8 6 8 11 6 9 9 8 9 9 11 6 8 9 10
20 19 19 19 17 19 20 19 17 16 11 10 9 10 11 10 11 11 10 11 12 12 12 13 13 15 13 13 11 11 9 10 7 2 5 7 13 16 15 13 16 14 11
24 23 20 20 20 22 19 19 18 15 13 15 15 13 9 12 13 11 8 11 13 14 14 12 14 12 12 13 12 9 8 8 7 7 8 8 8 9 15 13 15 13 12
27 30 25 21 21 20 19 15 13 18 12 12 14 13 13 13 11 11 12 15 14 12 12 12 11 11 12 12 12 9 6 8 12 13 12 8 6 3 7 16 13 12 17
31 30 30 22 19 14 12 10 7 6 5 9 8 8 9 11 18 21 16 11 11 11 9 9 10 12 12 12 11 11 12 11 7 7 12 5 4 4 4 9 6 11 11

GFSMA_850_spd_129.txt.gz
Wind_Speed
8 9 13 9 6 5 8 4 6 8 11 7 8 8 10 4 4 4 7 9 9 8 6 5 5 5 6 7 8 8 8 9 11 12 14 15 13 12 12 11 9 6 5
9 11 5 8 4 5 2 3 1 1 5 3 4 6 7 4 2 7 8 7 7 6 4 3 3 4 4 5 6 7 8 9 10 11 14 15 14 13 13 11 10 6 5
13 10 4 2 1 1 5 2 3 1 6 2 6 5 11 7 4 5 4 5 8 7 6 4 3 4 5 6 7 8 9 10 11 11 11 15 14 15 16 12 10 6 5
10 7 4 5 1 6 7 4 1 3 10 3 5 8 4 4 4 3 2 3 6 7 8 5 4 4 6 8 8 9 10 10 10 11 11 13 12 13 15 13 10 7 5
14 10 11 9 5 12 8 5 5 11 12 8 2 7 5 4 2 5 2 6 8 10 13 9 11 8 8 10 9 10 11 11 9 9 11 11 10 11 14 12 9 8 7
11 11 7 8 8 12 9 6 7 6 5 9 8 6 10 2 3 4 10 6 12 13 8 17 14 11 11 10 10 11 13 11 9 9 8 8 10 10 12 10 8 9 9
9 7 8 8 5 7 8 12 6 10 8 3 1 12 12 16 10 8 8 9 9 16 22 11 20 18 8 4 6 8 12 10 10 8 4 8 9 9 9 9 8 8 8
12 6 3 3 6 5 14 4 4 10 5 4 3 3 5 9 12 12 11 14 14 15 11 17 31 16 12 8 2 7 11 10 11 10 6 8 9 8 6 9 8 7 8
8 7 3 2 6 4 5 2 2 11 5 8 5 5 3 10 13 13 14 10 14 15 15 15 14 15 3 4 2 8 8 10 12 12 10 7 9 7 5 5 7 7 7
8 11 2 3 8 5 5 5 4 5 3 9 4 5 9 7 6 13 4 10 10 12 15 10 7 1 4 0 3 5 8 10 12 13 10 6 7 8 8 5 7 7 7
12 10 7 8 6 6 13 7 2 1 6 5 17 4 7 10 7 5 12 16 11 14 11 13 5 4 5 4 2 8 9 11 13 12 9 6 7 9 9 10 8 8 7
8 12 11 10 9 13 13 11 10 10 8 11 5 5 3 6 8 7 13 12 12 10 11 13 4 3 4 2 6 6 10 10 12 12 10 7 9 11 12 12 10 7 6
12 10 14 12 9 9 13 12 11 10 11 9 11 11 14 9 6 9 11 14 14 11 11 13 9 10 3 5 6 7 8 9 11 15 9 8 9 12 11 9 8 8 7
12 11 12 14 12 10 10 11 13 10 8 8 10 9 11 14 12 8 12 11 11 9 12 14 11 2 8 3 6 12 10 10 9 13 11 10 11 14 11 9 7 8 10
13 11 11 12 13 12 12 14 12 12 12 12 8 8 8 6 7 11 10 8 8 5 9 9 5 6 5 3 4 6 10 11 11 12 13 12 11 12 11 9 8 7 7
18 14 14 13 15 15 13 12 13 13 13 13 11 11 13 13 13 14 14 8 7 7 3 4 1 1 5 3 7 10 11 7 9 11 11 9 10 8 9 8 6 7 7
19 21 18 17 15 14 16 17 17 15 15 16 13 15 16 16 15 13 12 12 12 11 9 8 8 10 12 11 11 10 11 8 5 11 8 6 8 8 7 7 7 7 6
17 16 15 14 12 12 15 14 15 13 14 17 17 16 14 13 13 13 14 12 10 11 13 15 16 13 13 14 15 14 16 14 9 6 4 7 3 7 8 5 5 5 6
14 12 14 13 11 12 12 11 11 11 14 15 17 17 17 15 15 15 16 16 16 17 17 16 15 14 13 11 10 12 14 9 10 11 11 7 3 5 6 3 3 5 7
15 13 12 11 8 7 10 11 10 8 9 10 12 13 15 16 16 16 17 17 18 18 16 15 15 15 13 10 10 11 9 7 9 8 7 4 5 5 4 2 4 6 9
15 13 12 8 9 9 9 9 9 9 8 9 11 11 11 11 13 16 18 17 18 18 17 16 15 12 10 9 7 9 8 8 7 6 9 8 7 4 2 2 5 9 12
17 15 13 13 13 14 13 10 10 11 13 15 15 15 15 16 17 17 15 16 16 15 15 12 10 11 9 9 8 7 6 7 8 10 8 6 9 7 6 6 9 11 13
20 20 18 17 19 19 18 15 16 16 18 18 18 16 14 17 14 13 12 13 13 11 10 10 9 9 10 10 9 7 8 9 8 10 7 6 11 11 13 10 10 10 11
20 18 18 20 21 21 20 18 18 18 20 21 17 15 14 14 11 9 9 9 6 6 8 10 10 10 9 9 8 8 8 8 7 7 10 11 12 12 15 12 11 12 12
16 17 19 18 17 17 18 18 18 18 17 17 16 15 13 12 10 7 9 11 11 8 8 8 7 10 9 10 9 10 10 10 8 7 8 9 12 12 12 12 12 10 7
13 12 12 13 15 16 19 21 20 13 9 9 8 6 5 2 2 5 8 12 14 13 7 7 5 5 8 12 11 11 9 11 12 11 10 7 11 11 13 15 15 12 8

GFSMA_850_spd_132.txt.gz
Wind_Speed
10 9 8 5 5 6 5 7 9 9 8 7 6 4 4 1 9 5 6 7 7 6 6 5 5 5 5 5 6 6 6 6 6 8 11 11 11 10 8 7 6 4 4
10 11 6 6 6 6 5 9 5 4 3 1 4 5 6 5 3 8 9 10 9 9 9 9 9 9 9 8 8 8 8 8 8 8 9 12 10 11 10 7 5 3 4
8 7 5 3 3 3 4 2 2 2 3 4 4 4 1 1 1 3 5 8 9 6 4 5 6 8 9 11 11 11 11 10 10 9 10 11 9 10 11 7 4 3 3
12 9 10 8 5 5 7 3 4 2 5 6 8 9 5 5 4 2 3 4 5 7 6 7 8 12 13 14 12 10 13 12 11 10 10 11 9 10 12 8 5 4 3
14 11 12 9 6 7 6 6 0 2 7 6 6 3 2 2 1 1 4 5 7 8 10 13 16 20 19 18 16 9 11 13 11 10 9 9 9 10 11 7 6 5 4
14 11 10 10 7 5 7 4 1 2 3 8 7 9 9 5 4 7 9 11 12 13 14 16 21 28 20 24 16 12 8 10 10 10 8 6 9 9 8 6 6 7 7
15 11 12 13 9 9 4 6 5 4 2 3 8 8 12 11 11 11 11 13 10 11 16 15 28 20 20 26 13 10 4 7 10 10 6 7 8 6 5 5 5 7 8
14 10 12 12 13 12 8 10 9 6 2 0 6 7 4 4 7 11 13 15 14 15 16 18 19 15 12 15 5 7 5 7 9 10 8 6 6 4 2 4 4 5 7
14 10 8 8 9 14 12 12 12 12 2 3 1 4 2 1 9 9 17 17 10 14 20 20 4 5 8 3 4 3 5 7 9 11 8 5 5 4 4 4 4 4 4
12 10 7 7 6 9 10 7 7 10 1 5 2 3 2 4 6 7 7 10 9 12 10 11 6 3 5 3 2 3 5 7 12 11 8 5 4 6 7 7 9 8 7
13 14 9 9 7 7 13 6 4 4 4 1 3 3 2 1 4 8 8 9 8 9 10 9 6 2 5 4 2 3 6 6 10 10 8 6 7 8 9 10 11 11 9
17 15 12 9 7 9 8 6 5 6 7 5 3 1 2 1 5 8 10 11 10 9 9 12 7 6 6 6 6 5 2 5 7 10 9 7 9 10 12 11 9 8 9
17 18 17 13 11 9 11 11 10 8 8 9 10 9 9 8 9 10 10 12 10 12 7 7 5 11 6 5 3 3 4 9 7 9 9 7 8 10 10 9 6 7 8
14 16 17 14 12 10 11 12 14 12 9 10 11 10 8 9 8 8 8 9 10 8 5 4 5 1 4 4 4 5 8 7 6 7 8 9 10 10 8 7 6 5 6
18 16 17 15 16 15 13 13 13 11 11 12 12 9 9 9 9 11 10 10 9 7 7 3 3 1 2 6 9 8 9 12 9 8 8 8 11 10 9 8 6 5 4
17 17 16 17 17 15 12 14 13 13 14 13 13 13 14 15 13 14 14 14 12 9 7 5 4 6 7 9 10 14 14 12 12 8 9 7 9 6 6 7 6 5 3
22 21 19 17 16 15 16 17 17 15 15 14 15 13 16 18 18 17 15 13 11 14 15 12 11 13 13 12 13 13 14 13 10 10 7 4 6 5 5 5 6 6 6
25 24 23 23 20 18 16 17 18 18 17 17 16 17 17 16 17 16 17 15 15 14 14 14 12 14 13 11 12 12 12 12 12 9 6 5 6 5 5 4 4 5 6
24 23 23 23 20 18 18 17 17 15 16 17 16 17 18 17 17 16 17 16 15 16 16 16 16 16 14 13 11 10 9 7 7 7 8 9 6 3 4 1 2 4 7
26 23 19 18 19 17 15 14 15 14 14 14 14 14 14 15 17 16 15 14 16 18 18 18 16 16 16 13 12 11 9 9 9 9 7 6 6 4 2 2 1 3 8
28 24 18 16 18 17 16 14 13 13 13 11 10 11 13 14 13 13 14 15 17 17 17 17 16 17 13 12 12 11 10 9 8 7 9 9 10 8 6 5 3 6 8
27 22 19 20 19 19 16 14 13 14 13 12 12 13 15 16 16 16 17 17 16 16 16 15 14 12 11 11 10 10 10 10 10 10 10 12 10 9 10 10 7 6 8
28 24 22 21 18 19 18 16 15 13 14 15 17 16 16 18 18 16 14 13 14 13 13 12 11 11 10 11 11 10 10 12 13 12 11 12 12 11 13 13 11 9 7
27 25 24 23 21 22 20 16 16 14 16 18 18 20 18 16 16 15 13 11 9 9 9 10 11 11 9 9 9 9 9 10 13 12 10 15 14 15 15 15 14 12 9
29 26 27 27 24 22 20 16 17 17 18 19 19 17 15 15 15 13 10 10 11 10 9 10 11 9 9 9 10 11 10 11 11 12 13 15 16 17 19 17 17 14 11
30 29 27 24 19 17 13 14 14 17 21 20 15 11 8 5 2 1 4 7 11 13 13 10 5 5 7 8 9 10 11 10 11 13 13 15 16 13 17 19 19 17 13

GFSMA_850_spd_135.txt.gz
Wind_Speed
15 11 9 7 6 6 7 9 10 8 7 7 5 2 3 6 10 9 9 9 7 5 4 3 2 4 7 9 8 10 10 11 12 10 9 10 11 11 10 8 6 4 5
11 10 5 6 5 5 9 8 4 1 1 2 1 1 3 8 11 12 11 8 5 5 4 4 5 7 9 9 12 12 11 10 12 12 12 12 13 11 12 10 7 4 4
11 6 7 5 5 6 6 3 1 3 4 4 2 3 4 6 6 5 3 2 2 2 4 7 9 11 13 14 16 16 13 12 11 13 12 11 11 10 12 10 7 6 5
10 10 7 6 6 4 3 3 4 4 3 5 4 1 3 4 1 1 2 4 5 6 7 9 11 13 14 18 15 21 13 12 11 11 12 12 9 10 11 8 6 6 5
12 11 9 9 7 6 5 6 5 5 4 5 4 1 1 1 1 3 4 5 6 9 11 13 17 19 19 24 20 19 17 12 11 10 10 10 9 9 9 6 5 6 7
15 13 11 10 8 8 6 6 4 2 4 6 5 7 7 8 8 8 9 11 11 12 12 13 16 20 21 24 20 22 12 8 10 10 9 8 10 9 6 3 4 5 5
17 14 13 12 10 10 7 7 6 2 1 3 9 10 11 11 12 13 13 14 14 15 16 16 15 18 18 13 6 8 7 8 9 11 9 8 9 8 4 3 4 5 5
17 14 12 13 13 12 10 9 10 7 4 3 6 7 5 8 11 12 14 13 15 17 15 20 17 9 11 8 1 2 3 7 10 11 10 8 8 7 5 5 5 6 6
14 15 11 12 15 14 13 12 11 10 10 7 3 6 4 4 4 4 8 9 11 11 9 11 13 10 10 3 4 2 5 7 9 11 9 7 7 7 7 7 8 9 9
15 14 9 9 6 9 11 13 12 11 8 8 7 6 5 3 2 3 4 5 8 10 8 11 10 4 5 4 3 3 6 8 9 9 10 8 8 10 11 11 12 12 11
16 14 11 9 5 9 12 9 9 8 9 4 6 6 6 4 3 4 6 9 6 8 13 12 9 6 4 4 2 5 8 7 8 9 12 9 8 9 11 12 12 11 9
17 15 15 10 9 9 9 10 7 7 5 5 4 5 5 4 5 5 10 12 12 10 12 11 9 8 7 11 4 6 6 8 9 9 10 9 8 8 10 10 9 8 9
20 18 17 14 14 10 13 14 11 8 8 9 9 9 9 8 9 10 10 10 13 14 13 10 10 9 8 5 6 6 9 10 11 9 9 9 10 11 11 9 8 7 8
18 17 18 18 16 14 13 14 14 12 11 11 11 12 11 9 10 10 10 11 11 13 14 12 9 9 6 6 7 8 11 12 13 12 11 12 9 11 10 9 8 6 6
18 16 18 19 18 16 14 12 13 13 14 15 14 12 11 11 9 9 9 12 12 13 15 12 10 7 7 8 10 13 13 15 15 13 14 13 10 10 9 7 6 6 6
19 21 20 19 18 19 19 17 16 16 16 16 15 15 15 14 14 13 12 13 15 14 15 13 10 11 12 11 13 15 18 17 15 14 14 15 9 8 8 6 5 5 5
22 22 21 19 20 20 18 19 19 18 18 17 16 16 16 16 18 17 17 17 17 15 15 15 16 16 16 16 15 15 15 15 15 14 13 11 7 8 9 6 5 4 4
29 27 23 22 21 20 18 20 19 19 20 19 19 18 17 18 17 16 17 16 16 17 16 15 14 14 15 15 16 15 14 13 13 12 11 9 8 8 8 5 3 2 3
29 27 25 25 23 23 23 22 21 20 20 20 20 19 17 17 17 18 17 17 17 18 18 18 15 15 15 15 15 15 14 13 11 9 10 11 10 9 8 5 4 3 3
31 27 25 24 25 24 23 21 21 20 19 17 17 16 16 16 16 16 17 17 16 17 19 20 19 18 17 16 16 14 14 14 13 12 12 11 10 8 8 7 7 5 4
32 29 27 26 23 24 23 22 20 18 16 15 14 15 14 14 14 14 14 14 16 18 19 20 20 17 15 14 14 14 15 15 15 14 13 12 14 13 12 11 10 8 6
36 33 32 29 26 23 23 20 18 17 17 16 15 14 13 14 15 16 19 19 19 18 18 17 17 16 13 12 12 12 13 14 14 12 13 14 15 14 13 13 13 11 9
36 33 31 29 28 26 22 22 19 17 17 16 15 15 17 17 18 20 20 18 17 16 15 13 13 12 11 10 10 10 11 12 14 15 15 16 16 16 14 15 13 13 11
33 33 32 31 28 26 23 21 21 21 20 19 18 18 18 20 20 19 18 17 16 13 10 10 10 12 12 10 9 7 7 10 11 12 13 16 16 17 16 17 17 16 14
35 35 32 31 28 28 26 22 24 24 23 19 18 18 18 18 17 16 15 12 13 13 12 11 10 11 11 9 11 9 7 8 8 9 10 13 17 18 17 19 20 18 13
35 33 31 28 30 29 26 23 23 18 15 16 16 21 18 14 9 7 7 6 8 11 14 13 9 5 4 3 5 6 10 11 10 10 12 14 18 16 15 14 16 19 17